GFSMA_con_3kmhel_000.txt.gz
Helicity
96 88 98 110 98 96 110 117 103 81 74 60 44 41 44 55 67 74 72 57 63 91 106 128 120 105 65 44 39 41 55 52 46 48 45 47 43 55 70 70 59 64 69
128 173 169 159 134 119 120 100 91 81 72 52 54 63 57 52 59 64 66 81 126 157 190 201 199 199 209 211 152 117 96 89 87 81 77 61 47 53 62 68 71 66 64
226 197 169 165 135 122 121 98 99 93 91 85 74 61 50 64 78 100 121 127 138 157 192 209 221 252 222 227 235 183 198 169 157 164 146 146 124 97 97 102 91 78 72
186 185 166 150 126 120 107 103 100 111 109 71 45 47 64 83 105 126 124 132 134 113 134 168 198 196 197 195 199 198 182 164 113 130 158 163 195 175 132 101 110 110 110
174 175 150 128 120 112 113 108 111 83 54 52 52 53 68 87 81 120 105 123 96 87 102 111 116 112 139 163 163 162 145 141 129 124 153 163 157 174 158 127 110 101 97
164 139 123 111 92 87 94 83 62 60 43 40 42 74 70 85 81 122 87 136 67 94 86 59 26 57 109 157 164 177 189 178 204 199 139 156 176 185 224 233 228 177 153
142 120 93 86 74 64 31 22 25 46 51 39 25 53 66 84 125 80 83 83 90 124 47 80 79 90 66 123 188 217 229 266 217 217 198 157 162 159 165 171 166 197 193
121 102 89 71 62 41 49 48 40 32 30 31 7 9 40 63 105 59 69 57 89 39 85 71 93 88 92 92 109 160 199 209 241 180 185 187 186 201 187 218 243 243 239
115 92 72 50 44 34 34 25 36 37 31 36 65 44 35 58 50 42 37 62 48 84 70 88 94 105 101 98 116 135 178 255 248 224 203 214 220 240 223 200 205 225 257
102 76 57 41 34 21 33 26 42 41 45 57 50 106 104 117 86 71 94 47 86 73 97 127 138 123 113 124 134 175 217 225 216 220 194 197 211 193 182 182 179 188 185
90 65 46 32 28 26 29 49 71 92 70 72 78 79 91 114 117 152 119 124 104 109 137 163 156 150 146 137 164 166 186 182 196 189 182 183 187 179 172 175 173 193 205
78 63 48 39 35 39 49 62 79 99 98 99 98 106 108 109 109 123 140 149 157 176 212 205 183 158 150 153 145 166 158 165 155 132 126 149 177 207 216 205 180 127 134
67 60 56 51 46 55 72 85 96 106 96 91 89 95 111 133 165 197 206 165 181 220 244 229 196 174 170 181 180 151 169 154 120 122 131 149 145 142 178 189 177 134 114
82 75 69 69 83 92 97 101 95 92 87 89 87 100 121 143 182 216 241 236 215 249 277 278 203 167 167 175 167 115 131 86 93 102 109 123 135 134 130 134 106 71 81
120 119 109 105 106 107 104 103 97 92 92 90 91 99 128 147 171 176 212 252 305 327 312 279 233 165 164 141 109 113 122 97 91 93 118 129 133 124 123 111 102 83 72
151 142 124 116 108 109 116 112 108 101 98 104 101 126 141 148 174 175 199 230 259 303 374 228 188 159 133 144 109 103 137 88 71 71 75 87 86 76 88 104 84 37 85
157 135 120 119 117 131 127 123 113 95 102 108 120 145 158 158 157 168 187 217 249 262 284 191 161 133 124 100 104 114 105 102 91 56 50 45 53 82 91 98 100 105 91
152 134 122 122 135 139 126 119 108 101 109 133 150 163 150 143 145 165 198 208 215 228 252 194 149 118 108 98 125 106 90 98 74 55 26 36 41 31 41 52 55 58 45
143 128 133 148 149 139 122 112 104 111 128 151 152 151 147 151 158 164 181 213 215 182 176 172 178 164 168 161 132 67 74 73 99 46 24 19 15 24 16 26 31 66 94
135 145 159 153 142 124 106 95 113 131 150 150 155 165 162 161 157 161 171 198 190 178 171 192 194 148 186 152 91 95 84 105 144 131 76 49 28 27 24 21 31 44 57
150 159 164 152 130 109 95 115 132 142 149 169 178 178 180 180 154 149 177 187 152 158 180 161 169 163 136 83 74 85 131 149 131 108 96 131 94 113 97 38 24 29 34
173 171 160 127 110 105 114 142 153 165 172 178 187 210 230 157 137 110 118 97 93 138 150 142 162 116 73 83 116 134 127 113 -35 73 114 125 129 114 100 85 20 4 14
170 157 129 112 113 121 128 154 168 173 172 174 193 209 200 184 144 151 96 42 67 67 103 110 91 94 101 115 96 74 109 147 171 142 131 151 121 130 132 96 41 35 24
150 137 119 109 110 115 143 169 163 166 166 178 193 183 174 153 133 93 94 110 126 163 85 74 122 125 106 85 82 106 117 93 163 165 122 144 157 144 118 92 118 96 38
137 118 103 100 119 119 126 144 149 159 153 153 156 151 133 130 80 27 83 122 94 83 71 66 50 9 13 15 13 -13 -16 -27 47 126 118 118 161 139 129 179 178 84 23
100 102 107 116 105 125 103 116 135 144 149 157 154 151 74 72 44 67 100 87 96 59 48 36 10 42 31 64 26 33 51 53 101 164 141 140 170 138 56 153 72 78 62

GFSMA_con_3kmhel_003.txt.gz
Helicity
98 101 109 111 113 100 99 96 83 65 50 50 59 55 61 69 76 76 80 115 132 159 172 170 171 214 223 213 229 176 158 180 165 151 141 126 99 77 69 65 55 43 43
127 128 140 126 111 102 92 74 61 53 46 39 54 64 57 57 70 98 111 144 207 230 224 226 225 231 221 214 226 266 273 239 209 185 179 177 173 177 140 116 105 100 85
156 145 123 113 111 101 84 74 74 70 72 79 62 48 63 93 121 141 153 171 185 215 223 233 225 222 216 235 206 213 226 240 218 192 163 185 191 215 193 196 174 157 139
148 139 135 126 100 96 83 76 71 75 69 34 40 71 72 96 141 177 163 165 138 142 159 207 198 196 198 211 204 190 165 150 150 176 210 200 180 176 224 247 236 223 185
138 143 123 110 102 96 93 75 58 39 21 41 54 80 86 100 131 116 147 136 118 118 132 168 165 172 181 181 184 173 175 178 201 194 187 145 146 178 195 205 205 212 211
156 139 128 118 96 79 73 56 46 39 25 23 41 76 77 95 113 129 113 103 100 102 125 106 90 123 167 170 200 213 213 214 203 228 221 211 199 167 142 136 168 211 212
157 139 108 94 69 55 33 35 31 54 39 36 21 56 73 100 114 140 57 92 65 110 98 71 104 117 113 161 189 218 221 211 252 234 247 253 261 261 234 214 188 119 156
142 119 88 73 68 49 56 51 45 32 30 31 9 21 53 68 119 37 99 89 91 60 48 74 93 124 135 130 144 199 228 213 275 236 246 258 267 254 253 242 228 211 183
134 109 90 63 49 37 40 34 32 34 31 38 55 38 50 78 67 42 76 97 55 51 58 78 96 133 149 145 169 189 219 290 302 274 302 281 271 258 239 225 199 191 200
134 110 84 51 36 25 40 29 37 27 29 46 55 105 90 99 105 88 78 74 39 50 49 80 102 128 131 151 165 201 243 316 332 337 309 273 236 206 193 179 181 184 187
133 104 76 56 46 32 32 50 56 70 64 75 79 81 86 96 91 132 106 68 45 50 59 75 111 126 141 155 173 196 263 291 308 262 222 199 182 180 185 202 197 184 161
120 109 93 74 58 51 56 63 72 86 95 109 107 103 93 88 95 89 115 115 112 110 129 128 108 137 144 163 171 206 204 168 148 168 139 130 159 173 184 174 146 136 141
120 113 100 81 62 63 76 89 95 110 109 116 109 102 100 100 111 120 129 123 131 144 139 184 134 141 177 185 189 189 154 137 102 94 107 123 146 142 166 160 154 161 149
153 136 113 101 97 98 105 115 114 116 111 114 106 98 95 108 127 145 155 146 123 157 173 202 177 156 156 189 176 150 152 95 97 89 99 113 121 138 133 142 162 164 172
177 148 137 127 119 127 137 135 121 123 120 113 102 95 108 115 125 139 161 180 205 235 208 221 199 167 169 173 147 130 145 96 85 94 102 105 102 113 118 126 147 145 132
193 177 162 154 156 151 148 145 133 130 123 119 109 113 122 134 134 137 156 163 188 234 339 236 199 173 168 167 146 127 146 81 92 90 84 72 68 81 100 95 96 96 100
221 200 177 174 162 156 160 151 144 127 130 113 118 120 122 128 149 147 134 152 190 229 288 241 214 174 152 130 124 100 100 128 102 38 47 47 73 67 42 53 59 65 31
226 198 194 183 171 167 152 152 143 128 114 115 116 128 133 153 140 128 150 171 212 237 262 236 198 191 174 145 112 126 64 63 59 10 9 47 38 30 48 56 47 43 25
229 216 203 185 174 159 149 143 127 112 112 118 124 139 140 137 154 169 182 210 202 189 204 218 226 217 173 153 135 97 59 24 6 -15 24 37 22 39 44 29 18 10 16
229 216 196 180 169 148 135 120 112 110 114 127 146 153 153 182 201 195 187 176 195 191 187 202 218 190 188 142 134 103 40 16 34 58 54 56 48 38 29 38 31 35 34
220 204 189 171 160 141 118 118 112 114 129 145 140 152 178 188 185 180 190 185 164 179 178 196 179 186 184 126 104 92 108 87 97 134 108 104 109 150 143 67 47 16 9
219 189 180 174 154 121 92 116 141 151 147 133 147 159 183 168 154 114 108 67 88 131 141 155 202 184 171 173 149 127 89 -70 -18 133 151 145 145 146 141 143 62 12 -0
191 198 184 142 124 109 93 125 144 153 130 138 162 178 184 157 122 162 91 59 79 107 141 143 175 205 132 110 73 65 88 124 116 141 34 75 153 157 167 153 88 73 51
197 178 141 121 112 105 118 123 111 146 149 159 169 167 154 137 134 85 110 150 121 103 106 130 133 129 116 58 35 49 28 66 170 194 108 210 202 226 206 218 175 130 80
157 131 121 108 107 109 106 105 135 160 175 157 168 160 122 101 70 52 128 116 116 116 90 51 54 37 45 37 26 21 35 41 123 164 146 181 217 206 193 265 232 139 93
127 123 106 108 101 114 98 114 136 160 169 160 150 134 77 89 51 72 99 112 110 88 99 98 65 60 68 88 35 38 55 101 157 204 174 173 172 140 117 238 132 134 99

GFSMA_con_3kmhel_006.txt.gz
Helicity
81 80 102 110 110 100 95 82 74 71 61 56 53 58 69 74 86 92 106 167 192 187 211 248 223 202 186 205 271 251 233 232 197 173 170 167 180 189 149 104 82 88 87
100 117 144 127 118 98 81 73 59 57 44 35 52 65 67 66 92 111 130 153 209 221 231 225 228 203 231 228 214 216 207 199 191 181 158 169 173 168 162 169 173 166 140
134 142 140 125 106 91 72 61 57 51 55 61 52 50 66 85 141 145 156 160 173 206 225 218 211 209 197 195 203 195 176 162 165 172 185 182 167 160 179 208 223 227 225
141 151 128 123 97 83 58 50 50 47 45 34 51 65 58 95 147 160 156 147 148 140 168 200 201 195 189 191 193 190 181 175 179 180 186 173 159 174 179 193 227 247 254
147 148 137 113 93 77 68 54 46 21 14 38 68 81 64 91 152 159 150 138 135 108 99 145 162 144 143 139 148 164 172 159 149 133 132 142 133 126 127 150 171 182 209
158 147 128 107 82 67 62 47 39 23 3 27 43 79 68 94 130 146 145 121 124 85 81 82 64 75 122 126 143 162 161 158 149 157 158 152 138 153 157 153 137 131 131
158 134 108 88 67 34 6 16 11 37 14 26 15 70 73 85 96 124 115 69 109 76 52 58 49 58 86 110 140 169 171 167 156 222 196 187 202 214 210 203 207 196 197
144 134 109 77 38 7 29 32 33 11 3 -5 -11 -6 40 72 142 91 92 113 80 80 68 79 81 97 103 108 114 152 163 165 191 222 209 214 237 258 261 256 259 247 238
160 136 102 61 45 21 8 8 10 20 14 5 20 -1 8 45 65 88 130 106 86 71 42 43 53 63 84 99 112 128 141 150 192 212 245 283 293 285 272 256 235 211 199
154 127 94 77 53 16 25 13 16 9 4 20 23 67 74 89 66 67 91 105 63 54 37 53 33 64 73 99 102 121 133 144 181 215 254 248 261 274 260 226 217 213 210
148 123 112 90 64 38 33 41 41 43 28 30 37 53 84 110 133 162 145 108 59 38 31 40 71 16 53 86 113 121 120 148 161 193 192 218 206 197 196 206 213 218 219
144 143 127 105 86 72 63 50 52 62 67 76 74 81 91 98 108 105 129 98 61 30 81 33 18 40 58 81 90 120 123 146 156 158 158 137 144 167 190 210 217 198 207
139 136 130 137 114 99 88 78 77 79 83 93 103 116 121 112 109 116 114 86 76 53 -9 88 13 51 63 103 118 139 165 167 163 153 155 149 148 159 165 174 166 176 158
148 146 170 167 150 128 108 97 86 90 104 119 116 114 113 100 129 136 130 98 60 88 92 88 59 22 120 114 93 103 164 139 141 132 132 142 138 159 168 151 140 146 168
179 202 201 190 172 147 134 119 109 112 117 121 115 110 118 122 142 145 159 163 162 159 126 197 129 155 129 123 103 116 138 82 87 95 95 108 139 120 104 103 107 102 95
224 225 217 206 181 163 154 138 122 121 130 127 116 112 128 157 161 180 182 182 202 208 294 235 182 161 140 145 125 96 114 55 61 36 38 95 87 91 89 85 79 78 92
235 237 222 207 200 183 157 141 137 126 137 122 115 131 139 158 188 183 201 203 187 188 231 240 209 172 155 145 138 126 126 109 90 41 33 44 36 48 43 48 72 86 109
253 242 231 225 199 168 151 149 141 131 123 124 129 142 144 147 170 196 204 176 183 204 248 225 196 173 163 156 137 128 122 114 157 84 41 29 33 24 28 42 54 63 76
260 258 243 223 186 162 149 134 130 123 121 127 130 140 138 158 169 169 165 193 199 198 200 211 200 193 195 157 144 150 150 135 179 104 54 40 29 18 12 19 37 49 61
265 252 234 194 165 145 136 130 125 123 133 139 134 140 150 147 126 122 150 172 195 199 162 174 213 208 209 195 160 171 144 172 174 149 152 109 48 43 16 1 6 13 29
258 240 205 173 161 147 127 109 114 137 144 130 131 134 119 85 77 146 190 185 162 159 156 161 207 228 180 160 133 145 181 177 195 193 181 194 183 176 181 67 30 0 2
244 203 181 174 161 125 86 97 119 144 144 136 134 116 117 97 141 128 107 78 106 121 169 151 169 168 174 157 168 175 185 166 206 203 171 236 204 214 197 178 89 43 25
197 183 174 148 127 104 92 105 106 146 152 133 113 125 153 163 147 160 122 115 139 76 86 129 145 148 147 125 128 122 167 205 206 213 126 229 202 207 189 168 85 53 31
176 158 140 126 117 109 107 96 98 151 141 122 123 153 165 159 135 96 114 122 103 104 118 105 108 107 74 73 89 118 116 139 225 234 183 230 229 218 177 189 156 101 51
154 131 117 113 110 99 92 107 118 132 133 133 160 142 129 118 67 43 104 112 107 102 72 35 49 45 45 41 57 81 84 73 165 213 186 190 220 191 192 256 189 110 76
127 118 107 104 86 104 95 94 97 126 144 158 125 124 89 93 42 62 94 108 95 87 90 77 60 63 66 98 51 76 81 132 139 192 198 182 207 204 270 383 280 247 178

GFSMA_con_3kmhel_009.txt.gz
Helicity
87 102 121 119 104 97 95 85 75 66 64 62 65 66 73 62 66 75 94 161 192 233 231 233 199 172 227 199 188 191 184 186 177 164 150 151 145 156 157 155 141 113 101
121 140 144 134 112 101 87 81 72 58 54 54 63 66 59 53 78 93 103 128 188 209 204 196 194 197 179 172 189 178 157 161 156 153 141 143 142 139 140 142 152 161 154
153 148 148 133 114 99 85 72 56 52 58 56 59 53 61 76 99 126 127 136 142 194 194 194 190 170 161 165 162 160 157 141 162 176 171 142 137 152 159 150 157 165 169
159 161 143 129 101 88 67 56 60 48 47 47 52 56 54 73 120 141 135 138 140 138 152 188 185 167 159 150 135 138 149 134 123 126 107 102 115 125 119 129 130 137 151
167 157 143 114 90 78 72 56 49 35 39 51 50 45 51 81 136 145 161 148 147 154 139 140 142 140 143 121 112 117 127 127 119 118 113 133 133 100 100 105 113 114 123
172 156 136 109 82 80 70 48 43 24 12 33 38 42 63 76 105 129 139 113 135 143 122 97 92 81 100 90 84 93 104 104 94 90 82 114 116 112 112 107 117 116 103
172 155 129 102 87 79 58 37 3 18 25 29 31 59 58 74 86 86 87 127 133 132 89 81 80 79 76 93 88 89 107 94 94 93 111 123 123 126 126 148 148 136 146
177 149 113 90 75 52 39 37 25 -4 -9 -3 -15 -26 31 46 80 65 94 121 120 127 112 103 103 98 95 92 94 112 118 130 134 141 161 163 165 173 201 205 190 188 188
168 145 119 97 78 48 35 28 13 8 7 -4 11 -16 -13 30 65 67 92 119 113 91 74 59 47 51 58 63 77 97 115 127 119 124 153 172 199 219 214 203 200 201 199
167 149 127 104 81 57 41 16 -1 -3 -15 20 -4 25 19 31 3 4 37 89 83 81 40 21 29 8 21 34 58 81 114 142 133 132 148 167 184 171 195 204 199 182 174
169 146 126 107 98 73 53 32 18 15 6 -1 9 19 42 57 76 71 80 85 71 23 11 -1 -11 -4 10 30 54 69 117 116 120 158 180 186 189 209 196 170 169 185 208
165 148 132 123 106 85 64 52 40 33 28 25 24 33 34 24 39 70 94 78 73 12 44 -9 18 18 24 33 55 97 105 125 134 143 155 153 141 143 168 180 217 193 195
157 138 136 125 107 90 83 76 65 56 56 55 56 59 62 70 90 92 95 90 107 69 34 49 21 26 14 76 98 89 102 116 148 167 178 177 176 189 193 197 169 175 151
159 152 153 139 124 114 108 100 84 76 71 71 73 83 96 94 91 91 97 89 79 94 91 109 69 55 86 112 72 45 74 69 99 118 128 141 154 161 155 226 228 187 217
179 169 156 149 143 138 127 113 93 88 92 101 105 104 99 93 103 108 125 144 150 138 121 157 144 148 104 74 51 68 94 54 47 44 62 81 95 119 124 157 171 165 161
194 178 175 170 161 149 139 119 113 114 112 116 114 104 100 110 111 128 155 168 175 178 258 190 161 127 79 73 46 56 60 48 56 48 50 52 64 65 68 72 92 102 111
197 199 189 185 170 159 142 139 132 117 112 116 117 123 117 123 142 157 166 180 201 198 229 214 174 130 96 89 90 85 73 74 90 47 42 27 20 34 37 30 34 58 76
222 211 204 190 172 163 153 142 121 114 125 130 125 129 129 149 150 155 171 169 174 157 180 167 151 145 127 94 80 83 103 124 142 89 32 21 20 12 8 -0 -19 21 22
232 222 205 190 175 157 147 125 110 119 124 120 125 126 130 138 141 151 153 152 143 147 147 173 177 175 134 104 123 137 100 101 114 64 59 52 37 27 17 10 -8 -24 -31
230 216 202 175 162 148 123 113 111 110 120 120 128 128 132 129 129 130 127 98 117 148 142 169 179 177 146 116 115 107 95 107 97 102 128 90 79 61 44 29 9 -8 -25
229 202 174 163 150 128 120 113 109 116 122 132 132 127 128 121 96 101 136 140 138 149 166 191 173 154 122 102 90 95 115 109 121 119 136 128 171 168 178 90 61 26 6
202 176 167 154 143 129 110 107 114 132 138 141 126 119 137 122 109 73 90 81 97 142 158 153 144 134 107 106 101 92 116 116 122 103 103 183 181 183 179 148 63 18 13
164 159 152 144 133 113 103 111 113 136 141 129 128 128 128 131 104 120 101 83 101 78 88 126 111 104 111 106 64 105 111 127 159 191 109 192 199 222 193 185 85 45 22
155 148 144 124 121 112 106 117 115 130 126 129 124 123 121 111 102 90 106 122 106 86 102 89 81 102 99 -2 93 116 106 116 196 195 130 216 234 219 222 291 185 78 73
143 136 121 128 118 106 112 109 116 125 123 128 129 101 96 92 79 47 114 105 90 83 58 33 42 48 32 29 57 104 131 126 119 173 144 180 210 226 293 347 204 173 143
135 127 128 105 88 104 101 100 106 121 133 122 79 82 71 91 52 65 92 91 100 68 53 51 67 56 40 55 55 80 102 123 118 152 139 170 183 143 231 217 332 318 250

GFSMA_con_3kmhel_012.txt.gz
Helicity
109 128 119 109 89 79 73 70 69 70 65 53 43 42 49 49 46 57 88 154 175 186 182 170 186 174 168 173 174 153 144 146 153 151 136 114 114 131 129 125 129 133 114
140 147 146 127 97 86 77 73 70 59 50 42 41 45 47 44 56 66 85 109 170 170 168 163 161 152 156 152 139 127 137 135 148 165 171 156 123 124 125 115 132 144 147
156 157 148 128 111 84 73 64 50 40 39 39 41 37 39 46 57 80 95 103 107 151 163 162 155 146 146 138 127 119 125 126 121 120 140 132 115 104 111 109 109 117 131
168 169 135 127 108 89 65 52 44 38 36 37 36 38 40 48 77 100 114 120 125 116 111 153 153 136 131 123 120 117 120 124 116 106 97 100 93 87 90 96 89 84 89
165 162 135 125 100 78 62 47 42 42 39 40 35 35 40 53 79 102 119 118 115 115 115 112 119 97 113 108 120 114 118 126 110 105 99 107 94 89 88 79 69 80 80
155 156 143 122 85 62 54 37 38 34 30 37 27 34 51 58 80 93 103 93 105 105 111 110 92 81 63 83 96 104 103 103 91 92 84 89 97 105 98 97 101 88 81
170 156 137 112 80 73 56 42 26 22 24 37 33 40 58 68 66 73 91 75 116 104 100 95 91 80 87 95 95 111 110 102 103 95 92 86 99 107 96 99 98 101 112
176 154 125 102 85 62 54 43 26 12 19 28 24 35 65 62 86 48 108 111 95 130 107 111 107 103 98 103 110 104 126 144 141 131 124 126 138 141 137 142 157 163 160
175 153 127 103 79 61 44 35 31 27 16 24 36 22 10 63 83 71 75 94 113 108 101 83 70 63 66 72 70 91 120 121 144 152 157 160 166 168 177 183 188 177 169
171 151 123 96 83 61 44 37 32 25 5 21 5 34 38 55 42 41 44 24 102 69 69 69 60 58 62 70 82 80 104 146 143 133 144 159 170 181 191 189 184 205 215
161 145 116 103 91 71 59 42 27 26 23 22 36 41 40 42 40 50 55 65 75 64 49 42 22 11 29 39 38 41 118 83 89 109 131 163 189 217 233 234 227 204 234
167 147 126 115 95 78 58 46 42 38 38 41 44 46 49 54 55 53 51 57 65 48 66 47 26 36 50 66 60 67 76 70 100 120 142 147 146 154 165 177 178 213 215
158 144 130 111 98 86 71 59 52 48 47 51 59 67 68 67 78 81 85 87 99 78 52 27 71 55 69 61 69 84 95 100 113 120 124 135 156 184 204 207 194 181 142
160 146 139 124 111 94 78 66 67 69 68 72 81 84 92 97 104 103 106 104 98 88 89 82 107 101 100 118 117 71 84 81 59 47 60 94 114 129 143 149 138 160 122
172 158 145 133 116 98 87 82 79 77 77 103 107 106 111 118 112 107 112 115 109 102 108 120 109 147 177 166 131 122 108 72 73 50 62 74 76 80 76 80 81 104 132
179 169 153 137 122 110 99 90 80 99 102 130 133 130 126 125 114 115 120 128 143 145 197 193 183 195 181 167 124 105 94 80 51 44 47 37 44 37 35 33 44 43 51
183 172 159 146 129 117 109 92 107 115 130 145 143 144 124 119 116 128 139 152 168 180 211 211 204 186 167 135 128 123 107 118 106 38 30 30 30 25 27 27 19 23 22
195 182 168 155 140 132 119 117 120 139 144 141 143 133 118 128 119 138 167 171 188 199 223 194 188 168 141 126 122 94 103 99 87 57 23 20 14 17 23 28 -19 -22 -8
198 187 170 160 152 139 128 123 140 138 136 133 127 132 128 129 136 169 168 179 195 209 204 218 197 150 145 129 106 116 81 75 79 39 21 27 25 14 18 -23 -12 10 23
190 177 178 169 158 143 130 146 132 130 128 121 118 117 126 137 153 160 168 173 195 209 183 167 162 164 166 123 113 100 85 78 65 59 74 52 40 23 28 33 22 18 8
185 184 172 166 149 137 159 139 138 128 113 118 112 115 135 154 135 146 193 191 194 185 144 154 180 182 135 117 92 93 86 73 68 69 111 84 109 134 145 86 68 36 40
191 174 170 154 145 149 148 141 131 121 114 109 117 136 148 148 158 149 160 146 104 127 119 157 147 153 100 97 91 64 81 28 56 73 105 149 134 143 173 165 82 65 60
173 162 150 144 143 139 146 135 116 100 115 129 139 143 154 183 173 173 133 59 80 49 75 109 120 94 91 70 72 85 -6 98 115 144 109 150 141 170 172 185 136 54 23
158 144 141 134 134 142 124 108 95 95 124 138 138 141 168 172 154 108 90 111 116 91 83 107 88 73 73 83 80 -48 36 -26 154 160 103 150 151 148 174 237 116 44 85
137 134 128 137 137 115 106 97 105 116 129 125 147 135 135 92 70 49 100 109 91 76 72 46 29 26 31 9 25 64 111 97 134 131 90 98 129 116 148 226 104 120 176
129 128 133 108 110 94 101 102 109 110 139 162 126 94 88 84 65 58 97 94 92 67 57 50 45 48 37 40 31 68 109 121 115 92 97 76 113 65 60 101 136 195 185

GFSMA_con_3kmhel_015.txt.gz
Helicity
87 103 154 120 105 101 87 68 60 49 41 44 44 47 52 55 57 70 104 144 150 154 152 154 133 133 138 135 115 110 119 117 119 126 141 146 140 129 137 147 149 150 152
127 173 143 139 134 122 98 78 66 50 41 40 38 47 53 54 55 63 100 93 125 134 134 134 124 121 123 123 111 96 94 105 105 108 115 128 124 116 113 116 120 115 122
175 146 150 153 138 124 100 80 57 38 37 40 43 50 50 51 46 59 80 85 70 101 112 123 117 116 120 115 103 93 87 92 102 103 105 105 118 115 98 89 100 98 90
133 146 160 154 132 116 94 81 60 38 39 44 43 46 43 44 57 79 92 91 103 93 84 104 103 99 115 120 120 116 108 112 114 116 116 121 116 116 95 94 94 90 83
158 177 169 150 128 125 99 75 60 52 42 38 32 40 52 40 61 74 84 80 93 94 94 95 89 69 97 109 119 118 118 122 122 123 125 131 127 125 112 92 91 93 87
166 160 161 156 137 111 85 65 57 42 35 36 28 40 54 53 76 67 80 73 93 88 100 89 86 92 79 86 96 105 123 122 123 126 116 112 111 120 123 113 100 100 96
199 179 168 158 134 110 83 64 43 36 36 39 22 47 46 66 66 69 90 90 129 87 84 113 98 88 107 105 107 118 109 127 140 128 129 122 110 104 112 108 98 88 94
252 197 156 156 126 99 80 63 43 13 23 23 12 2 55 54 47 87 82 103 99 119 117 111 103 107 115 104 117 105 133 147 146 158 155 147 142 142 140 138 129 123 123
281 220 158 142 125 97 77 60 37 33 22 25 26 23 31 84 89 87 79 114 90 125 108 101 96 105 104 98 99 122 112 114 129 145 148 157 163 166 166 164 157 165 168
318 222 162 144 121 90 74 50 39 30 11 26 0 44 61 95 88 91 113 93 113 103 92 101 104 86 77 90 93 90 102 121 125 118 123 128 134 146 163 179 194 202 201
307 219 168 148 120 93 77 57 41 37 29 27 38 48 53 56 56 87 89 86 112 102 98 86 62 68 48 67 99 72 107 83 66 68 72 86 111 149 183 211 231 243 242
249 205 162 141 115 99 79 64 51 40 38 42 51 61 74 95 120 131 117 98 92 87 96 88 86 34 78 70 71 86 109 85 68 55 59 83 121 159 190 205 208 209 211
239 183 162 139 118 109 85 65 49 41 44 50 73 87 106 104 116 119 120 115 121 123 95 71 89 112 133 186 129 109 111 54 62 83 94 129 164 179 171 162 148 154 154
189 157 155 143 125 107 86 69 62 58 68 73 90 110 114 120 127 134 141 137 123 130 121 90 133 127 193 178 172 113 145 106 103 92 87 97 107 111 125 127 133 126 109
188 174 162 142 128 109 91 82 74 71 81 104 103 107 114 127 141 145 149 146 146 149 138 129 103 222 217 238 196 193 174 114 86 73 60 66 76 74 78 68 57 51 52
180 177 161 146 128 116 104 90 90 104 105 113 128 126 138 158 161 159 143 145 158 170 207 197 193 208 207 227 197 172 157 92 99 50 46 40 47 51 56 50 48 30 31
196 183 167 146 129 115 106 101 115 116 108 116 140 148 154 155 150 146 149 157 176 195 215 219 217 221 213 188 195 168 156 126 125 60 33 39 34 43 39 30 27 29 15
211 193 164 148 135 130 123 123 116 124 121 135 147 168 153 141 138 137 154 168 190 184 208 209 212 200 182 170 158 143 113 138 103 64 34 29 22 18 25 15 28 29 32
214 185 170 162 152 134 139 133 136 131 139 141 145 145 141 142 147 162 184 191 198 210 228 244 248 221 178 158 137 123 106 112 125 75 28 18 15 4 13 40 35 30 -14
187 180 178 176 162 149 154 143 133 132 129 141 131 125 128 147 156 181 203 197 213 236 237 244 225 187 159 143 120 123 117 109 89 78 66 48 -6 22 36 41 15 -11 5
191 186 178 172 156 175 170 159 144 134 133 125 126 129 141 167 175 148 172 179 199 223 211 190 178 158 141 122 115 117 106 83 80 95 104 115 108 136 138 84 58 34 39
182 183 179 160 171 154 177 145 139 135 115 115 139 156 172 168 155 168 150 168 160 164 146 148 153 142 118 118 119 103 81 90 81 83 74 67 130 170 178 158 69 32 -1
171 166 156 161 143 150 170 141 122 102 107 126 152 158 151 160 177 190 188 140 120 58 74 101 118 137 130 109 105 125 105 100 105 63 84 93 152 162 156 157 123 59 -13
160 153 140 133 141 144 150 114 95 85 119 129 141 130 149 157 168 171 166 139 118 98 88 114 127 125 104 109 129 119 106 125 115 146 122 141 130 125 142 201 191 38 10
143 125 138 140 134 113 142 105 114 119 123 116 137 150 152 168 153 100 121 114 93 96 76 47 43 26 18 13 37 111 121 134 74 146 128 145 91 115 96 189 178 29 27
144 135 130 107 110 92 122 130 123 98 121 167 170 153 152 148 102 69 101 94 90 81 75 65 74 63 55 60 27 72 102 126 128 106 132 120 106 74 75 177 115 162 92

GFSMA_con_3kmhel_018.txt.gz
Helicity
82 81 149 169 134 143 138 118 103 83 69 56 52 50 58 68 103 85 81 131 131 125 120 108 102 101 95 93 85 84 80 81 89 94 98 105 107 108 112 120 132 133 135
98 215 233 172 167 136 145 131 108 85 73 61 45 48 62 68 83 105 64 74 101 98 97 95 99 96 92 93 87 81 77 79 88 97 103 112 115 113 110 107 95 110 116
234 214 174 182 155 147 154 151 124 90 84 62 57 50 61 64 65 91 69 52 61 71 75 83 86 85 87 93 91 89 86 86 91 99 105 106 115 119 118 120 108 112 117
258 214 170 187 161 166 148 151 127 99 80 69 53 49 61 60 63 108 121 107 72 62 71 79 79 83 83 93 96 98 97 102 100 104 109 116 120 121 123 131 116 113 125
224 199 205 208 176 190 171 133 121 86 68 57 41 38 54 49 57 93 94 90 87 96 81 85 89 92 85 84 98 107 113 115 112 115 117 126 127 131 131 130 126 105 105
260 215 227 226 213 184 151 130 102 80 62 47 17 15 48 47 91 87 94 88 106 92 82 79 78 78 86 97 93 94 107 112 124 133 131 134 127 133 138 142 141 134 105
244 241 247 230 206 195 156 114 86 86 74 51 23 20 24 49 70 61 87 119 114 111 109 104 81 62 66 97 87 87 98 111 122 124 135 134 122 115 114 111 124 124 115
296 299 286 252 234 207 165 121 97 60 41 39 17 6 24 41 58 49 109 123 111 119 123 98 79 69 92 85 74 107 129 121 118 136 147 142 134 127 126 126 127 123 119
376 326 320 261 225 184 149 110 88 68 36 17 29 9 27 30 46 104 96 131 116 127 104 83 75 93 109 82 89 105 101 83 84 96 124 118 111 117 123 133 147 156 155
407 345 344 291 221 169 138 99 77 55 42 30 20 32 41 64 69 83 128 126 123 136 105 91 86 99 93 96 91 106 84 73 79 85 100 92 87 94 114 128 142 157 183
424 371 352 294 217 165 131 104 78 70 52 40 37 41 50 59 70 108 99 102 88 84 99 99 92 91 84 98 110 119 88 101 91 77 64 58 64 88 103 123 155 177 201
448 420 345 269 228 181 136 104 86 77 63 57 49 53 59 72 87 128 146 116 102 84 105 96 86 83 84 78 101 115 108 106 58 55 46 38 46 78 124 151 163 167 169
433 406 363 252 220 167 130 97 83 67 65 69 68 65 89 92 113 134 147 128 139 122 105 97 78 81 85 137 168 179 157 124 103 72 50 49 93 139 150 148 147 155 159
421 365 280 248 200 165 130 108 91 80 81 69 70 78 91 103 129 149 148 140 118 151 138 87 91 93 161 176 183 174 176 165 115 82 71 103 139 138 143 128 110 117 120
417 323 280 237 185 159 126 104 94 86 88 76 76 84 103 117 150 144 152 166 170 163 125 122 112 141 134 144 157 172 167 131 115 97 108 105 97 108 111 105 102 92 71
303 312 282 229 194 161 135 122 106 102 100 85 95 120 127 152 162 156 161 168 179 192 212 208 177 167 158 161 131 130 157 105 109 74 70 72 96 80 81 74 64 58 38
316 296 273 214 177 147 129 110 107 114 80 96 114 128 142 170 150 156 162 164 182 199 207 198 193 176 188 160 151 159 145 155 134 55 60 56 50 58 58 41 34 17 15
312 280 238 198 169 161 143 136 126 125 117 117 120 149 154 162 168 158 163 168 194 198 219 190 192 195 200 168 164 169 138 136 119 61 41 32 29 29 8 16 10 7 -1
314 269 225 197 173 156 146 148 143 138 147 134 139 159 157 162 170 176 181 210 209 198 219 223 208 199 182 167 158 145 127 128 122 63 41 23 25 10 16 15 6 -2 19
271 245 227 205 171 147 147 145 149 157 157 156 156 150 152 156 166 183 197 184 181 195 196 205 207 191 172 145 141 144 116 134 119 105 73 59 37 33 34 15 20 24 20
279 234 200 161 130 135 141 160 165 166 162 160 152 147 167 181 171 164 184 197 189 202 213 202 179 173 143 114 119 131 137 114 108 114 108 147 117 166 130 80 66 52 34
210 191 169 133 145 140 156 160 159 156 150 145 148 150 158 147 147 168 163 144 153 184 188 171 154 126 114 127 159 128 126 133 138 119 128 132 131 141 144 154 59 48 42
151 142 141 152 131 145 150 164 148 146 130 124 133 135 143 150 148 164 152 128 137 111 98 109 114 112 113 108 124 141 140 131 151 142 131 138 143 143 144 131 52 64 53
169 147 149 134 143 141 159 157 148 131 129 121 115 128 150 151 156 152 177 189 161 124 99 102 92 88 100 88 99 113 107 125 124 105 112 142 181 121 103 127 94 44 61
165 130 120 152 167 170 137 146 142 135 119 117 140 155 162 173 172 132 201 165 112 103 75 24 17 17 20 14 47 106 107 110 98 106 139 145 127 99 103 123 85 34 138
124 159 151 129 130 120 136 124 112 108 116 136 145 146 141 157 136 137 136 118 94 76 79 76 80 66 67 98 40 83 114 126 125 146 172 151 93 59 48 126 118 139 146

GFSMA_con_3kmhel_021.txt.gz
Helicity
90 116 108 90 91 94 109 111 103 99 96 86 84 74 75 99 80 77 76 121 123 125 112 98 95 98 93 83 76 75 66 65 80 87 89 97 100 104 106 113 112 106 115
114 151 169 173 164 171 145 126 108 100 104 93 102 79 77 92 69 74 70 76 98 100 101 103 100 96 93 87 80 78 75 75 75 79 89 90 94 101 101 105 117 113 114
165 212 248 217 192 184 178 163 143 120 124 97 97 92 71 77 95 77 74 72 81 91 94 98 100 91 88 86 83 80 77 83 81 86 97 109 109 113 124 120 118 115 98
210 209 241 213 212 192 169 179 157 144 115 97 77 68 66 67 102 90 65 64 53 57 73 80 93 93 93 87 88 84 85 86 91 101 108 112 120 122 126 127 133 137 112
250 236 248 234 235 214 197 186 177 129 113 92 67 58 46 61 69 89 84 68 59 59 51 88 99 98 97 92 96 93 94 99 107 119 120 141 141 138 142 147 145 142 144
287 287 274 245 240 249 231 201 169 150 104 87 59 52 24 42 47 73 80 79 80 85 77 85 69 61 64 67 84 90 90 91 115 120 126 130 122 125 125 133 134 134 134
341 341 284 265 228 241 221 190 167 147 137 95 69 62 35 34 30 38 66 94 108 90 84 65 48 40 42 60 67 69 83 111 111 110 111 132 128 133 127 122 117 114 121
392 347 302 257 232 267 238 197 157 134 112 107 74 62 67 41 32 54 81 111 122 118 103 89 61 43 35 46 48 65 86 100 111 96 112 134 137 130 121 111 113 118 133
398 356 331 297 235 253 239 192 150 126 104 85 79 51 68 47 43 57 110 159 160 153 130 102 68 50 52 64 73 78 78 86 80 73 97 120 111 104 101 103 115 124 125
414 401 351 334 274 281 247 185 139 113 92 77 63 66 60 55 53 59 91 127 138 143 97 72 80 87 82 94 84 73 70 70 61 66 83 84 77 80 92 104 106 148 176
436 431 368 358 303 294 255 188 147 122 91 78 65 59 72 75 92 105 90 111 124 100 105 107 87 110 120 116 93 80 75 79 84 84 83 86 87 94 98 114 147 174 170
488 432 389 369 316 286 268 197 152 128 103 90 74 72 70 76 85 116 119 118 97 83 101 92 98 111 103 93 119 158 143 107 82 84 71 57 58 72 99 138 164 154 159
526 445 392 368 342 314 264 213 163 128 102 93 81 79 82 85 109 119 138 118 129 114 81 82 81 88 104 136 129 147 153 147 127 112 89 78 101 130 149 170 152 155 138
507 441 399 372 353 319 270 214 155 119 97 85 79 80 91 95 121 140 149 139 137 138 142 81 84 80 87 74 93 113 126 144 148 138 117 114 150 162 145 131 130 118 102
447 406 430 438 401 268 251 200 131 109 95 83 73 85 99 113 148 169 168 170 169 155 114 120 93 111 86 94 94 111 133 114 114 105 98 125 123 111 103 95 106 116 141
429 478 429 407 327 276 227 170 130 105 98 88 84 97 109 132 156 158 167 180 195 192 206 196 154 125 104 106 100 127 135 102 93 86 90 97 81 85 91 124 133 89 75
442 456 373 381 189 231 181 162 122 98 94 90 108 102 106 146 145 158 177 188 183 197 202 195 177 146 152 134 145 154 134 138 137 73 71 70 81 91 99 68 65 48 36
480 456 366 312 250 212 172 132 119 112 100 96 107 95 113 150 151 157 174 164 179 183 193 161 173 161 152 167 181 175 159 145 142 88 51 52 61 71 36 29 27 35 29
384 324 282 288 235 205 169 150 136 131 122 106 112 122 135 137 147 166 170 171 176 184 198 205 185 175 188 172 178 155 157 135 112 55 47 38 38 37 33 36 43 46 45
364 348 296 282 219 181 171 157 143 129 133 150 164 175 150 152 149 156 158 157 176 190 188 196 205 187 169 149 140 147 117 111 111 96 83 59 20 49 42 55 50 45 40
336 300 282 255 204 174 148 146 149 159 160 162 167 168 164 149 145 145 187 204 196 192 208 214 203 181 151 140 128 114 119 110 103 100 111 100 123 137 143 88 68 50 34
343 283 224 206 170 150 167 153 156 150 160 169 160 151 135 127 145 149 169 149 152 187 208 200 190 161 137 118 132 113 129 119 100 80 112 104 108 129 128 124 54 55 67
190 170 145 125 172 161 160 168 167 164 169 156 131 138 148 160 174 168 147 137 132 121 117 148 154 130 125 110 122 130 117 119 118 121 123 126 122 144 140 113 73 60 65
120 128 138 160 146 123 155 163 185 162 148 134 136 164 176 170 169 173 192 192 157 151 126 127 124 122 119 104 97 98 94 113 129 121 113 145 138 158 118 131 66 9 31
100 127 129 135 142 129 143 147 150 137 135 134 147 157 154 170 176 141 173 181 148 123 86 38 36 35 38 31 52 98 101 108 111 115 111 121 116 142 117 122 68 -9 40
125 142 120 110 115 110 119 111 102 109 127 127 122 135 140 159 131 115 157 155 123 84 82 79 89 74 72 92 53 99 126 141 147 125 135 146 117 101 45 137 75 125 99

GFSMA_con_3kmhel_024.txt.gz
Helicity
105 101 92 81 91 94 95 125 127 113 109 96 90 98 90 91 97 97 96 142 138 128 111 100 93 91 86 82 84 81 77 76 83 86 89 84 89 101 107 112 119 121 103
132 142 123 114 108 115 120 134 131 127 123 107 109 106 92 80 84 96 92 99 117 113 103 97 88 88 89 84 84 81 81 83 81 83 90 99 101 99 106 111 119 127 113
155 144 147 163 154 144 170 170 171 150 142 118 119 109 95 87 80 86 81 88 99 106 97 94 91 92 97 92 94 89 88 93 95 97 103 106 113 120 130 133 126 130 132
185 195 224 220 182 184 191 185 173 179 158 138 111 99 92 88 82 74 69 61 63 75 84 90 96 101 99 98 101 91 80 89 91 104 109 129 132 136 137 142 153 161 159
205 238 239 239 227 231 215 186 189 174 168 143 114 99 79 73 72 66 54 54 53 61 70 80 89 94 97 96 97 94 87 87 81 97 117 136 148 159 170 168 162 158 158
275 290 283 280 252 250 223 213 217 222 170 137 126 114 93 68 63 57 50 52 55 73 68 73 73 76 86 82 89 91 86 85 94 92 105 127 145 148 152 152 151 149 152
319 348 307 298 264 234 196 214 238 208 202 147 145 137 106 84 70 65 68 81 94 96 99 94 87 70 55 55 63 75 74 83 98 105 105 114 127 136 133 130 123 116 114
390 374 359 314 273 257 209 201 215 208 187 169 144 144 127 97 82 90 92 117 136 145 139 128 103 75 62 61 52 70 67 88 107 119 112 113 129 132 125 115 113 111 109
379 373 395 377 308 271 190 177 194 188 182 170 150 123 139 108 99 94 132 162 168 182 160 129 117 113 93 81 79 77 63 77 98 107 104 108 127 127 130 123 121 118 110
410 421 439 404 334 274 203 195 187 177 179 154 136 133 129 108 97 100 104 127 150 165 131 102 119 124 150 138 138 108 77 82 85 95 100 96 101 104 95 103 100 99 155
450 459 451 423 353 310 259 238 243 208 170 140 122 111 116 120 118 122 109 119 150 145 112 139 133 168 196 189 172 170 175 149 117 103 100 96 97 101 100 98 119 139 162
505 471 476 439 370 333 316 281 281 239 175 149 119 110 101 103 105 125 129 124 121 112 138 131 161 191 166 182 178 184 164 139 131 115 96 83 86 93 108 125 143 150 163
527 485 545 515 422 380 363 344 290 262 180 149 113 105 101 102 107 118 137 128 129 125 118 114 117 148 178 154 109 131 138 134 133 124 109 103 128 138 137 167 162 142 137
570 576 554 526 431 386 334 361 283 248 189 160 124 105 95 91 98 114 133 143 135 158 166 123 139 131 107 69 87 106 132 138 141 144 149 158 161 165 179 177 151 141 134
511 530 489 530 415 375 363 322 321 241 194 155 118 101 98 94 112 139 164 166 162 172 158 144 132 120 91 74 63 94 113 112 112 129 142 157 162 166 172 144 114 133 171
426 488 537 515 408 428 446 326 358 206 228 145 113 104 106 104 117 164 159 160 204 200 233 192 173 135 110 104 93 115 129 111 118 119 118 135 135 139 135 139 133 89 92
422 496 532 468 405 447 380 336 288 174 203 136 123 91 82 95 125 136 161 200 194 214 229 212 185 164 166 144 141 163 150 169 160 98 115 115 113 117 109 89 84 78 69
402 493 520 455 414 435 303 257 207 186 168 124 101 99 77 99 113 141 179 173 185 189 207 170 174 172 155 158 176 169 182 163 173 110 90 86 93 93 86 83 72 80 85
412 447 457 421 399 348 320 255 240 182 178 138 122 99 99 140 140 177 183 177 186 172 185 204 189 185 177 170 166 174 184 157 141 83 62 63 68 70 72 75 85 86 78
427 441 517 482 334 295 277 237 215 200 153 141 142 141 146 148 165 165 166 154 164 179 184 203 215 207 192 157 169 188 174 137 131 116 95 58 52 58 71 78 92 86 71
423 440 463 402 329 356 260 159 144 154 155 142 157 177 176 168 132 135 159 162 183 202 211 228 234 232 165 164 182 147 141 111 100 106 105 85 126 144 182 115 86 56 54
466 450 391 284 243 228 192 156 137 145 171 157 161 193 179 160 164 162 168 173 181 209 230 243 238 183 177 163 138 123 119 97 70 67 108 105 113 132 156 144 57 26 39
432 390 316 223 180 172 141 158 145 143 150 167 176 171 176 192 205 193 191 192 204 182 173 177 203 163 146 127 130 125 98 101 110 119 102 120 125 138 150 126 40 33 33
337 346 199 158 119 107 92 109 151 157 154 153 147 149 159 163 172 194 214 245 217 179 165 160 150 140 139 116 104 102 97 114 124 125 106 155 136 146 110 133 70 11 5
141 96 60 55 74 93 122 120 127 133 142 133 132 149 154 182 181 206 242 212 185 161 119 59 56 56 59 48 60 117 115 119 127 132 123 110 110 103 112 115 80 -10 -0
46 37 78 87 87 87 88 98 105 104 121 129 129 156 180 198 185 158 191 192 167 131 115 93 100 82 80 91 58 117 140 149 144 95 119 141 129 107 59 135 88 154 143

GFSMA_con_3kmhel_027.txt.gz
Helicity
106 105 94 97 89 100 89 103 118 109 109 111 98 95 92 95 103 104 112 160 151 139 118 97 92 94 87 80 79 83 88 92 90 91 92 94 98 109 119 120 119 121 123
127 125 118 109 104 107 113 114 118 116 120 118 120 113 101 97 99 102 106 115 129 117 103 92 88 96 88 81 76 72 78 81 86 90 94 96 98 108 124 133 136 137 138
134 133 141 132 104 122 149 144 142 139 136 131 133 119 103 91 91 94 90 94 106 115 100 96 100 101 98 101 92 77 73 78 77 89 88 104 112 117 123 130 140 155 166
150 161 176 145 144 169 169 157 146 150 140 136 132 129 116 97 92 83 74 74 78 81 88 92 93 99 111 110 112 103 85 84 87 96 99 104 110 118 128 138 149 154 157
173 182 161 157 190 198 173 161 163 147 144 147 146 140 120 98 77 75 68 62 58 64 69 80 96 101 108 111 111 102 88 86 83 80 96 111 125 131 136 143 142 142 145
201 200 205 237 236 231 200 188 184 191 166 155 169 165 143 113 88 67 64 62 65 80 91 98 90 87 94 100 105 102 105 96 89 86 85 96 113 129 140 138 141 145 145
231 235 238 259 246 222 211 215 215 194 196 171 182 169 155 139 118 91 76 76 100 113 122 112 97 93 86 95 91 90 100 93 98 99 96 85 91 112 113 116 115 120 120
275 308 298 278 228 251 244 222 209 210 204 174 168 176 158 138 124 118 108 118 139 151 162 153 136 128 109 97 86 81 83 102 106 103 104 95 95 100 98 102 102 98 93
311 341 341 304 284 317 270 231 194 183 212 200 158 167 176 134 137 128 142 146 162 184 173 152 152 135 136 128 134 131 125 107 105 102 108 104 104 93 99 93 90 92 89
305 366 386 375 333 320 296 242 195 188 229 214 204 174 165 144 132 125 133 142 153 157 162 150 150 166 184 188 217 217 202 165 132 122 112 105 100 100 97 95 91 94 100
320 364 392 396 362 365 345 304 282 175 210 221 215 184 167 166 157 149 133 122 126 132 147 158 171 205 236 233 213 219 220 187 151 125 112 100 94 94 92 93 103 115 119
427 411 432 414 409 432 389 309 289 257 222 239 232 196 162 149 129 137 144 130 126 135 159 159 213 223 229 217 230 244 199 149 129 113 104 95 93 99 109 123 111 102 126
469 407 482 473 467 453 449 396 316 339 295 287 262 224 180 152 145 145 143 134 136 129 135 150 176 216 215 203 187 190 159 139 137 133 126 118 114 123 129 113 110 135 154
479 493 493 530 558 499 449 456 319 364 337 326 297 240 174 140 129 133 134 138 141 154 150 119 169 177 198 155 124 110 111 112 120 118 123 130 141 149 150 157 165 180 159
461 534 561 613 547 486 505 489 364 380 356 292 318 213 184 133 117 121 129 132 138 155 138 142 146 148 163 117 83 93 90 88 94 106 108 117 140 158 174 174 158 134 135
461 505 557 559 494 486 483 475 468 338 366 339 271 176 192 120 119 119 121 126 143 169 203 143 178 174 155 133 110 127 126 99 94 107 111 130 143 157 143 115 113 117 86
465 440 447 484 451 488 490 557 521 361 391 238 217 165 169 150 103 116 131 149 154 194 192 215 204 185 181 152 144 156 142 160 167 130 137 140 141 110 101 103 86 71 65
354 376 387 405 475 555 582 525 420 447 384 273 299 181 107 120 125 130 140 135 171 195 222 201 193 181 173 142 141 149 149 165 180 135 104 108 106 101 95 77 67 52 60
331 348 391 506 591 577 566 472 394 275 208 170 197 176 111 128 131 147 159 166 185 192 199 214 191 174 155 149 160 166 174 178 181 109 91 90 67 57 60 55 62 71 66
383 441 439 540 552 569 509 462 333 342 336 192 158 156 145 136 124 158 168 160 170 182 186 197 195 191 167 142 175 166 181 169 161 129 102 40 31 49 63 55 62 58 57
458 523 530 602 605 537 427 381 318 255 266 243 152 139 134 141 134 138 159 149 161 175 179 191 203 211 183 173 180 183 178 145 125 125 98 102 125 152 171 108 94 62 58
440 455 420 464 443 374 253 288 248 203 226 161 135 156 150 175 193 184 174 177 164 185 207 200 201 207 203 181 180 152 148 126 111 78 112 116 115 151 159 135 61 37 46
391 390 443 437 438 328 301 272 217 159 116 130 143 147 173 169 172 160 168 163 171 139 135 180 217 203 192 147 147 137 129 138 140 134 122 134 128 154 138 120 32 25 19
347 311 290 318 242 227 146 101 79 98 108 118 128 134 136 136 140 130 144 175 148 137 161 203 177 160 151 125 124 120 115 139 149 135 124 156 124 135 109 138 69 -3 -12
196 193 198 124 82 60 51 66 66 92 111 114 111 119 116 109 119 151 120 141 179 187 162 89 81 60 47 39 57 122 136 143 136 132 137 135 154 127 132 133 68 -3 -2
168 91 82 55 29 22 62 80 87 90 97 106 113 118 134 128 72 81 177 209 207 172 139 107 95 67 69 83 60 132 169 179 168 133 160 193 175 139 99 178 149 168 148

GFSMA_con_3kmhel_030.txt.gz
Helicity
122 126 112 105 91 89 91 95 98 93 85 88 85 82 83 86 91 101 123 164 156 136 106 92 89 80 71 67 65 72 79 78 77 77 74 78 87 95 102 106 105 104 110
143 138 138 129 111 96 104 102 104 109 99 91 101 96 92 94 104 111 116 126 136 118 103 94 93 88 79 77 69 73 72 74 78 83 84 94 95 95 101 112 120 127 134
147 138 148 146 126 137 138 141 136 131 118 110 119 116 104 104 105 110 109 110 114 113 103 100 96 88 87 82 80 66 63 68 73 83 89 88 91 99 107 115 125 136 144
168 158 160 143 158 161 162 160 147 147 133 116 123 123 114 101 100 105 104 96 94 96 96 102 95 97 92 89 86 74 58 56 58 72 78 82 92 93 103 117 121 122 130
174 187 166 160 191 185 163 178 169 144 140 140 141 142 122 99 93 98 101 94 90 92 98 110 108 101 98 93 85 77 71 68 69 58 63 75 81 88 97 104 102 104 108
190 197 191 204 218 208 198 192 182 180 154 150 170 169 145 121 104 95 92 91 90 95 100 103 97 94 105 93 85 84 85 79 75 78 77 70 75 85 95 102 105 98 100
210 218 202 204 224 218 187 213 214 186 189 169 199 175 165 143 132 111 97 93 98 110 124 119 105 98 93 95 92 86 84 90 99 94 91 92 84 85 85 86 87 93 92
235 237 227 243 234 226 228 216 222 224 198 167 180 189 154 149 140 132 115 108 124 135 147 139 131 119 106 98 97 108 105 105 110 114 107 95 85 80 81 73 75 71 78
265 259 274 285 260 213 218 227 234 235 235 179 162 181 175 139 162 147 141 128 132 158 167 153 148 134 130 127 139 141 153 145 128 118 109 111 105 88 77 72 68 60 59
312 296 318 303 308 270 286 247 252 257 263 218 215 188 203 176 176 164 140 134 137 149 168 160 153 149 157 166 193 216 216 198 184 159 133 116 103 92 81 72 71 70 73
355 345 339 340 303 368 286 329 315 296 301 244 245 247 234 233 217 199 167 124 129 128 141 163 160 169 198 212 211 216 234 211 184 156 127 105 89 78 79 83 90 99 116
416 362 373 383 379 396 373 351 328 323 323 273 257 252 248 239 212 213 202 160 138 142 152 164 170 180 214 229 236 256 227 193 162 142 119 103 96 97 100 107 109 112 97
428 365 396 401 442 427 431 421 383 347 339 357 275 277 261 260 244 243 219 186 164 165 161 156 173 195 229 223 219 263 196 172 155 132 118 111 117 126 126 117 111 106 115
345 394 454 401 418 483 490 443 439 404 396 418 446 186 236 282 240 255 234 193 181 180 160 129 141 163 178 215 206 184 140 128 108 107 109 121 129 133 140 142 133 130 138
310 385 439 466 430 459 462 493 510 465 459 478 425 339 231 273 242 241 197 215 174 151 121 119 131 152 171 178 144 121 98 85 83 92 82 81 94 111 127 133 144 156 144
327 352 403 453 459 455 456 524 549 484 465 529 466 467 313 329 269 239 173 186 150 170 170 120 140 171 173 158 121 127 121 109 109 100 92 94 110 118 115 114 109 110 104
282 305 345 399 435 439 458 518 561 558 550 470 483 477 324 256 243 209 177 142 146 160 178 180 189 185 179 143 134 143 140 150 152 92 93 110 131 120 102 91 84 83 66
250 260 307 342 389 424 458 534 619 575 594 402 493 439 358 186 280 220 190 136 123 128 179 167 173 172 150 139 132 135 131 130 139 97 90 117 121 99 84 74 80 56 60
205 224 244 315 379 433 523 595 597 568 460 483 358 531 255 155 225 177 169 129 128 157 168 184 170 151 143 134 147 137 148 163 166 89 75 88 82 81 79 74 61 69 55
201 244 318 372 431 501 582 628 607 569 457 394 485 374 366 220 229 171 114 131 158 159 167 171 167 172 158 122 153 146 155 172 156 131 98 67 63 79 63 53 52 48 40
338 379 407 433 466 533 523 535 508 402 403 410 348 262 229 145 102 98 148 143 155 156 150 162 169 175 158 147 152 172 184 158 131 124 122 124 135 187 195 117 79 45 49
337 339 328 369 426 439 418 424 409 442 413 378 258 155 105 111 138 147 148 133 124 138 151 164 170 165 152 156 190 169 170 145 101 113 147 152 135 180 190 162 62 36 29
327 325 335 348 380 403 281 300 279 257 205 165 111 99 95 113 131 133 132 134 142 124 125 154 159 141 170 179 183 179 122 115 132 157 138 140 152 185 165 149 52 40 22
259 260 280 297 310 200 236 201 194 162 120 89 74 104 126 132 116 116 118 127 130 120 137 151 160 167 164 133 130 111 97 123 151 139 141 181 156 168 151 167 96 14 13
240 256 210 218 204 199 144 78 48 56 90 102 106 115 98 97 82 86 113 136 129 119 122 90 108 105 87 58 56 80 95 102 112 135 152 164 186 177 155 154 80 30 42
138 133 144 101 80 54 34 28 61 79 99 94 81 86 100 102 81 82 120 123 102 97 130 143 142 98 79 67 36 82 123 138 150 132 142 194 196 160 143 247 201 219 166

GFSMA_con_3kmhel_033.txt.gz
Helicity
91 97 102 106 100 103 100 99 93 89 81 71 64 61 70 81 92 99 109 157 147 122 91 78 69 62 60 60 60 63 63 62 68 70 72 83 85 83 85 87 93 102 110
101 109 117 116 109 104 109 105 103 100 98 82 82 75 78 91 103 112 118 122 140 112 90 79 74 67 64 52 51 51 55 56 62 62 70 73 79 84 93 98 104 109 113
106 114 121 129 119 124 124 135 135 126 117 104 95 91 97 104 109 115 122 120 117 127 95 84 71 70 59 62 55 41 37 40 44 52 59 67 72 81 89 94 103 111 113
104 121 130 130 137 151 144 148 152 145 123 111 111 116 111 113 114 116 115 119 119 111 113 94 82 77 72 68 61 50 39 39 36 41 47 53 61 69 74 76 85 94 102
111 129 138 131 153 164 154 167 175 147 126 125 130 129 128 116 112 116 121 120 119 108 105 113 104 97 84 75 69 63 60 50 48 39 39 46 49 56 60 72 76 79 82
131 147 146 135 174 180 175 175 163 173 150 149 150 150 143 128 120 117 120 115 107 104 100 96 88 91 103 91 77 69 62 59 58 55 57 58 58 61 67 69 76 77 80
156 159 167 147 185 203 174 161 208 193 200 176 185 165 157 143 127 129 128 121 109 105 100 103 99 93 92 97 89 72 61 57 65 69 68 62 68 68 66 66 63 62 66
212 205 200 189 202 212 190 205 249 250 218 172 182 186 144 142 142 143 133 124 115 121 123 121 121 113 106 98 88 90 95 98 97 90 88 84 82 79 73 65 60 59 60
266 253 254 255 251 226 228 233 230 241 262 189 179 190 188 156 175 171 149 138 129 137 143 146 139 131 118 110 108 111 136 135 137 137 123 116 108 97 82 77 73 67 65
289 276 274 293 286 275 202 222 228 226 294 288 227 173 203 180 168 157 157 151 148 143 145 154 152 143 135 125 132 142 144 145 143 145 129 112 99 87 78 70 66 65 66
275 302 302 333 341 342 236 266 311 255 264 298 314 287 243 214 206 207 186 185 176 155 163 168 158 147 144 136 136 151 174 177 167 148 121 101 92 92 91 91 97 97 99
314 320 295 335 361 350 332 365 313 289 317 311 329 315 341 275 222 251 240 215 187 186 179 173 170 160 160 167 179 184 179 177 160 142 121 106 93 95 100 102 99 100 100
291 319 338 354 376 336 365 388 378 332 323 346 311 314 298 320 282 306 260 255 268 263 221 170 154 159 171 180 189 188 166 161 158 145 121 117 118 122 124 113 109 105 105
225 197 271 335 335 344 355 388 399 357 347 362 325 327 329 367 360 360 310 275 291 275 278 253 193 146 149 171 180 192 159 156 139 118 114 108 116 119 127 123 121 121 125
182 186 225 262 296 330 340 384 395 377 375 394 401 401 397 424 500 327 472 287 324 278 258 226 243 149 111 129 139 137 133 108 86 86 79 74 79 91 90 107 123 134 144
146 157 152 182 234 280 320 339 403 426 393 423 479 509 488 472 463 436 411 425 389 277 266 191 170 129 113 115 120 131 118 90 86 73 75 86 101 110 116 111 101 101 84
136 136 127 154 184 240 280 318 342 390 529 459 502 566 589 479 501 364 415 433 326 285 253 226 153 131 118 127 143 137 119 114 114 93 112 126 138 128 119 97 82 58 47
131 145 142 146 145 184 254 288 338 404 549 547 627 661 667 434 555 407 414 358 406 240 209 119 137 117 119 130 116 110 119 119 112 93 113 137 123 108 85 60 48 50 57
131 140 131 134 163 223 267 325 397 474 529 587 616 612 538 501 550 473 527 447 305 186 127 118 104 117 122 105 105 105 101 105 116 85 105 107 86 76 56 50 59 52 36
143 140 153 187 208 265 341 411 470 543 596 604 561 527 501 408 422 336 353 231 163 117 95 102 106 122 122 102 106 100 111 108 115 108 110 65 53 49 30 45 51 47 53
234 234 242 275 305 319 348 447 552 566 544 483 479 467 369 336 216 184 196 127 109 107 103 124 148 139 125 110 117 125 112 110 118 113 103 73 83 96 114 113 91 71 81
219 222 220 251 307 325 347 431 425 381 361 353 283 278 208 187 161 87 63 77 86 100 154 166 142 137 125 126 125 122 122 123 155 74 89 65 82 109 118 101 57 56 49
210 218 228 246 311 273 231 213 231 312 295 242 211 183 171 105 78 98 111 128 129 125 138 141 144 135 127 114 126 127 112 129 105 85 70 81 92 91 81 81 54 48 41
179 206 229 201 237 147 191 201 217 214 206 156 112 83 88 98 117 120 134 148 145 149 158 165 148 126 135 131 128 121 92 71 68 71 56 84 71 79 77 83 57 18 5
186 207 218 201 209 172 120 157 121 82 72 89 95 84 87 96 115 131 152 155 135 119 123 113 139 145 132 101 91 87 68 64 61 60 64 58 85 69 77 92 54 41 54
176 137 143 116 71 59 56 41 47 57 70 89 110 109 126 133 134 121 131 131 119 111 109 118 131 129 116 80 43 59 58 57 60 59 90 104 92 70 44 106 91 118 106

GFSMA_con_3kmhel_036.txt.gz
Helicity
70 65 74 85 77 81 77 77 77 77 75 75 67 59 54 57 65 72 106 154 165 124 89 79 68 62 56 49 54 53 51 55 60 58 64 62 68 70 75 78 81 86 90
69 71 74 91 93 91 88 86 90 93 90 83 79 71 69 72 80 88 104 123 154 121 101 80 64 55 48 45 43 41 44 45 48 49 51 56 61 67 74 82 87 90 94
66 76 85 96 95 103 99 108 113 112 116 107 92 79 75 78 92 101 97 94 104 118 94 83 73 70 52 52 44 36 36 38 39 43 45 48 53 61 64 70 75 85 96
66 86 92 107 100 118 118 122 132 126 121 120 108 94 90 98 107 111 106 96 87 84 111 95 83 69 67 66 57 46 43 41 35 37 35 39 40 44 53 63 72 80 86
75 89 101 104 109 130 140 142 142 134 136 132 117 108 107 114 115 128 118 111 107 91 85 118 115 97 88 78 73 62 53 43 34 27 30 31 30 32 33 38 47 58 69
95 103 108 109 120 143 161 168 153 157 153 140 128 121 129 130 124 119 122 121 112 100 88 82 91 100 113 97 84 71 57 49 45 42 38 35 37 39 40 44 47 53 58
107 119 125 125 136 157 162 156 160 181 191 167 168 152 142 134 130 132 131 121 120 104 102 99 95 89 97 104 97 82 69 63 53 50 46 43 43 44 43 42 49 47 49
110 141 148 172 152 179 180 182 224 232 206 203 183 170 152 141 144 136 140 135 124 127 115 111 112 108 108 106 119 107 92 90 82 73 67 63 62 64 57 55 51 50 52
142 146 170 224 195 207 249 257 235 223 240 207 202 217 201 160 162 162 149 153 145 144 130 127 130 134 132 131 106 105 129 120 114 111 104 102 92 89 80 73 67 60 56
154 171 171 200 231 263 276 277 280 209 247 273 256 216 253 236 164 152 153 158 161 153 150 159 152 155 153 145 168 179 146 130 118 114 108 103 103 102 90 77 73 67 66
159 173 194 210 249 291 255 289 268 228 251 276 287 303 229 220 217 209 189 176 177 168 168 171 174 175 177 172 160 176 160 138 124 111 102 103 103 111 103 92 86 95 91
146 131 175 236 269 284 303 311 286 285 261 301 311 309 321 283 266 264 249 231 169 191 226 213 201 190 187 180 201 224 160 144 129 112 100 102 120 132 125 109 101 102 97
200 178 157 158 228 253 265 295 340 372 366 327 310 310 294 277 302 285 272 303 295 297 255 218 215 219 213 204 188 178 127 131 121 97 100 120 151 148 128 115 115 106 105
174 152 163 154 168 167 191 205 283 309 331 330 302 351 328 290 295 322 318 328 358 313 310 290 238 240 228 207 224 177 123 106 103 96 104 139 137 138 119 115 118 113 117
136 105 105 134 146 164 168 192 264 253 270 303 317 343 398 393 361 344 412 434 444 438 379 348 304 268 253 218 159 177 128 98 74 74 96 120 120 109 103 107 107 105 114
141 129 109 113 148 189 208 216 225 218 245 320 356 406 479 424 410 423 496 582 435 526 496 615 390 391 372 278 209 149 113 116 47 61 71 91 93 79 79 78 67 74 97
165 145 116 105 116 139 184 226 227 254 242 275 340 453 498 452 490 507 581 614 601 587 497 629 475 505 363 316 166 107 103 78 85 66 73 84 73 76 88 84 84 99 105
129 117 109 89 83 100 122 163 203 239 251 263 291 360 447 540 628 551 632 696 654 600 513 415 400 278 218 147 114 100 109 117 108 87 94 85 89 111 103 90 118 110 99
150 128 123 101 82 93 97 126 178 229 320 376 424 461 530 588 603 487 493 496 394 357 249 320 286 227 207 177 139 124 104 115 112 83 72 97 121 115 92 104 100 71 50
43 60 61 103 134 120 133 194 271 341 371 398 454 459 418 361 378 376 366 277 285 274 217 203 217 192 148 112 101 127 133 120 111 99 106 109 119 98 81 82 57 42 43
79 80 166 122 143 175 175 215 285 317 368 410 387 363 320 300 260 244 206 235 246 236 162 157 155 133 117 135 134 157 143 119 121 106 141 166 143 110 88 72 54 46 58
51 74 43 101 153 153 139 168 239 306 310 287 275 267 250 241 226 208 159 135 142 151 144 124 134 145 130 149 159 143 146 146 153 119 167 146 106 91 94 76 44 44 48
140 141 149 153 161 135 135 160 174 225 235 279 214 173 210 196 191 167 139 96 82 69 84 111 110 127 158 153 187 173 151 160 140 101 115 107 72 65 67 64 25 34 40
148 161 198 202 183 143 152 157 212 211 212 176 144 145 130 102 103 102 106 120 104 115 114 152 166 156 174 169 161 148 120 119 86 67 46 61 57 57 51 53 25 27 27
134 163 193 204 186 161 177 167 126 102 119 114 67 64 85 99 104 83 91 125 123 134 155 144 159 168 149 126 123 126 98 77 58 48 48 66 52 55 58 73 49 35 61
127 147 149 113 95 85 76 57 33 21 49 58 67 63 71 97 112 114 124 152 158 165 171 166 159 140 110 83 56 57 56 63 65 73 66 92 63 55 58 76 75 86 70

GFSMA_con_3kmhel_042.txt.gz
Helicity
141 134 91 102 73 111 73 90 81 78 104 82 91 104 97 82 93 185 165 186 174 131 106 87 86 80 77 79 69 63 58 59 57 60 63 60 63 61 61 65 71 79 86
162 152 112 157 146 108 76 130 117 129 112 112 111 107 107 112 113 185 200 187 186 163 129 103 89 82 78 74 68 60 54 50 55 50 58 62 66 64 63 63 62 67 73
146 152 114 163 189 131 118 155 145 152 164 164 132 134 142 131 141 205 195 182 184 171 137 109 97 85 77 72 66 60 56 58 60 60 62 63 61 61 60 61 65 68 73
120 146 152 184 214 190 125 166 199 213 203 197 182 166 169 163 165 164 217 185 168 169 157 137 113 101 85 85 73 66 72 64 63 60 55 62 59 59 55 51 51 57 62
136 131 143 192 225 236 176 129 222 276 247 216 189 192 204 197 187 184 189 208 164 186 179 172 157 131 104 97 89 84 83 78 64 55 55 55 55 54 48 44 40 40 44
197 187 166 176 259 254 206 156 250 286 248 207 216 229 232 223 194 197 206 196 224 229 215 213 213 195 154 117 105 102 92 79 70 63 59 61 54 60 50 45 38 36 42
229 219 224 194 274 270 235 182 273 276 242 255 299 301 291 210 203 195 208 203 236 232 258 243 211 197 174 133 119 109 97 91 84 75 76 76 71 62 59 54 45 43 35
232 284 244 278 248 271 300 290 353 372 304 325 377 373 278 257 204 215 229 217 243 252 257 246 211 210 187 185 162 124 123 115 114 111 105 98 94 90 77 67 60 53 52
166 262 254 303 299 284 299 360 378 386 370 351 409 361 288 277 250 224 215 243 271 300 271 269 241 227 217 200 179 168 154 151 149 144 143 132 119 102 92 78 77 70 62
105 127 194 267 268 266 299 333 404 435 471 392 414 293 352 333 282 238 208 199 249 283 279 278 262 239 265 298 217 201 179 178 181 178 166 158 142 120 102 91 77 72 71
147 144 93 152 224 240 259 285 382 433 481 476 480 470 346 380 368 365 302 270 255 279 299 290 271 259 249 346 337 285 216 207 193 190 178 162 152 140 133 117 106 99 92
188 216 176 109 151 215 254 273 278 343 415 484 484 444 441 453 461 459 413 373 294 278 327 322 270 298 308 303 318 247 227 208 203 192 177 180 168 165 144 135 111 101 84
180 195 199 187 161 142 173 221 279 322 357 417 451 409 415 386 437 418 422 385 383 388 370 322 298 333 331 344 331 249 213 227 250 225 208 219 180 156 132 111 105 106 85
196 204 158 185 191 154 144 199 228 275 314 348 330 401 399 414 437 451 399 422 470 512 492 491 520 411 319 327 257 201 204 211 250 301 240 245 193 169 128 98 105 114 98
252 222 226 213 197 186 157 149 185 214 256 278 285 329 411 403 372 385 402 382 413 377 515 705 730 651 448 397 317 367 270 306 306 243 219 178 132 151 133 126 113 105 103
213 209 200 206 220 205 167 161 189 198 216 266 299 310 315 360 373 371 361 356 401 434 420 454 369 401 487 439 361 432 341 348 278 201 174 105 77 87 111 111 97 95 85
187 214 220 204 208 205 205 213 217 218 223 227 234 234 299 313 324 335 361 381 400 431 476 380 439 439 430 377 355 332 281 253 185 138 83 85 112 123 121 87 82 81 64
130 133 149 156 156 184 190 172 159 159 168 167 200 229 245 250 249 240 261 272 287 303 338 331 365 376 375 348 262 240 218 187 169 111 107 116 117 106 89 89 94 76 74
139 141 154 183 179 192 179 175 180 141 157 139 129 151 159 175 196 191 184 184 172 204 221 223 266 291 293 294 260 217 177 164 139 86 88 117 129 107 98 81 72 66 75
146 140 115 114 145 149 140 127 164 180 190 224 204 177 170 150 144 138 138 149 152 164 214 244 228 235 251 247 216 184 167 141 134 107 139 142 93 100 91 102 94 99 103
87 77 72 74 105 130 110 127 170 140 165 217 220 173 130 123 129 126 140 148 130 172 157 146 221 178 196 191 144 124 139 152 167 139 153 138 145 150 116 114 108 95 84
118 113 109 110 94 74 95 55 117 80 114 193 195 280 258 188 151 102 102 102 136 143 130 117 142 148 131 128 157 166 186 181 167 120 198 141 157 146 143 156 75 47 39
123 132 127 92 83 58 84 98 127 114 160 167 208 152 135 133 162 159 120 103 101 139 123 134 119 117 133 168 177 178 177 178 165 148 162 111 155 118 123 74 26 22 24
109 100 93 96 110 120 153 145 147 106 114 147 130 125 113 94 79 97 102 98 113 100 64 104 133 147 172 190 195 174 152 127 104 102 77 62 78 40 54 80 53 20 20
75 75 61 57 54 49 76 84 59 43 54 65 64 38 36 37 52 65 71 61 70 75 90 115 129 125 120 114 102 108 87 62 53 63 84 66 63 49 67 90 54 34 47
-3 -12 0 10 40 21 50 51 53 47 58 55 48 68 80 77 83 81 106 140 163 188 201 182 146 122 90 72 14 41 84 90 86 80 100 86 96 57 39 60 75 100 85

GFSMA_con_3kmhel_045.txt.gz
Helicity
126 134 90 100 96 110 104 80 67 69 73 73 87 99 95 106 146 162 160 169 159 148 133 109 93 94 91 87 80 77 67 69 64 65 65 68 68 66 72 79 83 86 83
124 134 128 119 105 91 97 97 98 85 94 109 98 102 111 111 144 167 179 179 173 161 141 121 100 96 96 92 86 77 71 64 66 65 65 66 71 70 69 71 72 76 76
113 138 162 165 137 119 89 98 85 119 143 141 132 128 128 132 158 179 194 195 178 161 148 129 114 98 96 93 84 78 74 72 71 71 73 73 74 68 70 66 70 73 75
148 155 169 166 179 172 179 172 159 159 177 183 172 141 142 145 181 178 190 204 189 171 145 130 124 110 101 93 85 76 77 77 78 80 76 70 65 66 63 58 58 55 64
148 180 188 165 182 180 184 194 190 222 229 229 199 182 167 169 167 235 218 222 196 190 173 140 149 149 114 98 91 83 83 88 86 79 75 69 67 68 66 61 54 46 45
202 192 186 223 233 232 202 226 226 242 259 260 241 209 192 186 197 207 255 237 226 215 190 188 192 198 145 116 100 96 102 103 94 88 79 75 67 68 64 62 56 45 39
188 210 242 232 278 280 250 234 243 237 251 335 325 267 241 203 204 203 229 288 275 254 237 231 234 237 206 150 126 122 110 105 96 89 88 83 80 78 75 68 61 59 52
188 241 226 289 319 320 304 291 312 331 306 386 376 340 273 270 237 221 250 261 306 332 286 258 263 248 237 229 185 127 117 110 104 99 96 94 95 92 94 85 76 73 71
145 170 204 253 273 340 336 333 335 362 342 419 417 380 300 262 229 247 238 285 297 356 370 318 278 260 247 245 207 161 121 123 109 102 104 111 113 113 103 94 82 79 75
119 114 137 174 230 254 304 343 366 377 472 442 502 383 427 326 251 214 211 224 276 281 321 360 304 268 247 282 228 182 129 109 127 113 114 123 117 108 111 110 99 89 90
133 111 99 128 174 234 228 259 350 318 397 437 492 510 467 473 409 344 242 257 266 293 282 302 345 315 310 305 283 205 128 115 139 122 117 130 122 112 113 113 115 106 97
123 116 148 166 162 159 179 209 198 255 295 368 478 454 462 433 358 388 349 296 265 265 281 312 350 354 391 366 335 202 176 202 221 98 147 136 148 133 132 139 139 101 80
182 219 165 140 144 128 122 152 199 215 256 307 375 411 405 416 399 380 357 276 232 288 313 362 331 334 378 379 324 292 402 320 245 160 100 127 148 140 129 121 137 108 103
189 232 256 213 147 114 119 133 161 162 219 242 271 349 354 330 398 363 304 283 270 276 350 391 533 553 501 651 299 260 299 261 262 223 176 157 140 140 121 101 112 99 105
175 186 188 223 244 178 135 127 155 164 182 224 229 263 324 331 345 333 339 306 246 213 247 372 434 536 626 531 632 470 451 328 236 177 172 74 124 151 97 97 91 94 127
147 161 161 173 204 222 220 233 240 238 210 210 225 230 297 311 285 285 248 252 266 238 229 288 362 488 505 479 378 441 362 266 207 187 141 118 93 92 71 81 81 103 102
135 163 174 178 182 184 178 177 188 201 202 204 200 195 285 271 266 290 273 201 199 213 186 273 342 356 404 353 482 344 250 265 267 145 109 72 94 99 90 86 93 80 80
144 149 160 169 163 158 149 140 158 156 142 143 170 187 225 249 266 255 235 189 118 144 156 194 244 284 313 283 303 320 276 224 169 112 109 131 116 91 79 78 81 77 96
95 100 92 105 110 102 108 120 137 158 152 146 161 185 200 197 181 231 181 151 159 120 160 120 164 199 215 229 232 166 146 146 131 99 79 79 72 112 99 100 98 96 107
63 69 76 85 100 104 120 137 155 135 153 183 164 147 190 171 193 173 174 182 148 151 130 135 161 162 150 171 194 209 174 151 118 106 117 131 137 131 116 128 135 154 138
76 81 92 102 89 84 83 101 124 128 130 146 157 139 144 196 189 179 119 137 181 157 145 111 105 148 175 166 145 151 158 164 140 152 178 158 171 151 138 129 131 134 127
114 103 95 99 91 84 126 129 133 116 109 106 113 145 192 235 186 202 108 68 106 117 98 110 125 131 145 161 143 138 156 179 159 154 187 146 173 164 181 172 110 82 61
82 104 111 105 98 82 94 95 94 63 68 79 126 125 137 105 138 181 156 171 160 120 97 106 117 124 131 142 148 156 157 175 174 165 160 91 139 116 98 66 11 0 8
62 64 82 62 38 21 35 37 46 27 36 41 52 59 54 45 47 73 83 78 79 78 88 106 113 109 123 138 151 154 158 149 120 91 67 72 97 82 68 70 10 15 47
16 4 -2 12 18 8 36 48 46 42 53 58 67 67 72 68 67 82 107 109 104 127 145 112 139 144 147 139 129 155 138 120 87 83 69 82 80 65 85 84 83 101 102
5 0 8 -5 10 1 38 44 44 41 59 65 63 73 91 98 105 109 140 150 168 161 155 150 146 142 135 116 93 76 78 98 90 86 85 88 75 63 80 77 105 93 101

GFSMA_con_3kmhel_048.txt.gz
Helicity
83 84 68 78 79 100 98 93 86 83 80 74 82 79 66 94 94 112 115 116 135 123 116 103 96 88 85 85 83 79 77 75 74 73 71 76 70 70 70 73 75 72 65
100 108 98 87 81 103 101 99 97 93 83 99 99 103 92 113 111 127 136 141 142 139 123 110 102 92 86 88 85 83 74 75 73 69 73 74 70 74 73 72 72 73 70
120 134 141 132 112 114 115 105 96 110 102 104 109 120 134 121 129 134 151 160 161 152 138 116 110 100 95 86 84 83 77 80 75 76 72 76 74 75 74 76 73 67 69
133 156 158 175 163 160 152 153 129 124 125 134 133 129 144 149 144 150 170 175 180 181 157 124 118 107 96 88 86 85 83 81 83 78 77 76 71 72 67 61 59 60 54
149 168 171 185 217 205 203 199 177 194 191 175 165 161 161 166 161 180 186 196 196 200 197 138 130 123 115 90 83 86 86 93 95 86 77 73 73 65 65 62 54 50 50
133 158 182 189 230 237 219 240 218 238 235 230 225 200 185 172 185 198 213 213 224 225 217 188 175 167 159 104 87 85 91 93 90 85 74 68 70 74 66 67 63 53 48
168 192 187 183 230 237 232 237 251 237 236 265 294 259 239 182 176 221 237 250 250 245 244 221 213 215 206 148 114 99 94 95 93 87 77 77 72 71 71 62 69 62 54
162 194 202 216 245 228 245 250 286 285 285 332 351 351 283 249 236 243 296 287 281 306 289 274 254 228 226 225 206 131 106 99 89 87 81 80 82 76 78 82 75 77 71
137 163 173 194 196 223 254 300 301 317 245 327 376 360 302 266 227 185 202 280 305 337 321 329 295 267 223 229 214 188 157 132 100 93 80 85 73 82 93 93 79 77 72
125 137 145 163 172 208 232 263 285 287 316 290 314 279 367 328 269 209 186 168 208 242 299 340 322 296 266 261 231 221 182 157 111 98 92 85 71 99 114 97 85 80 79
124 117 131 123 162 193 211 217 264 292 318 267 366 331 353 415 401 352 237 249 206 185 240 261 277 289 313 301 275 215 158 136 133 149 113 111 104 94 137 137 106 104 106
123 149 126 124 131 158 189 177 185 225 245 264 319 310 342 329 283 366 379 315 248 192 192 238 257 296 327 343 265 213 180 117 99 144 177 177 224 253 310 204 264 151 79
149 189 180 136 124 133 133 147 153 164 196 206 218 256 280 315 374 385 357 310 271 221 220 195 230 301 367 463 401 343 260 180 201 170 94 134 289 350 351 193 210 136 127
165 190 208 212 195 167 129 109 112 128 141 155 157 195 226 251 304 320 322 332 299 256 223 202 199 273 324 372 368 377 465 399 387 258 205 292 401 253 195 136 120 126 100
136 145 156 171 190 202 180 149 144 150 130 118 127 146 178 187 233 243 260 299 246 234 155 157 205 210 279 344 376 537 616 433 384 354 244 237 189 116 127 120 107 80 59
120 123 127 131 152 175 191 193 179 184 188 167 153 136 158 190 203 211 226 252 270 242 251 219 195 150 207 275 341 471 504 372 258 198 149 120 94 108 74 70 70 73 87
116 130 135 140 152 165 169 167 172 176 175 179 188 179 167 171 164 160 166 211 238 265 240 233 186 146 157 220 331 358 380 270 236 122 104 150 108 77 55 69 94 100 94
129 138 129 128 144 152 150 140 127 138 155 169 167 161 171 186 184 176 159 159 199 207 201 182 172 140 230 190 268 220 258 185 155 121 66 83 70 81 93 100 75 72 73
147 136 125 128 122 112 110 102 103 130 160 143 130 153 170 180 152 113 140 127 169 156 179 172 122 178 170 225 177 208 134 122 116 76 88 89 87 74 59 77 79 75 77
125 117 113 93 82 77 88 102 117 129 141 133 130 138 151 144 112 118 136 148 170 179 185 154 100 124 134 113 102 139 147 136 124 110 86 66 89 108 98 109 106 105 148
122 102 104 111 96 100 93 100 124 149 154 152 155 141 147 136 115 112 116 161 122 82 150 143 153 124 123 135 124 144 147 151 114 108 116 133 139 131 125 116 117 114 127
129 143 143 119 106 85 103 116 130 133 119 103 107 121 146 143 170 138 138 163 95 64 129 127 120 127 145 165 149 130 132 142 145 142 169 147 143 149 159 168 128 110 92
146 138 132 108 87 78 67 52 43 24 29 31 26 37 44 48 64 59 67 92 111 133 127 99 104 126 137 146 147 142 144 157 158 166 164 124 169 153 153 106 54 31 28
88 75 85 79 54 46 50 45 42 14 17 19 32 42 54 56 58 77 95 107 113 112 111 109 124 136 144 149 159 157 154 160 163 150 153 111 115 91 91 74 21 18 33
45 45 40 38 35 20 41 40 23 19 30 29 36 51 67 67 72 100 113 119 119 128 157 183 169 161 151 150 148 167 168 183 151 138 79 78 85 74 74 84 94 108 159
34 20 13 17 30 30 41 39 30 21 31 38 47 61 78 85 98 108 113 115 126 122 133 140 140 142 144 139 131 137 144 159 137 133 73 77 72 72 114 113 128 139 114

GFSMA_con_3kmhel_051.txt.gz
Helicity
66 67 54 56 49 67 72 79 78 79 73 68 71 72 77 85 84 89 92 74 91 108 104 95 94 89 72 75 77 69 73 66 58 55 59 58 57 56 60 62 60 64 67
82 82 68 70 65 71 76 92 99 96 86 89 76 80 76 94 95 92 105 106 92 110 106 89 82 80 75 68 75 74 68 64 64 61 56 55 56 59 60 63 63 58 62
98 98 91 91 85 94 88 91 87 94 89 93 86 79 78 90 102 105 119 129 121 109 115 82 72 71 78 63 64 74 66 64 67 63 61 59 61 63 63 62 65 64 61
117 128 125 119 125 138 143 134 121 124 120 119 123 101 107 101 108 111 136 145 149 151 130 106 90 75 71 70 56 63 68 72 72 72 69 66 64 59 60 66 66 64 61
116 136 151 155 179 176 182 174 158 179 160 156 154 147 147 135 131 143 150 164 171 180 183 142 116 113 103 73 62 60 70 78 78 75 73 68 66 63 60 61 63 61 59
136 154 151 154 189 192 188 219 196 218 212 192 179 179 172 173 164 182 173 171 195 210 221 203 174 163 129 101 62 55 57 65 72 76 76 73 69 72 72 68 69 67 63
143 177 177 182 221 213 196 214 242 224 206 244 242 210 198 185 178 212 238 234 231 245 255 246 231 209 179 128 96 60 59 55 57 64 70 73 72 74 75 76 75 70 77
136 151 154 164 202 222 221 237 270 258 259 274 254 276 211 187 203 206 263 262 256 291 265 271 270 243 215 216 185 105 74 65 69 61 63 64 68 74 84 91 91 89 96
122 140 149 169 164 201 210 215 244 257 212 260 282 247 225 197 188 175 158 162 185 246 249 258 250 258 244 222 199 184 141 106 65 54 46 49 56 68 86 102 116 116 104
133 139 141 157 176 212 220 203 206 209 233 209 276 237 303 301 227 195 204 216 145 148 203 235 223 237 255 262 237 234 195 157 104 77 50 42 57 64 82 96 94 126 109
175 173 147 134 144 178 170 179 205 199 222 180 252 266 244 316 336 294 163 194 216 159 142 152 168 225 225 260 293 288 242 209 86 91 85 51 69 71 81 111 127 117 154
160 182 174 143 122 140 148 154 168 175 177 174 194 226 238 219 209 220 207 194 215 192 190 180 202 223 231 230 252 262 270 195 265 237 219 148 79 145 193 214 268 353 406
151 168 163 168 161 138 137 157 172 178 175 166 160 176 187 167 197 222 222 227 251 197 178 161 204 217 257 278 296 201 209 257 190 153 197 275 364 311 325 219 180 196 204
123 145 158 164 171 185 173 166 177 172 151 130 123 130 169 145 176 192 214 238 232 214 226 199 191 184 190 226 228 171 212 190 239 251 287 220 284 489 336 281 215 178 157
130 148 156 170 176 172 172 175 179 187 157 136 130 146 150 138 147 156 179 200 219 244 215 179 173 161 156 135 154 176 180 213 188 227 231 282 302 208 219 158 101 86 79
136 142 149 154 160 164 166 161 165 182 183 198 200 209 186 178 184 188 170 161 171 181 270 192 181 188 176 159 119 205 205 144 190 215 246 166 166 128 91 63 103 72 48
124 128 130 138 159 177 185 168 168 170 158 142 135 131 173 165 142 155 181 187 177 186 198 178 156 173 193 185 190 248 272 319 293 185 112 98 91 103 75 65 49 43 74
120 127 138 163 182 182 180 176 158 133 122 104 125 142 150 123 121 133 146 155 159 175 182 139 172 134 191 189 185 177 221 192 200 184 130 129 99 101 76 65 65 86 81
139 150 171 174 159 157 156 154 143 142 139 146 151 139 119 114 121 129 126 121 119 148 174 162 116 117 103 110 174 168 170 161 122 90 66 55 67 88 99 71 62 90 112
142 153 145 128 122 138 149 157 157 156 161 160 143 137 132 128 110 119 135 123 130 161 165 111 79 112 67 108 117 110 91 84 80 79 77 70 81 105 129 147 124 104 93
134 122 121 132 128 128 120 126 138 144 146 145 152 145 153 169 135 123 98 76 106 120 89 100 112 103 99 120 113 144 153 130 121 113 111 115 123 114 105 107 98 81 76
118 122 127 121 127 118 130 121 99 84 93 83 66 64 67 71 68 97 78 64 74 87 99 105 121 139 147 145 144 145 141 132 119 111 127 131 126 104 114 123 98 101 104
127 132 130 121 126 118 117 96 83 46 38 28 30 35 37 42 53 53 74 113 131 147 141 131 151 166 176 168 175 188 179 169 149 140 140 128 133 131 133 132 106 86 52
92 83 93 102 90 74 87 77 71 35 37 40 47 40 42 43 45 65 79 101 119 127 134 146 164 168 172 167 188 190 184 176 163 151 164 120 122 152 136 88 28 16 22
45 46 52 71 70 54 64 64 50 37 39 43 43 44 48 54 71 90 88 100 112 127 154 185 193 193 182 172 159 189 188 208 177 172 158 131 135 98 86 68 69 63 74
33 41 55 49 42 47 48 46 41 35 47 49 51 63 76 74 90 92 92 96 102 105 124 133 133 139 140 141 163 162 166 176 166 182 128 114 104 69 108 84 109 113 115

GFSMA_con_3kmhel_054.txt.gz
Helicity
58 56 44 44 44 50 52 55 61 64 62 63 61 61 58 63 61 64 66 49 53 75 82 79 70 65 60 50 53 50 54 48 53 57 56 53 49 46 45 49 47 44 43
70 69 60 51 49 62 66 69 72 71 66 70 58 58 57 69 70 69 76 67 54 72 88 78 70 54 46 49 43 50 51 45 48 55 60 57 54 55 55 52 47 42 44
74 78 81 72 64 73 73 79 78 84 80 81 67 62 70 68 75 76 80 89 83 72 82 72 67 56 43 45 44 45 50 51 45 48 51 53 59 62 62 60 62 59 54
90 87 84 82 93 104 110 108 106 101 101 108 114 92 97 95 92 95 101 101 112 113 106 96 84 73 62 46 47 45 55 55 59 54 49 56 63 63 64 66 66 66 65
112 120 118 110 122 126 137 138 131 146 133 140 145 132 120 119 116 128 127 125 126 142 151 125 106 104 98 70 52 48 50 59 63 65 63 59 59 62 66 68 72 73 70
131 149 142 143 170 163 147 172 157 176 176 172 171 151 136 133 132 139 148 168 179 179 181 177 161 147 121 112 70 49 47 55 64 60 61 64 61 61 66 70 74 74 74
112 134 145 155 184 175 164 189 207 185 185 222 205 168 171 152 162 170 196 180 187 206 207 206 199 192 173 122 105 68 52 52 46 55 58 64 64 61 61 68 73 84 85
132 146 150 144 158 168 174 183 225 208 206 236 227 219 163 129 112 112 153 167 161 193 195 196 198 189 184 176 164 109 69 50 67 62 51 65 74 67 63 65 71 81 90
136 141 143 151 160 177 163 170 210 205 181 197 228 212 188 159 151 128 116 111 110 130 144 155 165 166 175 186 161 150 133 98 56 86 113 57 73 74 63 67 72 81 111
160 145 132 136 143 169 177 169 184 195 211 174 212 172 207 245 174 175 186 157 137 104 106 104 124 147 154 168 167 184 190 157 96 74 151 216 177 61 39 38 73 100 97
160 168 175 159 138 143 141 160 175 177 207 195 216 210 164 206 198 190 148 155 159 129 107 108 106 124 154 167 186 199 190 194 120 135 101 107 123 137 89 30 45 73 109
147 164 163 153 136 123 121 125 145 164 178 172 182 193 186 153 138 148 136 141 152 143 157 142 139 137 139 149 175 173 150 143 184 169 143 109 168 197 159 153 198 281 219
133 154 161 172 165 158 149 138 148 162 170 175 189 168 151 125 152 157 187 190 173 146 149 132 136 135 146 148 152 172 148 111 86 102 73 145 132 109 278 290 524 443 302
117 134 148 165 177 182 183 181 184 185 168 157 147 175 156 122 148 170 194 182 151 152 168 148 167 160 129 103 103 89 134 75 74 57 27 78 75 126 204 325 292 278 251
121 137 150 168 184 194 196 199 217 243 245 258 254 229 193 182 193 160 152 147 163 146 116 178 158 146 120 109 90 89 113 106 60 38 31 84 203 309 175 149 158 118 103
133 135 142 150 155 160 168 175 187 211 225 239 228 233 237 209 206 182 174 176 165 166 165 193 167 144 130 99 102 91 102 75 44 27 106 172 207 182 160 136 99 84 83
133 134 136 138 144 151 159 168 193 198 206 212 230 195 177 176 169 160 146 142 162 175 155 143 161 158 124 80 125 121 156 123 111 171 271 223 155 84 37 44 100 90 75
129 132 137 146 150 160 178 173 169 176 172 176 161 144 153 148 168 150 130 141 152 146 127 118 146 161 124 105 84 98 119 128 136 209 233 212 196 185 137 96 69 67 88
121 142 150 159 154 161 152 163 165 169 172 174 180 182 175 167 164 141 134 124 120 123 116 137 110 99 78 98 70 96 87 109 120 107 89 77 69 52 51 61 77 56 55
123 135 130 126 121 124 135 138 147 161 171 173 172 174 170 153 155 142 128 129 109 91 81 89 86 82 84 87 86 87 81 94 106 87 68 64 68 71 101 140 143 147 152
121 113 121 126 123 120 110 114 128 139 134 133 141 146 145 152 123 106 73 65 56 48 66 75 82 84 94 100 105 95 95 97 101 103 95 104 112 115 122 126 112 90 80
114 115 129 120 127 116 119 111 97 78 75 72 65 61 59 83 80 88 88 102 72 58 76 88 101 114 117 122 126 131 132 135 129 125 127 129 111 104 111 114 93 83 81
107 119 122 118 112 105 109 92 78 60 62 62 50 42 56 55 63 73 98 113 104 114 108 101 114 120 123 128 138 142 146 142 135 128 106 93 128 108 124 124 116 108 100
106 95 93 84 77 67 76 80 70 41 42 42 49 50 57 58 38 74 82 94 96 105 112 114 123 123 119 122 130 129 128 127 120 121 130 110 88 126 139 125 112 95 68
69 65 57 54 53 43 55 55 48 40 49 49 45 39 43 57 78 77 73 84 92 95 106 124 126 122 123 122 104 132 120 142 120 128 138 127 112 122 131 98 86 110 133
53 39 54 47 45 36 41 50 46 39 50 46 46 55 64 52 65 66 63 71 79 72 91 91 87 93 96 102 120 110 120 126 120 133 113 109 113 102 121 73 73 76 74

GFSMA_con_3kmhel_057.txt.gz
Helicity
47 48 45 43 41 40 40 44 48 51 53 56 54 53 52 50 45 50 49 34 32 36 60 75 69 52 52 47 46 51 59 54 53 51 47 47 49 48 52 57 58 54 52
52 51 47 46 44 48 50 53 54 55 56 59 52 57 58 56 54 52 53 49 41 46 57 66 68 60 48 48 42 51 53 55 57 58 61 59 58 56 54 52 51 53 59
56 51 50 49 51 55 50 55 58 65 69 71 63 64 71 65 65 61 61 62 59 51 52 54 53 63 53 49 45 41 52 44 53 57 62 61 66 69 67 62 62 60 54
56 55 56 52 54 59 65 71 78 82 83 85 85 81 84 81 72 72 79 78 81 81 77 64 57 56 58 53 45 43 43 61 56 53 61 67 73 76 81 78 74 73 70
63 68 69 65 69 80 85 89 92 97 93 99 101 83 93 95 85 87 79 90 91 91 94 89 87 81 78 63 50 42 43 63 63 57 57 65 69 74 78 82 85 83 79
69 76 74 73 89 100 99 111 111 116 116 106 109 112 114 105 104 101 88 99 107 90 89 88 92 94 89 81 59 47 38 59 72 74 59 61 69 73 74 75 79 84 80
73 78 79 78 95 101 90 100 112 117 123 145 140 121 106 96 103 108 98 101 83 95 87 93 105 111 108 88 78 55 43 36 59 81 87 56 61 72 74 79 81 87 86
84 99 103 102 101 111 100 102 124 148 153 165 171 182 132 110 111 83 80 92 95 104 106 101 96 98 91 104 100 89 57 41 41 67 110 90 47 58 95 63 71 84 90
129 119 109 108 108 126 133 123 135 143 155 174 153 181 178 145 120 117 88 86 83 83 75 86 53 75 99 115 103 100 89 81 52 65 91 106 108 71 55 139 110 76 64
158 167 155 148 138 144 148 145 149 153 174 179 201 170 172 200 153 161 174 114 100 87 80 79 85 95 98 122 115 123 132 123 101 72 82 153 137 159 76 80 157 130 81
192 197 190 183 166 157 143 138 136 154 176 181 203 203 164 188 187 175 168 125 133 130 103 93 97 100 119 103 109 119 96 92 85 81 69 82 118 161 213 214 78 65 168
146 170 170 168 162 149 134 126 119 133 152 163 179 203 230 216 181 190 168 124 128 127 130 114 122 144 152 139 136 111 106 86 65 63 69 75 92 65 7 78 65 120 74
149 161 163 164 158 154 142 133 126 127 144 182 182 195 195 166 178 173 167 135 139 140 126 128 159 165 126 113 117 129 116 110 90 67 25 25 62 88 63 97 76 57 255
127 133 136 140 151 157 162 155 155 158 160 167 176 180 185 185 188 204 181 170 161 142 132 110 126 100 83 86 96 93 78 74 69 56 64 29 26 69 90 98 71 173 317
132 135 135 142 155 163 170 168 175 194 215 231 219 217 217 247 224 200 176 168 171 154 133 148 122 114 87 73 77 70 76 81 105 80 83 52 93 147 186 86 305 246 214
137 131 132 141 151 158 160 149 153 167 176 190 203 210 225 224 211 196 161 153 167 162 154 159 172 114 95 92 109 91 81 106 100 111 30 40 111 259 289 238 308 225 82
142 140 136 139 147 152 151 149 163 174 194 194 203 200 206 192 171 164 160 173 168 153 148 159 149 107 98 99 111 84 90 94 109 145 199 262 377 343 247 124 60 90 84
149 141 138 137 139 147 151 158 168 167 162 169 170 164 160 142 152 162 165 164 161 167 138 123 106 100 94 65 65 87 77 64 75 91 90 169 171 167 154 155 138 114 89
158 150 137 133 143 154 158 170 158 154 154 151 153 155 137 128 145 152 165 161 151 133 124 98 78 66 66 51 49 72 62 75 78 61 46 22 38 51 59 59 58 43 76
158 143 131 124 130 135 133 127 128 131 136 143 148 146 142 140 139 133 133 120 96 89 76 59 68 71 62 55 60 70 81 78 80 91 86 82 83 93 101 104 117 142 149
143 129 127 134 124 105 92 102 114 119 120 123 116 113 113 82 72 78 68 69 60 55 67 71 79 79 79 80 82 74 74 72 86 95 97 108 114 109 109 112 112 118 107
127 126 127 128 115 102 95 103 94 84 68 63 68 70 80 90 96 86 95 101 90 83 78 77 85 92 93 85 86 90 90 88 84 98 83 86 95 107 111 102 86 77 78
106 121 120 107 107 103 95 90 75 64 72 64 61 60 67 62 79 80 95 103 97 88 90 77 93 98 97 92 85 82 89 84 82 81 54 71 97 101 115 114 114 109 107
103 103 101 98 89 86 81 70 70 56 55 59 57 57 63 55 62 81 81 84 83 98 93 91 97 90 85 78 72 77 78 71 64 69 69 82 95 110 103 90 91 93 75
92 85 71 58 63 59 53 52 55 45 51 50 47 45 60 72 78 78 80 84 76 76 81 94 91 85 79 74 66 79 69 70 76 85 88 82 112 129 112 94 76 87 98
58 42 37 50 47 37 41 44 43 37 44 45 46 49 56 60 71 76 73 71 80 72 69 68 70 78 82 82 89 67 70 67 73 75 90 83 112 129 132 93 75 61 66

GFSMA_con_3kmhel_060.txt.gz
Helicity
54 50 46 43 43 49 50 54 49 48 50 53 53 54 54 52 53 64 62 87 52 48 48 52 74 61 54 52 47 50 52 50 55 62 64 63 61 57 60 63 65 66 64
52 54 52 47 46 51 59 60 62 62 60 58 55 56 56 61 58 60 63 64 73 47 43 51 55 61 51 41 50 46 52 55 50 55 60 61 61 62 63 64 63 64 72
52 56 56 55 57 62 60 61 58 59 61 62 59 65 73 71 71 66 69 69 73 70 53 48 46 48 51 45 49 50 60 57 49 45 53 58 65 72 74 78 78 79 69
49 58 61 63 70 70 66 61 64 68 67 69 73 82 88 77 65 67 75 79 74 71 82 69 51 43 43 52 46 57 54 64 71 62 60 63 67 69 73 80 86 88 88
57 60 64 68 72 77 77 80 83 85 88 91 90 88 91 85 78 89 83 84 76 84 83 92 87 62 52 49 51 52 70 65 71 79 67 59 66 71 75 75 85 94 92
65 69 71 67 75 81 83 88 88 97 99 101 99 92 96 91 94 95 88 93 88 80 77 80 93 87 87 66 60 49 51 68 84 84 82 85 55 65 67 67 75 88 96
81 78 79 78 81 86 84 90 100 102 106 109 132 119 99 104 100 101 86 84 91 84 72 86 97 93 93 108 74 58 46 50 58 93 93 69 70 66 56 73 72 83 92
84 91 88 89 87 94 88 93 104 117 118 134 155 163 159 118 122 101 87 80 72 75 83 77 81 78 79 89 89 88 69 60 50 59 90 114 111 101 81 61 87 110 136
109 107 104 107 109 131 131 126 138 133 171 162 133 190 187 138 194 151 106 94 80 92 99 88 92 91 93 92 107 125 107 89 66 55 57 90 112 143 124 105 75 80 137
128 130 127 132 141 152 146 135 147 155 172 185 223 173 177 235 203 191 142 100 122 115 97 88 76 70 91 112 119 111 128 133 113 81 49 49 98 96 183 101 82 19 42
141 149 161 161 156 152 139 134 129 142 162 175 195 211 181 194 176 197 182 155 146 135 111 101 105 108 124 134 144 166 172 155 132 117 62 42 40 104 72 129 118 111 132
149 172 174 164 154 144 129 126 121 120 133 140 158 181 223 224 200 190 185 158 152 135 139 149 159 143 147 154 159 150 169 159 151 131 86 39 37 58 93 140 141 63 88
142 155 162 154 149 145 139 136 128 130 133 155 141 165 204 189 226 224 220 186 174 129 102 134 152 152 139 136 118 136 130 143 147 140 112 96 105 101 87 64 87 50 71
152 150 144 137 133 132 131 130 132 137 147 155 153 170 182 181 204 212 211 191 161 110 105 76 106 131 110 107 94 84 73 116 123 111 104 87 68 112 132 103 96 90 171
148 137 133 132 132 133 133 133 142 160 170 188 203 207 208 221 226 212 195 176 191 156 104 119 119 143 101 55 56 56 83 104 90 89 76 46 35 97 119 77 103 232 297
145 136 130 132 133 135 139 128 145 156 147 155 159 173 189 177 181 190 199 176 164 147 152 175 155 140 89 64 62 77 97 77 152 145 150 98 86 156 221 173 250 357 371
144 137 138 137 142 145 142 145 149 144 150 151 158 155 156 151 149 145 138 140 142 142 138 161 168 140 102 84 80 72 74 95 96 126 118 196 297 322 279 193 165 140 181
141 137 132 136 141 141 145 142 146 151 151 158 146 139 135 115 123 136 140 150 142 147 131 134 130 110 80 59 53 47 56 74 77 107 119 146 191 180 152 119 107 71 68
130 143 142 141 141 147 139 158 160 156 154 146 137 137 131 126 137 140 148 149 144 131 114 106 95 63 57 68 57 62 75 76 77 84 98 113 111 98 93 98 114 115 103
147 154 156 146 144 143 135 139 141 136 131 132 137 141 130 123 114 109 102 94 81 73 72 67 58 69 76 74 70 80 75 79 88 89 93 101 107 107 108 103 114 131 137
164 153 137 118 114 122 120 116 101 103 105 111 109 100 107 90 82 72 65 75 75 73 72 73 77 75 79 78 77 67 69 82 96 109 111 108 118 114 110 99 112 116 124
141 136 119 116 117 119 104 98 86 89 89 69 73 77 72 73 72 71 85 98 94 80 83 90 85 95 96 88 84 90 88 90 82 88 96 84 93 98 94 101 124 119 119
120 126 121 113 117 105 91 89 91 83 62 62 63 62 70 67 72 68 79 82 88 106 120 97 103 108 98 103 100 81 83 77 77 74 58 70 84 80 84 84 94 100 105
105 112 109 94 81 82 77 85 81 68 63 63 71 69 62 61 71 73 73 74 75 87 104 103 109 102 98 86 78 74 77 74 61 64 64 66 83 82 77 71 92 99 131
97 93 92 82 78 65 60 54 56 47 56 65 56 50 56 64 77 71 78 77 69 70 81 87 85 81 75 69 65 70 78 82 78 80 77 76 93 96 75 78 91 91 97
81 70 63 53 41 47 37 35 30 44 49 49 41 44 54 54 66 73 73 71 69 72 70 63 63 60 62 75 77 74 84 76 79 77 93 85 105 113 101 106 90 88 82

GFSMA_con_3kmhel_063.txt.gz
Helicity
77 71 68 66 62 62 62 61 59 55 52 53 53 53 51 51 54 72 72 107 90 66 58 55 69 81 73 72 69 66 67 68 63 61 60 67 71 72 75 78 79 80 81
62 64 72 71 65 64 63 63 64 67 68 64 57 55 58 59 63 70 76 81 92 79 62 59 64 75 77 71 73 71 75 72 67 61 64 68 71 71 75 78 78 79 87
56 62 65 73 74 70 66 71 69 68 65 65 59 63 77 76 77 77 78 78 100 98 93 74 67 63 63 70 64 70 80 73 74 64 56 63 68 75 78 84 90 86 75
57 66 70 74 75 78 76 75 72 73 73 77 81 85 92 89 76 77 82 88 109 106 122 91 85 68 59 57 58 63 84 80 71 94 65 61 65 73 77 87 101 107 98
62 74 78 83 83 85 80 77 80 80 92 90 95 95 109 110 99 104 84 93 104 136 133 124 112 105 93 71 63 64 78 107 98 77 82 74 63 57 64 71 82 96 108
76 85 91 90 95 104 94 89 88 100 112 115 118 115 115 120 118 117 101 118 131 136 147 112 133 112 96 86 76 68 64 79 95 97 88 74 72 62 50 55 73 86 97
94 98 101 102 104 100 92 89 103 117 124 106 117 125 99 97 104 116 130 112 112 133 92 92 94 97 111 97 86 69 55 47 66 93 103 110 96 78 74 61 55 73 75
102 110 104 105 118 123 97 100 111 146 155 160 189 158 154 121 125 160 181 142 118 115 120 99 103 101 111 121 113 77 69 61 51 62 80 81 99 117 95 82 64 64 60
129 150 154 151 142 158 159 163 183 187 180 190 172 201 196 182 191 217 210 165 104 115 145 156 125 125 119 129 134 156 180 158 123 76 60 66 57 79 132 135 110 103 77
133 136 127 120 125 142 157 157 154 161 179 177 207 200 199 242 212 223 199 150 112 131 125 135 122 114 121 113 117 155 173 159 137 117 97 61 64 55 85 118 110 178 86
130 137 139 150 146 156 158 153 143 137 155 169 174 183 174 173 184 216 208 180 137 153 137 112 98 139 168 141 170 175 197 184 174 166 131 103 61 35 50 63 140 74 80
116 132 148 150 156 146 141 137 134 131 124 126 135 150 172 204 198 233 220 190 193 179 179 131 159 152 143 144 172 177 176 163 169 160 132 116 105 156 155 65 48 142 139
98 107 136 148 150 153 141 133 129 119 115 129 132 152 162 169 188 229 270 223 169 157 163 154 158 153 139 177 152 158 139 144 144 136 124 112 135 144 128 104 89 53 105
160 170 137 140 143 138 126 122 126 134 127 138 149 151 147 180 196 224 210 236 219 170 151 121 201 157 154 142 133 122 93 104 105 117 86 60 54 68 63 43 72 143 143
172 163 144 142 138 134 131 126 136 138 162 156 177 175 199 213 201 200 187 197 199 187 148 130 162 145 126 106 99 84 74 69 108 99 65 85 53 48 31 67 126 238 267
141 148 147 135 128 122 128 129 130 152 163 160 163 151 170 170 187 180 172 171 165 165 163 193 190 141 97 71 62 65 61 82 111 107 91 90 160 152 176 206 271 278 250
130 132 140 135 134 133 134 132 123 135 135 137 150 151 152 155 159 160 162 162 157 140 129 154 142 127 110 110 78 51 63 66 60 97 79 100 151 196 203 239 243 227 194
127 131 130 134 135 138 147 162 140 140 129 138 143 149 153 142 139 134 124 138 138 153 159 141 168 128 92 64 32 46 46 68 67 74 79 89 112 136 147 153 142 121 114
130 135 136 139 142 151 153 162 150 146 160 175 160 156 142 130 136 137 144 142 138 130 122 128 104 76 45 38 67 70 69 77 69 61 68 76 92 108 103 95 102 115 115
137 152 166 159 152 153 156 157 153 158 176 185 167 160 149 148 134 127 115 86 66 56 60 72 60 51 61 71 72 82 88 76 88 94 79 75 84 88 100 103 99 97 108
181 182 168 157 143 139 132 129 145 144 140 139 131 135 152 134 128 104 87 84 89 93 87 74 70 68 71 68 88 84 90 92 88 107 106 102 98 106 84 86 96 111 124
159 162 152 146 142 128 116 129 124 129 111 100 110 99 88 87 76 75 90 115 111 103 101 109 88 85 101 83 86 109 99 105 108 77 98 95 96 99 101 104 110 91 89
147 153 154 144 140 130 128 136 126 120 115 108 79 77 70 58 61 55 72 83 113 125 139 110 119 149 146 135 103 96 106 89 87 82 77 84 93 88 83 79 95 82 81
155 158 158 134 133 122 106 113 108 119 103 78 64 54 47 40 54 65 76 75 88 106 124 123 143 157 151 129 103 91 83 76 71 73 81 68 77 73 70 66 95 80 91
169 168 146 133 125 106 83 85 87 69 66 55 41 36 44 42 61 77 73 68 68 90 97 106 111 116 103 94 83 83 83 86 78 86 88 81 76 78 64 66 82 74 78
157 139 137 116 93 85 66 49 39 55 43 40 44 50 52 72 63 54 59 65 73 91 88 82 85 86 80 93 85 74 83 79 80 81 102 91 96 94 88 85 88 83 93

GFSMA_con_3kmhel_066.txt.gz
Helicity
78 51 62 78 61 64 54 63 58 61 65 50 57 66 61 55 55 67 100 107 93 83 73 59 76 88 88 89 92 91 87 81 75 74 77 82 82 83 85 85 83 81 83
69 55 61 73 72 77 72 69 65 63 64 70 60 57 64 76 78 80 90 105 95 83 85 75 62 84 93 85 69 73 73 81 70 58 62 68 73 76 77 78 81 86 87
61 57 59 72 68 75 75 72 77 80 80 69 65 65 70 77 90 96 107 115 117 101 98 97 81 75 69 76 75 70 74 72 76 82 39 47 55 64 69 73 78 75 76
55 57 68 65 78 85 94 89 85 81 78 78 78 72 87 101 110 89 102 122 144 153 119 103 97 89 78 71 66 66 79 96 78 67 58 50 53 60 61 66 74 79 78
62 72 71 75 84 99 108 102 88 96 97 99 96 105 106 112 130 129 128 125 130 162 199 156 104 106 91 81 73 63 61 82 109 92 77 59 59 58 58 57 61 70 87
72 94 89 92 103 102 106 106 107 108 112 112 109 118 116 96 129 142 115 101 129 134 167 143 125 108 81 77 68 58 53 48 75 85 101 85 74 75 67 52 52 56 65
95 112 114 105 116 125 117 112 119 116 124 123 132 130 126 122 125 120 126 139 110 120 134 137 115 105 100 71 64 65 59 45 29 62 79 99 100 86 80 64 60 56 51
125 142 133 119 134 147 124 121 135 140 152 158 173 163 161 152 116 107 136 185 182 170 150 137 119 130 123 120 129 102 100 101 77 49 48 55 62 74 94 92 96 73 71
158 171 176 161 156 151 141 147 163 167 160 175 189 225 199 185 189 164 181 211 189 154 166 189 165 168 176 145 148 160 157 125 106 89 81 73 50 49 62 74 109 103 95
170 184 174 166 150 150 146 143 150 167 182 191 191 198 195 214 193 202 192 208 205 177 158 158 128 125 126 140 202 200 181 164 149 135 125 109 90 78 35 56 76 114 159
141 149 152 158 153 148 153 164 167 168 175 184 181 172 166 168 178 196 193 163 177 178 139 131 143 210 159 132 148 163 181 185 170 153 148 133 120 130 125 104 37 55 142
137 139 146 144 152 153 162 174 170 154 152 160 154 147 156 172 177 180 184 166 171 172 196 153 228 211 145 156 168 171 176 176 157 133 124 122 140 138 83 67 106 124 64
142 113 140 147 153 165 162 154 148 143 137 149 132 137 141 134 158 208 196 172 161 157 180 291 284 241 205 150 156 144 157 140 136 107 101 80 60 71 56 53 55 70 64
197 196 164 152 157 163 152 145 143 133 132 133 172 165 155 162 152 183 201 195 159 123 172 254 254 220 194 142 169 182 101 115 117 97 91 74 49 45 41 41 42 50 49
195 199 174 168 167 153 144 139 136 158 184 172 152 144 154 168 173 176 162 173 170 209 157 229 223 202 160 131 148 121 113 103 88 77 76 93 132 69 45 36 76 107 125
165 170 180 172 161 149 138 137 139 157 174 167 152 134 142 144 147 158 166 169 143 187 192 214 206 153 147 114 135 98 79 97 107 108 73 94 98 141 150 167 164 134 145
153 158 163 156 150 150 154 144 122 120 124 135 139 148 140 139 145 141 153 168 157 151 161 183 171 161 142 134 89 69 63 67 54 55 66 66 92 117 128 153 169 176 176
174 171 153 143 149 160 160 176 150 151 114 122 134 153 159 162 166 167 143 170 170 167 154 149 136 123 115 87 55 37 38 44 53 54 56 79 91 101 120 122 130 132 126
147 136 143 161 178 183 208 216 215 203 220 229 204 189 193 177 183 172 174 161 142 139 135 121 107 74 64 36 37 54 55 53 47 59 69 75 87 94 104 107 112 123 124
136 139 190 200 198 194 198 211 235 231 226 203 203 198 207 184 150 124 124 112 96 77 77 93 82 67 53 58 65 96 107 90 90 87 88 55 79 89 99 99 108 112 111
173 201 171 158 167 173 169 176 189 194 186 182 168 158 143 152 159 135 97 91 81 88 101 88 93 82 76 73 92 98 101 91 108 106 89 90 80 84 76 92 109 108 104
161 148 138 138 143 162 157 150 173 168 167 160 160 136 133 131 96 83 99 101 102 79 77 83 89 75 100 86 108 102 87 103 112 89 80 77 79 78 77 72 76 73 73
127 130 142 153 161 175 141 160 172 185 178 156 134 124 99 68 66 64 72 84 95 110 100 90 106 111 123 101 98 98 96 86 83 66 71 77 78 76 69 65 73 65 67
121 124 135 155 176 181 153 146 166 157 142 120 103 83 51 41 43 57 60 68 80 92 110 125 127 129 124 116 105 78 71 68 69 78 77 81 69 64 56 57 69 76 72
130 126 142 154 154 171 138 125 133 112 102 71 56 44 30 35 39 66 68 57 62 68 84 95 90 91 91 86 77 85 87 95 87 87 84 77 65 65 59 60 59 58 58
137 134 149 141 111 125 87 93 90 81 74 51 48 56 56 66 51 49 68 65 70 68 79 81 65 69 75 76 78 82 83 95 89 87 71 85 80 79 78 69 76 74 74

GFSMA_con_3kmhel_069.txt.gz
Helicity
70 61 39 45 34 43 42 32 32 34 27 31 43 48 49 54 53 57 74 76 87 77 70 61 70 83 87 86 84 82 68 58 57 58 60 64 67 70 72 73 73 70 71
80 61 50 48 46 48 41 59 58 51 55 59 49 49 46 50 57 70 91 97 96 92 82 69 66 55 91 103 87 66 69 63 56 49 44 48 56 59 63 63 65 71 69
77 62 58 49 49 55 58 60 54 72 70 66 56 55 57 62 73 80 87 111 111 102 97 75 69 67 67 78 73 73 77 75 66 58 44 42 44 51 56 59 62 65 67
88 68 63 60 44 60 73 80 79 77 75 76 78 72 76 77 77 90 104 110 131 133 122 106 88 53 65 65 55 47 54 81 85 74 62 51 48 46 47 51 53 58 66
76 74 66 59 71 90 96 98 94 102 97 90 85 90 88 93 93 108 107 119 116 117 153 146 112 84 72 65 51 32 21 43 64 89 82 69 58 54 50 45 48 46 52
73 74 70 63 80 98 93 100 92 98 107 108 102 108 103 95 90 86 86 97 114 107 100 135 121 109 76 67 49 39 22 14 25 53 68 86 80 75 65 56 49 44 44
71 85 84 75 70 89 97 105 115 114 108 115 129 133 125 123 143 117 114 105 124 142 156 152 126 112 106 97 82 62 51 33 36 30 38 54 81 83 66 62 60 55 50
110 101 100 91 93 109 100 112 124 124 125 129 149 141 124 130 148 141 92 109 157 210 206 180 167 169 173 167 183 171 143 99 69 47 48 43 41 46 61 68 69 82 70
163 141 140 131 118 120 114 120 138 132 124 148 140 166 171 157 175 187 175 154 163 185 185 164 176 182 172 172 165 139 137 112 90 85 75 66 68 67 50 38 49 80 93
189 173 167 158 139 132 118 121 140 145 176 149 153 149 178 208 180 190 185 195 211 169 158 165 182 208 206 163 170 151 150 159 143 129 114 90 77 75 85 99 75 53 85
203 168 164 160 152 154 155 159 162 162 169 167 167 166 167 174 170 201 194 153 166 148 161 190 211 236 204 166 156 107 147 180 171 144 131 111 109 114 94 108 95 87 35
186 167 172 166 162 159 154 154 162 156 144 150 160 161 166 173 178 179 196 188 149 130 187 241 262 255 229 185 166 127 149 160 145 124 97 83 69 61 47 32 24 43 74
183 164 179 159 151 148 154 160 159 155 157 163 154 151 143 147 155 167 156 152 168 148 223 285 258 237 242 179 168 168 148 158 140 113 100 70 44 37 44 48 46 42 55
196 213 199 187 144 141 145 159 161 156 159 152 153 165 152 141 152 148 158 175 167 150 183 209 205 236 191 222 168 139 115 118 110 103 91 80 58 61 60 51 46 50 54
227 223 188 131 119 116 137 153 147 144 164 165 157 147 145 148 156 148 163 165 172 153 136 219 230 191 188 173 163 128 106 104 120 99 93 92 139 178 167 85 96 81 79
208 149 150 156 157 168 171 161 144 153 156 164 163 155 143 141 143 154 165 144 149 159 159 235 278 202 193 164 142 102 120 111 115 123 93 78 83 133 159 177 148 140 165
219 157 147 159 167 181 177 155 132 138 148 152 160 155 155 146 140 146 150 156 165 158 150 163 193 191 178 158 126 106 90 81 80 63 55 60 76 108 129 140 156 180 179
247 201 182 167 168 171 174 167 145 159 129 144 148 158 168 172 177 163 155 157 140 136 134 157 184 170 158 121 96 69 58 44 56 50 57 79 74 94 97 123 144 146 139
159 169 171 180 173 167 175 183 193 192 213 222 206 191 175 175 168 166 165 156 135 123 135 137 139 124 95 68 43 47 51 64 56 67 75 92 92 102 123 118 122 138 140
155 160 166 165 164 162 155 167 200 221 236 238 228 212 204 183 163 158 150 130 107 103 108 105 97 86 77 47 56 81 92 92 80 84 92 103 103 102 120 117 121 123 132
146 142 140 134 127 126 139 150 177 184 207 213 206 189 177 169 177 144 118 115 104 90 72 83 86 91 78 76 72 76 84 86 80 93 86 82 80 83 93 98 102 101 93
133 133 124 122 127 135 127 125 145 182 193 188 195 186 181 171 148 128 119 100 74 63 71 81 83 84 86 94 88 75 84 87 70 78 90 63 80 72 68 63 69 73 70
128 125 121 129 132 136 118 133 158 206 205 182 174 155 142 120 103 93 77 86 89 98 88 73 77 72 81 80 78 81 84 80 74 61 76 69 74 72 64 68 62 68 66
113 116 115 123 145 141 148 169 175 196 180 156 129 113 109 80 56 53 72 74 75 79 80 86 88 86 87 84 76 74 72 68 62 73 79 86 79 77 65 63 49 65 69
115 110 114 126 136 139 133 136 134 159 144 115 93 83 69 48 50 48 61 64 62 63 63 69 72 78 79 72 75 91 90 94 81 95 89 90 88 87 75 76 63 62 66
116 131 122 117 95 116 107 111 116 130 99 80 64 52 48 34 40 43 57 60 61 46 54 70 73 70 77 74 90 89 89 96 86 107 82 100 95 103 97 77 87 81 81

GFSMA_con_3kmhel_072.txt.gz
Helicity
56 65 34 35 28 30 26 27 35 33 23 27 33 38 43 38 39 52 59 57 62 59 62 58 67 69 76 66 68 65 53 45 41 39 40 40 42 50 53 50 47 50 52
73 60 48 34 26 31 29 33 39 41 34 44 34 44 40 43 49 56 74 75 69 70 67 66 55 48 56 71 89 73 59 51 47 39 36 35 36 43 44 42 43 49 49
85 76 61 49 31 29 38 39 45 55 56 62 54 55 60 58 64 74 88 100 91 75 81 73 65 45 40 47 58 63 69 78 61 55 45 39 37 33 35 38 46 47 48
96 84 71 59 47 52 57 60 65 66 60 60 63 62 74 81 81 81 91 103 106 106 91 85 88 77 60 42 32 18 25 44 83 73 66 58 49 41 31 34 40 41 43
96 101 84 64 61 66 65 72 72 78 76 75 80 79 78 85 83 100 83 91 100 102 104 106 93 87 76 57 36 20 5 4 34 51 78 75 66 53 43 35 38 41 41
98 94 87 70 73 81 75 83 75 77 75 76 78 87 94 89 85 88 98 116 130 120 101 108 109 110 85 71 65 41 25 22 22 26 33 64 76 68 56 54 47 39 34
85 87 83 71 75 77 72 79 94 91 91 100 101 103 96 91 98 102 107 81 89 108 145 140 149 143 126 149 124 104 82 75 66 53 38 24 42 68 63 56 53 49 43
98 98 82 75 74 72 80 94 102 105 101 101 102 88 101 109 126 107 117 105 103 142 178 157 164 170 149 167 175 166 138 91 67 49 47 54 64 35 37 49 54 66 69
110 104 108 105 104 111 111 116 127 110 93 111 149 138 117 108 111 119 172 162 158 174 171 198 184 183 193 181 176 155 140 119 95 75 61 59 73 77 73 58 31 69 85
172 170 188 161 136 127 116 124 136 136 152 122 118 155 172 206 152 149 183 154 179 182 184 192 205 217 214 203 194 179 155 157 113 99 109 92 81 85 103 124 138 114 37
194 172 174 169 164 150 142 143 139 149 169 169 169 157 161 177 187 205 171 170 176 180 182 188 227 249 232 201 184 191 193 119 78 114 101 88 81 93 92 96 84 85 118
180 167 172 160 154 150 139 148 174 158 151 160 163 161 170 171 186 206 212 194 173 180 219 247 276 259 227 209 185 201 172 142 140 121 105 72 45 38 35 45 39 37 49
224 200 169 143 149 148 158 169 136 123 130 149 148 157 171 172 184 183 204 185 183 164 199 267 249 236 206 163 188 193 161 142 119 121 89 60 48 31 20 36 44 47 51
215 200 160 140 142 142 137 172 118 120 134 138 140 158 168 165 177 174 178 171 190 165 229 219 242 247 194 186 188 169 145 123 110 99 72 66 95 108 37 59 60 67 83
182 185 251 411 320 195 154 153 140 126 155 160 145 153 163 151 148 156 156 154 154 186 164 219 212 215 207 213 181 139 125 107 118 89 77 97 110 135 207 187 167 123 98
243 235 245 207 252 191 148 125 111 140 150 143 153 150 147 144 138 140 151 149 160 170 166 197 213 233 235 222 160 132 110 108 120 90 82 81 76 83 120 146 163 164 190
357 308 245 198 192 187 166 163 154 148 146 127 133 134 131 144 140 149 152 163 161 161 168 208 208 199 196 158 127 111 85 91 80 83 68 59 56 72 90 97 111 130 154
249 225 197 197 178 179 185 183 169 161 134 126 122 133 139 158 164 167 157 166 153 155 177 177 187 169 135 126 112 102 91 80 80 68 60 60 50 73 71 79 111 119 126
213 195 169 149 151 167 187 186 166 159 166 180 192 172 170 169 162 151 151 141 136 137 153 154 169 168 148 110 76 67 70 78 74 82 82 86 80 89 98 85 102 108 127
158 146 138 138 142 151 152 153 158 161 181 192 197 205 197 192 162 153 153 142 148 138 127 138 155 145 110 84 67 78 80 98 90 87 81 100 105 105 106 93 116 121 125
133 129 142 138 127 120 113 119 134 143 160 177 188 187 178 178 176 166 145 138 127 125 127 126 115 102 99 95 79 88 91 95 86 96 77 81 85 90 106 92 99 91 93
133 132 119 104 100 100 81 98 122 150 170 184 192 204 203 194 160 142 146 121 96 90 94 86 87 91 88 91 92 89 97 97 79 89 90 74 89 86 85 74 79 82 84
128 117 110 107 95 89 80 77 97 168 188 183 177 172 177 177 151 136 124 154 111 85 70 68 79 76 83 76 93 94 94 95 86 81 79 84 95 85 77 78 74 85 88
109 119 114 112 118 109 90 103 153 200 203 197 170 138 138 127 109 90 85 89 69 77 84 82 85 81 86 85 83 74 86 91 88 84 90 104 101 83 79 73 56 79 92
119 112 123 117 123 108 99 98 155 177 169 158 123 102 94 86 63 55 59 60 55 77 72 77 77 86 79 70 65 88 91 101 87 92 104 106 102 91 84 82 78 96 97
105 118 118 121 101 112 87 86 124 141 138 128 104 67 41 52 38 42 50 53 60 54 63 72 78 85 89 72 64 66 86 90 86 109 93 121 113 111 111 87 90 105 97

GFSMA_con_3kmhel_075.txt.gz
Helicity
43 51 42 44 39 39 35 31 27 24 22 25 32 39 36 38 42 52 57 42 51 50 43 43 56 51 53 57 63 60 56 47 38 32 29 29 31 33 33 35 33 34 38
71 73 55 44 37 39 40 37 33 26 24 31 27 31 36 42 48 53 70 72 69 64 50 42 45 28 40 60 57 71 58 49 42 38 36 36 30 29 31 29 28 26 29
78 90 73 56 46 46 41 40 37 43 41 44 34 39 44 46 52 56 80 92 80 63 56 45 49 49 38 37 38 43 49 62 58 55 54 44 39 32 26 29 26 28 27
95 94 90 71 64 63 60 61 62 58 55 55 52 45 56 64 64 67 69 78 96 102 90 70 75 75 55 39 28 21 15 31 38 59 65 63 55 49 37 30 27 26 27
95 123 104 79 80 80 67 66 67 71 67 63 58 60 54 60 64 68 55 81 91 112 121 89 73 85 80 63 35 29 25 31 50 37 33 67 66 55 52 43 32 29 31
92 116 106 93 91 90 72 69 63 70 72 62 58 59 63 63 70 78 78 87 86 88 104 101 97 119 102 92 61 47 30 38 59 66 37 17 42 71 60 54 47 42 35
116 118 96 100 90 84 69 65 83 68 68 76 80 69 80 66 76 80 87 82 94 82 88 100 134 155 137 129 92 90 91 97 91 88 76 48 44 21 65 62 55 52 44
122 135 109 92 86 84 65 74 91 99 88 88 83 90 70 72 91 68 89 92 113 127 115 132 137 151 157 164 153 162 143 102 93 74 67 57 63 70 93 31 43 55 63
130 118 106 95 94 90 81 90 101 97 83 94 105 106 92 88 94 107 123 143 145 138 158 180 192 200 200 168 165 167 149 133 114 89 59 43 59 79 85 95 99 37 41
119 120 101 108 103 100 90 100 103 105 123 99 117 146 174 195 141 123 129 147 179 155 180 211 221 226 220 199 202 191 170 141 138 119 79 35 77 109 116 120 114 121 120
148 173 176 146 116 114 106 95 116 100 111 123 144 149 155 170 171 196 146 146 171 185 221 229 234 231 229 222 215 193 176 163 129 117 90 83 74 54 62 78 84 79 109
100 128 149 169 173 155 134 99 103 115 111 131 149 140 144 136 138 163 179 168 150 159 213 248 256 250 221 211 199 189 160 191 180 113 91 58 41 40 31 24 34 57 73
215 115 132 142 157 178 142 128 143 155 152 146 123 108 129 148 175 165 169 160 168 161 192 227 238 234 216 194 193 186 166 165 114 99 78 63 33 42 34 29 35 46 59
249 252 107 123 152 163 151 207 197 172 144 114 90 108 136 148 166 165 165 148 140 151 215 211 216 218 214 202 220 168 182 192 112 103 83 60 82 95 123 42 50 68 73
202 183 161 125 117 139 155 160 149 108 111 107 106 112 144 162 160 148 138 140 166 160 149 193 193 204 223 187 186 155 192 155 99 103 109 94 108 120 177 231 185 154 147
203 215 203 277 272 203 158 135 122 106 90 96 130 148 156 147 145 141 134 146 149 155 160 183 204 203 194 203 183 164 167 105 87 90 107 97 105 108 111 131 122 116 112
272 294 290 288 260 238 180 160 146 145 137 134 153 162 152 144 136 142 146 158 159 170 155 215 185 203 219 195 169 127 100 82 80 105 99 87 65 77 97 121 93 93 112
228 250 241 245 228 187 165 169 154 129 120 129 134 143 131 151 157 176 160 155 155 163 170 177 188 204 193 175 129 95 66 78 88 95 82 73 68 89 99 103 96 107 126
241 222 220 207 180 157 167 159 149 139 142 149 155 152 159 153 159 177 175 165 157 143 154 152 173 199 200 149 122 93 75 90 94 96 89 89 87 97 105 95 89 101 119
188 186 178 165 157 156 155 148 144 143 148 158 170 178 177 171 164 165 171 167 163 147 142 160 180 187 170 144 120 72 66 93 87 90 93 104 110 118 114 101 104 113 124
173 167 162 148 136 130 117 105 104 111 125 143 152 159 160 161 161 165 166 158 149 150 150 155 162 156 146 139 98 68 88 96 92 89 87 94 91 100 120 113 95 96 99
143 133 125 115 105 94 77 60 60 77 115 143 153 168 190 192 181 173 155 141 129 137 120 113 126 132 118 89 87 90 99 96 82 95 94 86 96 94 95 84 71 81 83
126 102 93 93 84 81 68 62 50 81 101 143 156 163 169 182 178 188 176 166 153 133 125 87 84 66 73 74 99 103 95 92 86 83 85 78 93 87 86 82 77 78 90
112 105 87 82 84 73 64 64 88 127 129 165 162 155 153 138 139 132 123 118 118 108 109 88 83 68 75 94 101 88 81 99 95 91 84 76 85 81 84 73 73 77 90
124 101 95 84 81 75 71 89 145 127 129 126 134 136 126 113 87 83 90 84 77 74 73 85 99 98 81 82 83 104 101 103 91 88 85 87 88 86 84 83 98 112 109
124 102 100 92 69 77 70 72 112 121 117 113 127 122 92 87 58 58 54 51 47 47 52 64 102 105 95 82 68 78 85 100 105 103 86 98 100 104 95 92 95 104 108

GFSMA_con_3kmhel_078.txt.gz
Helicity
30 39 38 44 42 46 41 39 38 35 32 29 30 30 29 31 32 39 47 35 39 43 41 36 38 51 45 55 57 65 59 45 36 33 26 26 28 29 30 23 26 33 34
57 59 58 50 47 49 43 41 38 36 31 29 25 28 27 35 38 44 56 62 56 58 55 41 41 25 23 41 54 44 66 62 56 49 43 34 29 26 27 19 18 25 29
71 76 78 63 55 62 52 48 41 40 35 36 30 33 34 35 41 42 49 63 69 69 59 59 56 51 41 27 28 40 43 31 39 56 58 53 42 39 32 25 20 22 23
90 98 95 79 78 73 71 63 54 48 48 46 44 38 37 38 39 49 57 57 56 74 76 59 72 56 48 48 21 34 37 49 36 19 38 56 54 42 40 34 24 22 22
108 123 111 101 102 95 85 78 67 66 63 51 44 34 45 47 46 53 44 57 69 76 88 81 67 58 58 42 63 45 39 49 61 44 21 23 53 54 40 40 38 37 31
112 134 119 107 119 117 96 90 70 64 58 57 51 44 41 40 45 45 50 60 62 67 78 77 84 74 58 87 80 72 59 77 108 83 69 59 32 28 55 48 43 46 41
134 131 138 123 118 103 89 87 91 69 57 61 58 58 53 40 43 56 52 41 54 68 78 76 91 99 118 140 87 105 103 122 115 101 91 82 74 65 36 26 54 50 49
155 142 116 106 119 108 92 89 85 87 73 67 68 62 69 61 48 39 76 82 79 75 106 131 140 153 172 177 173 162 141 131 116 100 87 79 67 69 73 55 54 38 60
103 130 158 141 108 97 103 87 78 77 79 76 75 75 86 64 67 59 56 95 96 99 120 145 174 178 196 197 177 166 158 146 133 121 100 87 68 79 83 94 98 101 101
154 113 104 149 129 103 91 89 89 92 106 114 97 96 100 117 86 84 80 95 120 143 144 154 177 206 212 209 185 174 177 171 157 136 131 108 89 76 76 120 115 109 106
140 86 91 108 120 110 112 79 115 118 115 106 101 103 100 122 126 122 113 98 129 137 164 176 199 211 220 211 204 203 208 169 147 138 134 97 83 55 45 49 52 76 61
110 126 78 62 106 56 75 65 113 109 118 162 141 112 115 121 124 132 125 121 99 109 137 165 185 198 201 196 201 199 187 156 153 140 137 67 46 38 40 19 21 37 46
186 144 171 212 206 197 132 75 96 140 166 117 107 107 119 119 127 133 143 136 140 119 123 144 175 199 210 205 196 176 189 163 146 147 98 67 54 50 46 25 40 52 50
206 205 172 208 201 233 252 183 143 135 120 112 96 91 93 90 121 135 144 141 113 108 143 140 167 180 185 198 156 198 169 186 167 183 102 53 42 67 112 24 46 76 77
190 171 164 170 202 162 165 183 149 141 139 110 98 94 91 87 120 142 149 152 138 125 115 154 171 174 186 186 184 163 164 174 144 134 79 74 96 102 144 196 185 169 173
209 244 226 207 251 222 218 193 150 145 118 111 121 121 123 128 138 145 138 139 146 145 151 183 170 187 182 179 182 178 165 139 150 87 61 76 121 148 150 134 120 126 152
156 185 195 209 198 231 235 200 178 178 140 125 140 136 124 139 139 144 143 148 143 163 154 189 194 196 207 190 170 185 161 153 73 9 70 95 88 101 95 115 101 101 114
203 225 247 251 217 213 203 209 202 175 139 141 143 133 113 128 125 149 159 146 149 165 172 157 175 180 188 204 184 154 143 103 65 76 107 97 85 95 90 104 109 100 117
180 203 221 215 206 194 195 212 185 161 151 134 136 141 137 144 142 146 154 165 169 171 174 177 172 173 174 188 177 168 127 99 73 128 98 86 91 93 92 88 97 99 128
183 201 212 210 209 207 197 176 162 151 143 138 137 136 136 141 134 136 142 144 158 168 177 180 171 172 183 183 174 145 113 89 87 81 85 91 101 108 83 100 108 103 110
188 192 201 201 189 170 145 130 112 94 85 99 114 128 138 140 139 142 152 152 161 167 175 176 182 175 173 167 138 112 92 78 79 85 74 84 90 91 97 97 92 97 104
185 181 179 167 156 140 110 90 88 69 46 49 87 131 158 169 163 156 155 161 157 159 157 161 169 150 143 136 136 89 77 82 63 81 85 82 91 85 86 87 75 82 79
164 149 143 131 115 98 77 69 71 75 57 51 84 134 148 159 167 182 207 218 207 186 156 121 121 108 98 69 95 79 73 76 80 71 72 78 89 83 81 82 86 74 80
149 142 124 104 94 78 68 72 70 94 90 88 106 131 137 126 126 145 166 170 166 139 123 100 86 70 68 45 86 81 75 88 90 76 73 71 84 80 81 76 78 62 78
166 140 129 109 92 77 61 61 106 96 97 94 113 126 123 119 112 122 141 132 122 107 84 75 75 75 77 68 81 109 99 90 72 63 72 76 78 82 83 75 91 111 94
174 161 146 113 80 81 63 48 100 105 94 102 113 118 111 128 103 98 115 92 91 56 56 55 80 80 86 89 77 79 75 71 76 75 63 79 79 92 86 75 76 82 88

GFSMA_con_3kmhel_081.txt.gz
Helicity
22 28 28 33 36 40 40 41 36 38 35 29 26 21 20 21 20 25 31 29 21 26 28 29 30 44 50 48 45 57 50 48 46 38 31 26 21 24 24 22 24 34 42
40 40 41 40 41 45 51 50 43 38 30 24 21 19 17 18 18 22 30 37 41 37 38 46 51 39 24 18 47 48 46 45 55 46 45 38 28 27 25 23 20 28 30
45 49 52 50 50 58 58 63 56 44 34 26 22 25 28 25 23 21 28 39 40 36 24 21 41 51 41 33 15 48 32 22 25 29 45 47 47 39 36 30 28 30 24
51 60 62 53 68 77 71 73 69 55 46 42 38 37 30 25 20 24 23 32 39 37 45 51 41 38 50 38 23 34 52 49 45 38 23 39 40 34 33 33 34 37 28
53 62 68 76 84 89 86 84 83 70 62 55 46 37 29 24 20 29 23 33 37 43 52 57 65 55 54 34 24 37 64 73 66 54 54 22 22 35 34 28 27 36 30
53 68 71 80 94 103 108 104 87 70 73 61 56 45 33 34 33 36 36 34 32 30 39 49 69 79 75 56 68 101 104 103 94 95 87 73 69 48 25 26 32 25 36
30 56 62 112 116 106 99 98 118 92 77 70 74 63 57 53 46 38 26 30 37 38 42 50 63 75 97 118 135 118 115 98 97 102 104 99 97 97 77 62 22 36 40
95 51 87 110 141 116 103 116 113 126 96 86 92 90 92 78 61 53 58 41 52 60 70 84 94 98 128 154 171 177 144 119 100 107 108 103 101 99 93 81 70 74 42
69 99 76 98 128 146 107 105 111 113 116 117 85 101 99 87 71 43 59 61 60 64 83 97 117 139 147 166 166 175 145 133 114 105 104 104 105 104 104 90 86 83 121
150 122 97 111 123 143 119 111 101 92 100 109 106 107 125 114 87 70 52 77 93 96 97 110 122 147 171 175 181 179 154 146 150 134 131 122 112 86 58 68 86 110 103
91 107 134 143 135 123 146 160 161 148 135 89 98 120 124 83 91 71 63 85 101 99 97 115 126 141 165 178 172 172 164 161 171 151 130 109 77 67 28 39 39 58 82
112 120 154 193 212 161 186 128 137 137 138 116 119 131 114 88 78 103 108 123 102 68 88 107 125 136 157 175 185 212 220 197 151 179 133 92 97 38 32 33 13 26 42
188 155 157 163 177 170 145 128 150 128 141 150 142 117 116 98 117 140 132 118 115 87 80 94 105 130 153 159 179 202 209 214 167 155 131 128 90 13 20 19 31 48 50
166 147 164 184 217 150 150 148 162 212 193 110 97 108 96 93 99 103 106 101 95 101 84 79 109 107 133 153 167 201 203 182 190 174 160 129 60 50 56 127 41 83 122
151 168 172 172 172 169 150 143 130 133 104 107 100 106 117 121 122 130 129 128 109 115 104 88 96 113 123 154 179 172 169 165 153 138 122 110 60 82 100 128 160 159 160
123 155 199 208 215 164 166 184 161 143 137 146 141 122 121 132 138 148 149 156 148 130 151 166 131 137 130 149 167 178 169 164 153 129 113 82 71 114 141 166 144 126 129
135 158 179 209 209 206 185 177 181 166 168 157 154 146 121 121 136 139 156 155 144 149 137 164 158 161 159 168 174 171 141 144 134 129 91 19 59 104 132 133 138 128 118
116 144 190 216 223 216 220 202 197 180 169 172 181 151 137 146 135 149 152 139 141 152 161 151 156 156 155 160 175 161 156 139 131 97 18 78 99 122 93 92 96 104 101
161 183 203 212 223 231 245 241 210 190 188 191 167 153 152 151 153 158 155 151 149 163 161 163 159 165 166 168 179 176 170 159 120 96 57 122 105 95 69 72 89 99 104
205 220 222 233 231 229 221 210 202 197 182 157 149 154 154 158 162 161 154 150 156 157 166 171 176 170 165 162 180 171 153 130 81 67 95 96 88 83 64 83 89 92 93
175 198 218 225 219 210 202 188 182 161 144 135 128 141 164 179 171 166 160 154 160 164 177 183 186 175 162 164 155 144 142 110 75 76 56 58 61 60 68 76 77 86 89
161 177 180 183 194 200 166 158 153 137 113 93 73 92 126 147 160 166 171 167 162 160 162 176 171 169 149 141 148 136 121 94 62 66 67 59 66 65 69 74 71 79 75
155 151 157 158 158 154 115 99 104 112 98 81 66 63 109 144 171 186 205 207 206 191 162 139 144 131 122 108 118 103 83 71 63 66 64 60 69 72 74 74 90 68 72
145 156 150 143 136 124 100 93 90 103 100 81 68 60 104 125 140 159 158 170 173 163 135 110 92 95 84 70 67 62 63 79 64 73 71 58 62 75 75 73 82 59 72
156 160 159 139 123 112 85 83 115 119 98 84 89 84 106 123 116 133 156 170 152 143 117 99 88 82 75 66 68 80 82 86 50 58 58 57 57 65 67 64 86 105 80
176 180 163 144 114 123 90 79 118 119 107 99 91 96 95 113 108 107 141 135 127 103 77 68 62 63 64 54 57 52 61 57 68 51 49 36 56 58 62 62 63 62 71

GFSMA_con_3kmhel_084.txt.gz
Helicity
4 13 24 31 35 41 38 39 36 36 32 28 24 19 18 18 19 26 25 48 28 22 19 22 29 37 56 42 42 43 48 53 50 46 38 36 30 23 22 25 34 45 46
43 45 46 46 46 48 52 53 48 41 38 33 24 23 18 19 19 24 31 40 39 26 16 15 11 27 37 50 50 40 42 41 42 39 33 35 35 30 29 26 31 34 41
53 48 51 53 55 59 56 61 58 57 51 44 31 31 28 21 21 26 30 28 38 26 13 17 26 20 28 34 13 45 27 34 18 15 22 27 36 33 35 24 28 33 38
59 54 60 58 61 62 72 73 69 64 59 56 50 45 36 32 23 19 24 21 22 24 31 26 31 36 30 20 7 26 52 46 21 29 27 14 31 32 30 27 28 28 39
53 53 57 58 66 74 76 83 84 83 81 74 68 57 52 38 22 24 16 21 20 22 22 40 39 39 38 34 24 31 70 79 43 44 57 63 24 17 26 29 27 24 29
43 53 63 68 76 86 85 87 89 94 96 99 96 82 51 44 40 32 30 32 19 18 18 23 32 51 65 55 49 67 114 113 93 94 86 90 78 70 50 19 19 20 25
61 48 61 73 84 76 75 75 94 122 131 132 135 87 67 58 54 40 34 33 37 34 42 38 45 61 83 89 108 136 128 147 118 87 97 99 90 84 78 70 53 63 15
55 70 62 83 82 87 77 95 118 139 141 154 141 148 128 113 99 65 44 36 39 42 56 67 69 76 88 116 167 178 142 118 93 66 85 100 109 102 89 81 62 66 101
50 34 57 101 91 92 91 97 89 87 118 156 114 157 147 161 154 97 75 51 35 40 65 68 82 89 100 135 144 170 189 156 99 83 88 112 131 118 100 90 72 70 63
39 50 77 99 79 97 122 131 128 152 132 108 132 130 124 123 119 118 70 36 46 43 60 79 89 99 111 131 168 190 177 158 140 130 139 154 141 113 89 70 60 66 72
105 93 90 108 107 108 159 167 207 252 235 168 177 134 131 82 90 67 50 2 12 52 77 83 92 108 121 133 140 172 172 156 175 195 192 153 108 100 77 54 19 24 58
64 75 88 81 140 176 191 203 265 200 208 189 150 105 103 91 79 109 54 10 15 76 89 73 89 107 111 125 174 215 224 225 194 184 162 150 128 90 79 70 13 29 47
17 -13 97 138 189 183 153 144 142 165 100 109 70 54 104 114 123 126 113 96 99 104 81 64 69 89 110 115 151 170 204 206 189 156 170 145 108 91 85 96 23 42 69
116 121 178 175 151 114 116 162 171 164 135 104 104 124 124 104 96 84 93 90 89 81 82 62 108 90 113 128 157 167 177 213 216 200 175 147 111 98 85 76 105 94 121
151 135 166 167 147 162 154 169 162 179 162 115 109 109 89 97 98 92 102 111 119 104 92 115 106 97 117 117 138 144 159 190 177 180 161 144 106 75 109 120 121 129 128
110 108 125 139 174 199 165 143 116 121 124 108 91 78 89 115 113 120 119 121 137 129 155 159 152 131 119 122 129 137 171 175 178 168 151 111 82 103 122 150 168 158 136
118 127 143 167 168 160 156 150 135 134 126 124 122 116 123 148 140 138 139 154 162 159 157 191 191 152 126 129 146 166 158 155 159 142 131 101 84 88 121 162 145 132 126
117 125 152 181 184 185 193 193 202 189 171 165 145 141 143 160 140 142 146 141 153 159 167 156 175 158 146 151 158 156 168 168 142 125 106 103 72 47 102 133 131 111 104
114 129 144 173 215 239 242 225 210 204 201 180 173 159 161 152 144 156 163 165 170 180 175 189 181 173 173 168 176 176 160 155 148 141 128 77 51 84 110 105 90 99 92
107 130 156 189 208 233 250 243 230 217 203 197 192 188 172 155 145 151 168 166 184 189 188 186 192 185 179 176 174 175 171 157 147 116 91 59 83 104 92 80 66 79 75
132 144 163 180 204 216 220 213 212 194 186 182 172 157 149 162 205 190 184 183 181 186 196 197 201 196 183 174 160 155 160 153 123 93 50 51 73 55 58 57 47 65 69
136 141 146 162 180 195 175 174 177 178 170 166 157 130 121 130 145 167 187 194 182 166 165 193 188 170 144 147 157 155 161 141 109 69 55 64 69 54 54 56 65 64 65
125 128 139 147 153 167 152 153 162 167 155 144 143 118 100 125 148 140 150 155 168 173 157 139 137 135 135 127 142 132 120 115 93 79 48 41 50 56 61 62 76 67 65
119 131 133 131 140 147 127 118 122 146 145 138 114 99 77 97 110 122 127 125 119 140 154 145 129 127 119 111 94 74 58 55 61 53 58 41 60 58 61 62 65 59 60
128 126 132 133 129 140 117 113 121 148 138 114 105 86 69 75 83 98 122 139 141 151 163 160 150 130 101 87 66 60 66 55 44 45 58 66 52 60 54 51 65 66 61
147 157 152 151 133 134 108 96 121 132 118 109 98 85 68 79 84 99 120 115 130 130 133 137 128 107 81 75 66 53 51 42 56 47 55 60 50 53 51 52 51 58 61

GFSMA_con_3kmhel_087.txt.gz
Helicity
65 53 30 16 20 23 29 31 34 37 27 22 24 21 22 21 18 36 39 46 33 21 17 10 9 15 20 25 47 46 40 35 32 36 42 40 35 31 34 33 38 33 41
69 60 45 39 44 51 51 44 35 38 40 36 28 22 23 28 24 28 27 50 43 33 21 16 15 18 16 23 51 30 50 43 43 45 42 45 39 30 31 32 32 30 32
50 53 59 62 56 53 49 56 57 59 50 45 40 36 32 24 30 23 30 33 51 35 31 20 16 20 20 13 7 11 34 39 28 31 29 26 36 39 34 29 28 27 26
55 61 65 62 63 63 67 66 64 67 64 59 48 47 52 43 33 29 40 34 35 32 41 39 29 25 18 10 0 2 45 51 33 29 7 20 19 27 28 28 28 27 26
71 82 82 75 55 74 57 65 71 68 72 79 74 75 72 52 48 37 38 30 33 40 32 34 31 33 36 33 19 12 38 50 53 49 47 46 57 38 20 18 22 28 27
83 81 84 78 62 73 60 67 63 76 83 83 84 95 97 75 56 61 47 55 50 48 40 46 37 33 47 56 52 42 91 85 88 91 95 88 93 81 71 66 25 24 14
78 75 81 67 71 80 53 55 68 83 101 118 126 109 138 79 74 70 69 65 62 50 56 59 60 62 78 63 88 96 112 108 133 147 130 108 111 119 100 81 76 62 64
98 112 97 90 94 78 102 81 86 110 120 119 168 143 123 104 127 105 93 85 76 64 39 54 69 81 85 138 152 154 138 160 154 144 121 101 121 134 126 108 82 67 59
76 74 72 80 103 164 165 123 106 107 142 148 141 175 178 178 178 115 133 113 76 51 46 75 77 93 107 132 124 155 178 170 145 132 113 112 130 141 141 113 93 76 49
40 58 78 61 70 85 75 92 111 111 141 154 179 134 191 223 246 176 131 84 51 29 35 62 68 99 103 137 157 198 188 175 150 131 136 147 148 138 124 118 92 68 45
19 43 63 84 100 57 20 4 106 104 137 262 265 283 305 245 248 199 176 78 30 1 45 46 47 120 108 127 142 193 190 181 174 169 180 170 151 135 101 82 78 53 41
32 -41 117 156 146 122 69 201 207 182 119 181 236 306 325 197 175 83 64 74 56 97 129 106 91 111 138 150 196 208 216 245 225 216 193 182 170 119 122 97 93 67 53
155 32 89 111 138 112 164 180 153 133 132 162 213 157 97 83 60 69 77 96 98 125 94 72 90 101 126 118 169 172 204 218 198 187 185 206 169 130 89 82 106 66 57
27 36 46 28 36 78 153 159 138 124 110 108 109 80 80 87 128 135 152 120 120 104 94 89 180 128 161 177 177 167 186 225 222 228 237 200 152 125 98 91 100 118 106
65 66 115 116 81 89 142 139 168 113 134 140 117 151 162 171 162 137 132 140 143 130 95 104 169 175 166 134 147 157 168 186 198 200 194 164 153 140 126 108 115 127 126
70 88 137 139 158 194 203 210 207 178 171 168 179 140 134 118 90 97 107 124 125 134 154 179 222 201 160 142 142 154 177 191 202 201 178 167 163 113 112 106 152 169 160
77 91 112 147 201 238 235 213 187 161 140 127 111 109 105 107 107 107 132 155 159 157 144 201 249 214 166 152 150 161 165 173 183 167 152 156 118 108 126 123 162 152 137
113 120 141 153 188 189 194 186 170 167 164 164 151 150 140 136 116 133 146 145 136 135 152 147 208 181 183 177 165 165 170 171 162 138 138 125 102 119 99 100 119 111 117
103 111 124 132 150 174 186 183 183 190 203 207 194 178 179 168 152 171 183 166 148 154 173 183 180 209 188 181 187 178 166 160 165 157 151 140 111 71 52 91 115 109 100
109 111 116 139 176 184 201 226 218 229 232 228 235 200 185 181 163 173 167 155 168 168 148 152 161 223 198 188 189 175 168 169 168 158 148 140 96 55 83 87 84 74 71
110 118 134 154 180 205 231 235 244 232 217 219 206 201 207 187 234 243 200 150 177 180 172 186 200 214 196 192 177 174 167 172 146 142 124 102 70 59 77 56 38 51 52
89 110 123 137 165 192 180 179 202 218 210 186 180 181 197 197 187 190 195 201 174 147 168 200 196 184 164 163 174 168 177 174 153 117 112 74 103 79 70 57 61 42 46
100 107 116 132 147 164 150 174 185 199 204 196 191 185 170 144 135 143 147 139 147 153 175 161 148 141 150 164 171 164 162 161 150 108 72 85 78 53 72 60 48 41 54
101 108 122 128 144 156 125 139 169 213 219 227 210 181 147 137 113 114 134 148 125 112 124 129 117 132 155 169 151 132 129 122 116 74 65 71 47 34 42 41 48 39 58
95 112 123 130 145 168 133 146 183 226 197 163 149 121 112 94 80 93 128 114 93 123 142 156 169 174 157 132 122 124 132 131 99 67 49 61 59 71 44 41 55 42 58
88 119 131 146 136 150 130 144 176 192 172 154 111 100 78 83 73 75 115 107 100 121 139 164 173 161 138 135 126 103 95 96 99 80 53 82 68 55 56 48 46 41 49

GFSMA_con_3kmhel_090.txt.gz
Helicity
141 110 92 79 51 39 7 26 34 26 28 39 26 34 42 36 19 51 51 42 38 28 17 12 12 10 11 25 38 41 29 34 34 33 34 36 38 42 37 34 33 36 36
146 94 105 70 43 59 37 56 53 56 48 39 35 45 34 32 38 52 67 56 42 34 28 18 14 12 10 6 2 34 27 46 47 40 43 52 47 44 41 35 35 35 29
118 135 143 124 89 91 84 70 54 54 64 63 55 41 49 43 48 38 38 68 48 15 34 17 14 15 14 7 -4 -3 18 25 28 38 27 31 28 45 40 34 28 27 25
113 134 133 112 95 84 73 79 79 79 74 67 81 54 56 56 48 41 49 55 64 58 29 13 23 16 13 13 -1 -3 29 47 43 38 34 35 21 18 34 30 32 34 29
115 129 106 84 73 79 93 87 87 85 72 72 71 54 64 74 61 56 64 58 43 78 59 16 22 18 14 23 24 32 53 59 72 85 105 104 97 88 77 52 36 32 29
119 127 121 104 95 96 94 90 80 73 75 68 65 72 101 104 93 76 64 61 108 108 88 76 38 27 14 35 33 52 61 91 136 144 138 144 119 111 96 92 89 80 58
125 119 126 114 105 101 93 71 80 69 75 77 95 101 107 112 91 75 81 130 112 93 85 80 60 58 48 63 59 86 108 126 157 153 146 145 130 106 110 113 98 94 88
106 107 104 99 96 98 89 95 87 93 82 103 106 138 143 138 88 143 157 157 150 92 71 73 77 85 96 105 106 143 141 163 163 165 156 155 131 121 136 134 127 113 91
114 126 126 118 115 134 135 143 146 144 114 112 124 184 194 168 206 204 207 203 144 117 79 92 82 98 113 101 113 150 176 195 157 138 134 158 148 128 122 122 114 96 88
137 126 97 140 122 119 130 149 136 123 133 131 135 109 165 246 296 312 284 184 166 142 107 89 79 97 114 117 117 145 170 169 166 146 131 190 147 136 144 133 111 91 67
201 163 85 73 83 104 109 73 81 87 99 82 158 111 315 330 379 422 379 273 201 87 65 83 118 148 136 143 148 150 165 164 169 173 183 224 172 144 130 124 112 87 74
177 95 26 60 111 93 146 116 53 24 26 79 97 270 226 329 242 311 271 214 100 44 56 115 149 150 145 132 149 175 195 241 240 239 221 222 191 147 141 118 103 82 77
118 115 60 80 104 109 214 206 193 83 91 179 180 226 189 365 219 118 -14 -46 14 52 99 102 116 136 135 155 149 162 185 200 210 204 207 289 195 176 146 109 97 115 107
66 97 52 160 115 69 156 142 184 207 172 299 146 171 122 83 72 8 53 80 89 94 101 124 142 165 214 173 166 167 169 199 233 262 294 224 185 180 174 121 107 97 105
-14 3 43 70 85 78 111 98 84 125 146 135 76 92 62 58 78 119 143 169 171 119 99 100 179 212 193 162 159 155 156 177 183 194 191 188 182 160 155 130 122 143 142
21 -14 94 111 100 95 136 115 64 132 124 118 146 140 157 168 161 149 124 128 128 119 114 108 186 215 192 163 150 149 146 155 178 182 184 176 178 153 179 170 158 141 146
74 30 21 54 104 118 177 206 192 190 182 221 200 174 162 139 125 112 119 130 128 143 130 169 203 215 196 168 145 147 134 136 147 149 168 164 155 155 169 159 163 135 131
84 67 63 51 92 150 186 218 232 208 188 157 166 168 132 128 128 131 145 143 148 155 170 152 182 190 184 167 129 117 127 135 140 134 146 130 132 149 137 136 111 87 93
86 94 101 93 101 121 158 185 180 202 189 184 179 168 157 176 167 172 160 149 143 148 156 167 201 202 187 172 163 149 138 141 147 149 162 153 142 138 121 110 60 88 96
93 95 90 95 99 112 133 162 195 197 198 192 195 197 183 185 183 176 180 175 175 164 172 176 171 185 177 164 177 171 167 154 148 148 143 148 143 121 99 48 67 78 70
95 106 109 118 131 130 147 166 187 195 223 231 222 208 198 199 199 194 186 166 172 169 174 160 157 174 185 170 154 157 157 162 138 144 139 134 120 105 92 62 68 56 42
99 106 111 116 126 142 134 157 188 210 213 229 218 204 215 212 210 215 246 252 186 189 178 177 185 192 175 161 173 175 186 178 152 139 152 120 109 101 84 80 54 33 20
109 100 106 106 115 131 113 119 139 193 202 204 202 205 207 202 186 197 209 220 206 193 160 146 149 145 140 147 196 182 167 171 149 131 135 119 101 82 85 61 39 23 29
125 108 98 107 114 116 106 114 129 189 219 219 216 214 212 188 180 192 193 186 175 153 138 131 120 106 117 139 165 157 160 166 167 133 105 111 71 54 49 32 24 23 38
108 114 112 110 111 120 99 108 153 223 241 238 231 222 213 197 147 127 167 147 140 141 147 133 134 153 137 122 150 188 176 194 152 102 71 89 52 60 50 42 36 31 48
95 97 101 107 109 118 109 113 157 229 211 205 199 183 134 163 111 90 146 132 139 127 133 145 154 146 159 149 139 123 136 142 138 112 49 90 68 74 73 48 40 51 52

GFSMA_con_3kmhel_093.txt.gz
Helicity
238 120 139 131 131 102 69 53 39 31 19 24 26 22 23 15 40 51 43 34 25 20 10 7 7 10 12 10 15 22 21 24 29 41 42 51 50 48 43 46 49 39 35
103 134 122 119 118 82 59 52 42 46 33 32 31 31 31 28 31 51 48 32 35 20 11 12 8 3 5 1 3 11 23 37 41 50 52 55 55 48 48 48 48 46 38
166 131 119 113 94 76 61 70 60 69 58 49 34 31 38 31 33 61 57 46 45 19 23 8 -3 -0 -1 -4 -11 2 24 18 48 57 60 54 50 47 34 40 43 49 39
166 139 138 117 114 125 99 90 102 82 63 64 63 43 41 40 49 35 56 60 65 42 39 15 15 16 11 -1 -10 6 20 49 65 66 58 60 59 49 25 33 44 43 41
128 152 157 151 151 146 128 117 104 99 86 83 69 55 50 48 61 66 48 72 67 70 61 33 26 24 14 4 2 17 30 36 76 100 106 109 113 93 79 73 55 48 49
111 136 167 150 150 142 117 118 112 103 91 75 65 58 53 53 70 71 67 77 95 131 93 96 62 44 24 17 23 22 32 43 114 131 125 122 127 104 88 89 105 112 96
103 125 153 148 144 124 108 105 110 95 81 85 91 70 56 82 89 99 107 133 159 166 115 93 92 88 78 78 62 54 69 105 123 132 151 152 148 139 115 113 116 111 97
82 139 134 146 144 144 117 120 123 130 101 100 96 106 107 126 112 87 120 160 198 142 117 110 118 111 91 86 88 106 102 101 147 174 160 172 163 150 116 125 125 115 105
93 93 112 154 146 137 134 139 137 126 128 112 149 154 115 113 129 169 179 237 252 200 138 128 126 101 84 92 112 131 152 174 123 137 150 181 189 164 135 119 111 99 92
131 138 107 128 142 158 153 160 170 175 180 188 205 174 181 175 163 210 304 293 268 220 207 178 150 111 106 107 121 129 127 122 118 118 122 172 181 142 137 128 116 109 98
222 241 144 79 111 125 111 119 139 151 144 175 184 199 198 185 182 179 332 522 415 347 238 159 147 125 120 146 137 115 114 106 121 138 154 174 226 168 159 120 113 116 93
188 179 138 171 127 100 127 145 135 105 134 181 157 208 175 181 191 363 276 520 356 279 208 175 151 84 115 141 108 123 127 158 168 179 194 200 222 156 141 126 110 111 115
187 191 234 240 165 114 79 122 177 191 173 263 366 252 204 185 263 328 596 263 145 82 58 30 86 130 144 113 114 133 136 153 159 156 160 251 196 173 138 137 127 106 99
53 73 103 152 103 147 178 156 152 149 239 238 307 232 195 185 222 243 178 294 133 -4 51 92 153 159 161 126 105 137 145 166 184 218 270 213 177 153 141 153 147 137 121
48 26 104 85 80 180 146 194 176 94 121 185 191 199 242 289 269 174 75 60 53 -0 64 124 158 174 176 153 134 134 132 148 162 175 177 177 169 162 154 164 159 145 123
10 44 14 7 76 60 76 123 89 94 75 104 112 123 141 148 65 56 75 85 125 124 108 154 168 190 180 194 163 148 137 146 143 157 170 162 164 153 154 155 149 159 138
82 41 23 74 100 119 88 90 137 157 108 95 90 53 87 138 162 146 182 191 140 149 163 193 198 202 215 202 169 143 116 125 119 124 143 126 151 161 156 157 150 149 136
54 55 50 53 59 63 74 74 94 131 153 156 138 144 137 157 136 162 157 128 133 152 174 180 215 222 208 172 158 121 109 126 125 120 124 127 144 149 151 150 152 127 102
65 66 61 64 64 85 93 105 118 128 143 171 170 150 167 148 140 157 133 127 146 172 179 199 215 233 216 216 178 139 116 118 130 131 130 133 141 145 135 142 141 94 59
79 76 81 86 89 74 79 97 121 154 172 169 177 164 157 164 174 195 188 156 178 192 215 219 208 211 200 188 182 153 130 133 122 130 123 127 133 139 138 132 117 56 69
90 86 89 96 96 106 104 95 109 126 145 151 142 137 143 156 179 206 217 194 209 220 226 216 225 241 226 216 169 127 127 138 125 128 137 130 131 127 119 111 81 52 53
107 110 110 103 107 112 125 118 129 147 152 164 177 163 178 189 193 183 168 193 204 236 231 250 242 215 199 171 154 150 168 166 145 144 155 133 138 125 110 97 65 54 24
104 111 124 124 113 112 109 112 118 160 185 189 194 216 217 209 207 230 213 210 185 178 219 239 221 193 181 145 165 167 168 168 153 146 162 145 138 120 84 69 44 32 21
103 117 124 126 124 126 112 100 108 147 165 175 184 190 207 214 210 232 257 261 262 255 231 210 178 143 142 128 147 154 165 177 185 166 145 131 99 84 67 37 14 23 20
96 109 121 139 142 134 133 110 124 164 167 162 180 192 192 175 146 153 231 243 241 237 213 181 154 130 103 111 143 205 206 215 172 138 125 121 92 89 52 39 32 25 39
95 81 95 100 110 128 143 153 137 192 191 179 188 204 150 179 139 135 223 226 216 212 234 233 195 166 146 118 110 153 177 179 156 144 85 127 105 74 66 56 56 56 55

GFSMA_con_3kmhel_096.txt.gz
Helicity
232 259 240 179 154 142 122 110 82 63 45 32 27 24 15 10 31 38 34 12 15 14 11 9 11 10 12 6 9 12 18 20 26 31 36 39 37 40 44 46 50 46 47
133 142 162 144 163 136 106 114 88 68 45 45 29 29 22 19 47 32 45 28 6 14 4 4 1 1 2 2 2 11 25 33 34 46 48 44 41 43 40 43 43 43 45
86 94 219 101 119 146 104 106 97 85 61 51 38 46 44 31 42 40 51 51 25 16 13 6 -3 -5 -5 -6 -3 -7 11 16 29 57 65 55 51 52 44 41 40 34 35
125 139 82 111 133 148 137 105 106 88 70 71 55 41 44 48 46 53 53 59 51 47 26 6 16 13 10 4 1 -2 0 19 40 62 72 69 70 63 47 31 37 34 31
138 177 157 108 116 151 128 97 109 115 98 87 74 64 59 57 49 55 71 67 63 67 70 43 32 34 30 17 12 10 13 20 33 75 92 116 120 95 98 90 74 64 66
174 206 188 136 123 137 120 131 134 125 123 108 97 85 75 66 60 65 66 80 83 90 77 70 89 85 49 44 55 45 24 20 32 95 122 151 139 131 119 107 97 103 100
203 191 187 174 159 147 129 135 166 147 120 126 139 103 86 69 61 60 65 102 105 154 146 138 128 117 105 114 107 86 68 62 99 122 148 152 139 137 135 106 96 95 95
177 160 170 183 182 187 169 165 166 181 148 151 161 159 129 116 86 86 86 136 151 218 176 164 127 116 108 112 118 116 111 80 104 148 144 136 141 144 139 109 82 84 82
146 98 106 134 165 182 169 162 159 162 155 163 163 178 176 160 137 164 133 121 181 227 220 197 149 141 131 121 110 117 124 142 115 116 117 119 139 138 126 96 85 86 80
88 86 101 122 107 142 159 162 155 165 198 185 206 179 169 128 156 182 163 190 236 242 264 225 194 198 142 120 96 99 110 114 104 88 95 95 138 148 143 115 90 88 79
51 111 190 87 125 178 144 151 182 183 199 219 255 261 223 198 205 201 168 202 309 318 272 354 253 307 193 143 111 104 122 112 97 97 81 103 162 183 140 111 91 94 94
146 105 117 82 141 125 140 85 156 184 165 192 170 218 249 299 226 266 247 228 229 275 397 338 332 234 198 157 116 128 144 141 132 131 118 154 230 179 145 121 113 89 84
173 220 190 168 184 181 105 90 120 122 120 110 120 201 242 263 381 382 427 507 396 546 609 461 337 256 173 123 145 124 105 127 139 150 143 192 199 167 154 126 111 88 87
98 284 209 258 235 188 61 51 107 153 112 100 133 172 211 221 291 328 352 439 410 455 681 365 208 167 120 115 110 113 114 151 177 175 215 224 178 152 125 115 119 122 126
116 104 81 19 55 60 124 202 189 164 173 130 183 221 219 248 310 356 362 342 354 384 211 251 114 140 156 144 121 121 120 139 153 168 177 171 155 144 136 121 122 135 123
85 95 181 102 133 66 62 125 157 187 194 237 194 119 152 234 228 214 198 156 225 388 452 247 131 156 159 161 136 141 125 131 122 131 146 153 139 131 138 146 146 146 141
12 41 36 27 25 45 89 106 96 113 113 83 116 101 107 137 125 93 69 47 39 89 75 109 148 176 186 185 181 174 156 133 134 130 103 127 145 141 146 157 159 141 154
46 44 43 44 45 40 42 63 81 102 117 141 151 137 111 129 100 116 115 101 162 182 193 192 208 186 188 181 186 176 152 128 115 101 94 102 134 135 143 142 145 142 138
66 72 76 75 81 88 85 77 72 93 107 113 120 159 136 161 126 143 144 197 207 228 197 196 196 228 245 239 240 204 167 135 115 110 111 103 109 103 109 145 160 147 148
65 73 67 67 83 99 104 105 109 110 120 140 166 168 159 204 149 183 247 201 240 179 188 227 245 260 244 236 249 226 187 153 122 129 112 114 125 131 113 139 138 129 120
82 83 86 102 102 89 92 113 113 116 117 110 132 155 175 169 158 191 227 217 227 237 271 278 283 290 276 288 256 200 181 165 131 137 129 122 137 152 142 132 119 99 70
60 93 127 136 138 129 147 138 116 123 127 125 126 122 120 123 131 126 143 188 214 268 268 294 293 261 247 254 269 245 221 192 153 137 153 124 148 131 133 137 107 77 60
38 51 79 103 143 153 180 191 178 138 135 148 157 173 158 147 146 173 175 170 194 196 256 240 237 251 223 240 236 237 236 203 155 142 159 138 149 144 140 118 88 58 46
54 58 67 78 96 122 177 190 205 184 165 148 153 167 201 192 183 193 233 226 199 202 209 190 186 221 200 193 216 209 182 196 202 178 178 153 149 151 123 96 57 31 26
78 77 71 66 66 90 162 190 191 168 182 181 157 155 164 202 185 187 228 209 240 257 239 214 174 163 151 160 209 271 252 236 202 161 166 157 135 143 111 70 42 22 23
50 12 32 52 68 86 134 150 165 141 176 184 195 176 138 162 158 171 234 240 243 233 256 288 259 214 185 166 127 179 217 212 222 168 137 163 154 132 119 69 61 50 63

GFSMA_con_3kmhel_099.txt.gz
Helicity
206 211 186 182 166 182 158 171 137 114 93 69 49 39 33 28 23 31 33 9 0 -2 5 9 9 7 2 6 7 6 10 12 16 21 27 31 36 36 40 41 43 44 42
185 241 214 220 232 179 152 145 129 103 87 80 48 36 24 29 29 33 39 28 7 -1 -1 3 5 5 0 4 4 2 14 19 25 33 37 40 44 41 44 39 40 43 41
175 178 160 165 201 151 147 146 122 112 97 85 51 44 38 30 42 43 39 38 35 8 4 9 1 3 -1 -3 -3 -8 0 11 10 27 41 44 52 50 52 47 44 39 39
186 180 151 141 170 170 94 132 121 109 91 82 68 51 53 47 51 55 56 57 57 47 17 2 12 18 12 11 9 6 -1 13 18 35 44 61 72 72 63 53 50 38 35
146 114 169 177 127 220 228 117 108 137 99 76 72 72 70 68 67 68 59 63 65 57 56 28 32 46 36 38 33 29 27 22 35 40 70 79 113 112 104 106 87 78 81
150 170 147 141 159 134 109 175 78 131 108 83 93 90 87 83 82 81 76 72 81 78 80 70 68 76 77 72 55 61 56 45 35 56 98 137 139 123 106 97 93 79 77
138 119 164 172 187 141 164 136 108 100 105 99 146 127 109 98 88 77 77 82 80 81 111 119 121 108 142 130 116 99 91 80 67 95 145 153 140 131 109 102 90 73 55
83 89 98 122 194 254 156 180 199 158 127 171 175 163 132 142 99 90 96 91 79 96 128 166 174 146 138 134 130 121 116 102 90 110 145 154 145 135 126 101 82 53 52
91 118 83 150 208 231 229 197 182 204 167 193 217 205 189 163 152 178 132 114 102 145 171 180 200 180 165 142 129 122 123 135 111 104 129 133 135 136 130 113 86 66 59
77 86 64 106 165 213 195 217 209 193 200 176 254 220 225 197 178 186 209 170 154 186 225 242 237 203 171 165 132 122 123 128 111 97 100 84 102 134 124 117 98 82 68
141 106 88 198 167 222 185 179 176 159 176 193 247 287 280 278 263 249 190 248 200 200 213 276 292 256 274 185 188 155 111 107 96 106 91 65 101 184 155 137 108 86 86
113 113 49 136 108 123 143 145 146 132 123 154 200 250 256 266 231 242 256 209 202 167 268 341 421 408 345 400 282 163 168 134 92 130 93 112 172 240 176 125 111 104 90
154 132 57 81 134 125 78 75 66 71 73 114 149 167 195 201 240 202 263 195 271 385 455 472 484 478 440 456 335 202 190 206 182 147 148 164 242 203 173 151 135 106 101
165 136 119 118 139 192 188 171 153 111 56 130 166 127 147 166 217 209 214 298 354 435 513 583 552 492 443 422 283 227 196 161 131 106 173 217 200 173 152 141 126 116 104
131 79 123 201 212 147 203 171 164 199 145 83 91 105 128 109 137 156 233 240 299 324 450 500 562 500 492 338 155 139 123 139 161 165 181 180 163 154 142 133 131 124 127
134 90 118 84 30 35 48 100 151 191 119 114 127 109 133 175 167 178 242 278 354 369 407 532 513 455 259 194 140 138 137 136 118 120 130 143 155 152 137 129 132 137 127
-4 13 70 54 62 88 65 56 30 84 91 110 126 169 219 222 177 181 169 291 264 232 312 348 399 210 259 172 179 152 154 154 145 124 123 116 114 136 132 127 145 157 151
28 38 42 41 39 35 42 44 63 74 124 111 131 142 155 144 145 151 152 145 181 114 153 177 205 214 188 180 183 178 153 149 124 112 110 111 100 107 124 111 131 141 127
44 48 55 58 70 69 66 58 68 65 74 68 72 93 72 120 114 160 136 123 106 136 153 173 221 222 252 217 249 211 187 170 116 108 98 93 100 100 117 130 132 135 125
37 53 71 78 81 78 86 99 108 95 65 60 89 95 105 129 145 163 182 159 187 190 240 327 392 314 299 295 257 244 237 192 154 144 113 110 109 113 105 97 121 125 116
31 30 49 74 93 104 101 120 114 119 120 104 85 98 119 135 141 147 198 162 247 286 315 308 373 393 272 293 236 270 230 180 125 157 135 128 140 140 128 148 157 113 105
83 97 105 92 101 105 147 178 169 131 132 120 107 111 114 117 128 131 153 178 206 251 275 364 307 242 253 316 318 274 239 203 157 124 150 126 140 119 142 171 141 117 99
22 56 80 93 119 137 195 222 203 134 134 153 146 122 112 129 134 145 127 145 165 166 195 325 327 310 310 259 252 270 267 267 195 131 159 130 148 128 149 148 114 108 91
73 49 40 42 71 104 155 187 224 165 160 137 142 153 147 134 135 151 169 185 206 198 225 233 286 292 286 225 205 226 206 216 257 195 175 155 162 144 173 156 128 95 83
51 58 58 56 46 55 84 126 171 138 124 147 146 145 151 152 145 124 168 189 219 254 227 180 216 143 328 139 265 331 302 285 252 206 153 169 160 173 166 144 111 91 77
2 14 10 -5 0 -22 40 103 104 81 108 100 115 106 141 143 150 112 161 192 209 249 259 284 233 258 210 172 151 231 295 275 301 215 157 203 194 182 152 132 124 115 104

GFSMA_con_3kmhel_102.txt.gz
Helicity
152 173 204 210 186 194 183 168 176 142 125 100 72 63 53 38 26 24 24 9 6 -7 -12 4 6 3 7 10 8 12 8 10 9 13 22 27 34 35 37 37 40 43 42
122 149 189 200 221 187 197 195 167 150 115 113 81 58 49 49 34 28 34 35 9 5 -3 -7 -4 -1 2 4 7 5 14 13 16 20 27 32 33 39 41 41 40 39 37
108 155 207 224 232 250 199 219 170 170 140 110 82 62 53 43 41 32 39 44 38 17 10 -2 -8 -6 -3 -8 -0 2 6 10 12 21 44 48 44 48 46 44 48 41 34
127 157 223 244 222 245 230 226 210 190 146 115 67 62 51 52 48 48 50 58 58 53 35 14 5 1 2 2 1 7 21 31 28 31 46 52 57 61 72 75 76 65 56
140 166 194 235 216 193 220 246 215 135 155 112 66 65 65 61 56 60 60 66 64 69 71 47 28 21 24 28 23 23 27 31 51 55 51 65 88 116 124 125 118 95 73
126 149 176 209 198 208 170 190 225 242 214 99 66 74 77 74 86 72 68 76 80 85 88 78 78 70 56 61 50 53 42 28 43 66 65 96 120 143 147 130 112 90 68
129 126 137 182 201 184 103 85 160 252 182 106 80 78 81 86 91 84 88 87 80 83 89 90 106 104 101 83 91 82 66 52 44 56 64 118 141 158 144 131 105 84 63
120 133 136 153 173 199 162 159 173 199 177 129 152 129 69 92 122 88 120 108 90 105 100 96 115 133 155 176 142 103 79 79 76 84 105 125 147 149 154 128 113 90 73
120 133 139 153 149 164 175 200 222 213 264 283 171 235 136 110 111 132 150 138 132 133 118 127 145 173 183 185 150 128 102 97 87 88 90 118 128 153 158 128 112 101 97
139 149 141 161 158 161 143 169 216 199 189 225 209 253 286 205 122 135 163 202 171 158 165 169 177 193 196 195 177 153 140 97 125 98 106 85 105 136 129 115 113 105 109
114 145 148 91 129 168 121 142 205 221 188 178 224 240 262 243 205 151 130 180 220 176 173 200 226 236 232 221 246 235 158 216 155 131 97 94 98 116 155 138 125 121 111
82 112 131 151 142 123 137 260 240 198 233 196 243 211 241 242 231 263 227 212 184 194 187 231 261 236 282 305 297 322 252 231 224 208 140 153 159 211 257 162 131 127 117
87 76 94 83 167 147 139 237 238 233 238 145 205 176 184 225 256 238 245 188 175 187 192 198 250 345 309 400 387 386 328 310 280 239 159 195 254 284 224 187 146 142 132
112 36 75 118 153 144 158 179 253 215 252 125 113 112 105 115 170 197 196 178 189 170 148 196 197 297 379 459 453 424 409 349 359 185 154 255 222 227 197 163 152 137 141
158 179 163 114 111 69 107 153 175 302 287 290 117 137 137 138 137 157 167 192 181 115 111 166 299 373 478 511 530 551 428 305 237 170 230 179 206 190 163 143 133 136 136
152 172 162 201 105 153 41 87 59 182 245 282 223 169 166 99 134 135 151 173 161 149 139 273 349 409 508 669 669 571 385 255 193 148 168 168 171 154 142 133 135 127 125
48 -0 11 46 75 89 97 110 51 47 73 110 198 219 190 173 45 166 169 132 158 219 206 242 566 532 622 569 546 413 284 206 144 101 118 122 118 114 125 142 139 136 122
47 44 27 26 32 37 40 36 35 76 37 69 -9 10 96 168 125 165 205 208 221 160 228 343 402 322 320 399 331 222 216 169 139 113 107 116 104 96 111 130 150 133 135
33 40 47 49 49 53 57 60 66 56 35 55 54 76 76 121 114 127 128 153 209 208 204 276 269 240 250 170 205 249 203 205 164 115 110 100 95 88 88 125 130 133 122
5 33 39 48 58 60 65 78 66 54 61 63 60 57 57 44 102 143 118 154 174 222 208 243 235 254 241 219 275 297 267 253 223 167 131 115 112 91 81 90 115 117 115
14 27 38 51 58 62 79 116 95 79 77 86 87 73 85 115 119 96 112 128 143 184 256 252 296 343 397 492 431 379 316 286 212 199 174 173 179 164 137 117 141 120 126
9 14 25 20 38 55 114 158 138 100 100 94 87 104 111 98 106 133 125 136 128 182 194 245 355 408 328 305 337 540 411 348 229 165 194 162 180 169 146 140 120 120 113
9 16 19 24 47 76 138 148 144 102 106 102 110 105 92 115 126 107 117 122 107 131 173 231 210 292 354 444 507 387 355 320 271 183 212 162 174 147 150 135 107 112 103
28 15 10 11 21 68 145 174 185 127 134 127 123 123 114 93 102 126 123 119 125 136 159 201 210 207 260 387 474 428 248 301 266 226 185 172 157 137 168 155 107 115 103
-24 -33 -19 -2 4 1 51 75 110 115 133 152 158 138 130 111 102 92 97 121 131 151 189 149 190 210 264 197 288 462 414 313 322 210 170 179 171 196 182 160 160 115 88
42 48 44 27 14 28 23 26 41 -11 -15 49 121 174 179 205 168 138 108 99 119 128 174 227 233 201 150 181 230 221 398 274 328 219 170 272 235 205 183 173 158 147 126

GFSMA_con_3kmhel_105.txt.gz
Helicity
80 98 126 137 134 141 133 133 127 134 127 94 99 67 48 36 28 37 36 21 7 1 -7 1 9 10 9 7 3 -1 -1 6 7 15 18 21 19 23 29 40 45 47 47
74 74 93 123 158 192 139 145 129 139 125 129 108 76 57 46 36 29 32 29 16 13 5 -4 -2 4 6 3 2 2 7 7 7 16 19 23 29 31 31 37 49 55 52
39 48 80 106 140 166 147 145 128 185 158 159 112 90 82 55 42 31 33 34 36 24 19 4 -1 1 3 2 -3 -2 7 9 -2 12 33 40 38 41 38 41 54 78 73
56 57 67 81 122 164 161 144 193 202 200 181 98 104 93 79 51 36 30 37 43 46 40 22 13 10 6 2 1 4 17 36 27 17 29 43 60 55 63 90 116 114 107
46 69 81 87 108 152 181 164 202 196 184 201 218 95 96 76 55 49 27 31 37 55 61 45 40 31 22 17 12 17 25 46 47 40 47 43 56 78 112 148 162 143 108
72 83 81 84 110 135 164 184 194 232 248 194 208 107 86 77 63 57 31 44 42 48 61 58 61 52 37 40 33 26 30 40 41 44 49 66 103 131 146 163 167 139 110
60 57 78 72 110 107 112 131 143 175 199 213 245 175 153 101 64 45 41 56 46 55 62 75 92 79 81 63 71 55 49 48 42 48 61 81 124 139 149 147 164 144 117
53 56 70 104 104 112 124 134 139 144 184 175 183 256 265 134 46 50 69 76 51 80 68 78 85 82 79 90 96 98 78 48 51 71 69 107 137 145 141 157 170 134 103
65 58 61 81 94 134 130 163 175 162 143 156 217 194 298 227 44 53 80 126 104 134 122 103 108 96 89 96 116 112 91 70 49 73 100 101 121 134 145 154 180 142 128
56 49 65 81 85 137 122 155 213 228 216 189 210 214 213 276 247 178 69 121 129 119 145 156 118 132 129 133 123 163 128 94 69 74 95 111 137 150 139 157 147 132 129
60 61 69 72 112 140 148 147 158 211 237 222 217 232 190 169 167 182 73 81 107 117 160 162 180 152 157 205 197 176 149 127 128 117 102 145 133 137 144 180 138 124 124
48 47 56 68 85 117 111 144 136 158 198 230 248 272 241 264 197 189 163 103 87 53 131 152 148 212 191 210 211 174 151 177 170 143 175 147 155 142 139 229 149 141 140
56 80 74 68 95 95 80 111 151 167 170 230 311 324 337 272 183 185 156 119 96 122 124 123 174 189 201 182 217 237 242 205 270 215 187 219 235 174 190 272 170 164 124
139 155 146 150 136 96 84 139 157 117 141 234 281 399 366 271 249 222 142 85 120 110 138 163 176 202 189 202 270 261 334 308 275 256 259 243 348 328 290 212 182 161 152
209 255 170 146 166 193 167 89 125 134 164 202 199 232 243 248 215 193 200 199 167 149 171 141 132 133 192 257 277 346 428 349 372 424 431 458 399 342 198 184 162 155 152
180 176 253 170 127 130 156 158 145 93 117 169 293 251 321 288 313 269 188 211 205 196 224 190 151 191 189 275 286 379 477 494 498 534 477 364 366 209 153 149 148 152 126
85 84 79 62 77 104 100 124 99 103 105 70 38 117 248 271 296 313 200 148 143 136 135 122 207 223 266 261 395 464 517 626 546 471 366 289 197 135 129 143 145 128 111
119 29 24 51 43 33 21 48 61 32 34 34 95 112 72 73 166 198 244 280 220 137 6 116 322 277 256 270 358 444 652 640 505 358 289 270 160 135 109 127 132 117 116
44 55 61 65 81 74 63 71 63 57 45 31 30 17 43 84 50 99 142 168 162 131 184 242 347 289 332 328 381 439 434 404 350 264 210 167 107 68 83 100 105 115 119
30 39 48 44 46 62 64 82 96 86 84 86 72 66 78 67 53 42 94 79 155 170 171 216 280 309 281 288 282 305 271 274 287 258 206 150 88 66 70 78 82 107 101
-4 -2 22 45 50 57 55 79 82 90 100 115 117 107 97 105 111 110 103 105 113 84 193 208 270 319 350 328 240 231 211 264 292 264 235 169 153 127 118 86 103 110 96
-6 -4 -2 4 32 44 89 126 107 77 89 104 104 129 139 133 135 137 120 108 141 155 149 201 268 278 327 313 329 378 394 442 353 325 257 190 184 168 163 180 139 111 92
36 41 40 35 51 67 101 127 131 101 108 103 92 112 113 102 142 155 163 132 116 110 131 168 212 249 247 308 407 453 512 440 323 478 453 290 236 162 165 169 115 99 92
-11 -18 -17 -11 -3 6 34 65 89 66 76 100 119 144 139 134 137 169 160 159 156 136 125 129 139 143 197 227 308 386 458 434 598 507 440 389 277 172 177 161 113 109 100
2 1 -8 -13 -17 -26 -23 -13 -21 -28 -13 16 87 134 152 146 157 190 185 167 133 164 152 145 105 129 123 189 268 378 446 563 574 506 361 375 301 241 209 154 146 90 95
40 50 50 47 34 41 25 27 33 21 8 -2 7 49 96 141 239 252 261 208 178 128 123 195 177 137 125 190 213 272 420 405 554 594 518 575 423 338 301 159 167 185 162

GFSMA_con_3kmhel_108.txt.gz
Helicity
69 74 68 71 64 80 77 78 74 75 87 93 81 73 72 60 50 57 49 61 38 17 1 2 14 14 12 11 9 8 8 10 9 12 12 11 17 24 32 38 38 44 57
74 59 59 71 69 68 102 106 105 111 115 81 67 90 76 78 68 58 54 47 44 30 17 4 -4 12 12 11 9 8 5 6 10 12 13 17 18 27 35 41 49 56 68
35 34 51 46 48 62 86 156 111 122 91 108 86 78 79 78 79 63 65 55 41 38 40 20 7 4 3 3 7 8 13 12 8 9 18 28 30 37 44 51 59 64 83
19 29 34 37 40 46 57 83 98 115 104 154 127 106 107 86 92 61 72 69 63 47 43 46 31 20 16 6 1 -3 -0 16 36 30 30 45 62 56 59 68 87 97 118
32 28 42 59 57 66 70 88 99 114 135 161 203 245 151 93 89 80 67 60 58 56 54 51 61 55 40 27 8 2 2 28 49 41 36 48 65 64 75 97 114 126 131
67 40 65 60 77 87 71 77 91 139 141 134 180 179 151 189 136 113 87 89 59 47 56 47 67 63 61 40 26 13 8 20 45 42 35 45 61 80 98 127 136 150 141
59 -8 27 58 76 93 74 95 114 123 164 166 228 234 201 153 127 146 130 110 70 53 41 55 76 82 75 74 56 46 32 24 32 40 41 45 68 101 125 135 144 161 148
35 96 76 71 63 96 82 80 89 126 129 143 190 141 151 134 125 180 173 181 173 109 36 71 74 92 99 95 86 70 62 41 34 34 37 46 68 110 125 151 177 174 173
89 95 86 68 49 64 100 77 65 81 124 131 123 180 204 195 119 170 179 213 168 93 85 126 147 121 127 117 103 88 86 72 36 41 30 38 60 99 124 134 171 163 170
79 83 81 64 56 61 60 69 77 83 125 154 208 184 175 259 185 136 146 120 253 49 13 114 161 132 119 130 121 131 99 128 91 56 41 47 65 103 144 135 182 152 146
88 85 70 60 64 67 54 60 90 86 148 196 234 257 217 205 186 189 163 163 183 45 90 100 115 146 186 188 190 154 139 174 132 83 65 68 84 120 130 148 191 141 137
81 120 119 93 85 80 73 70 88 101 130 186 191 245 251 304 288 275 231 184 173 189 13 64 28 81 178 185 165 131 171 183 144 81 77 53 126 133 107 161 175 158 170
173 187 172 166 99 84 85 82 91 108 112 151 179 195 204 229 262 274 279 252 221 171 51 -81 58 77 150 158 148 167 161 159 103 90 90 109 147 178 155 159 178 248 165
167 176 183 171 191 181 190 167 127 86 105 164 145 163 232 212 235 281 369 328 299 255 171 17 33 76 134 204 177 130 173 119 111 135 128 151 143 224 191 222 228 260 200
213 179 184 174 192 205 173 220 135 170 146 105 130 115 166 164 292 399 413 485 379 335 204 141 30 27 157 205 193 217 219 131 158 148 214 225 253 327 359 400 309 285 201
213 228 241 237 202 215 177 158 185 138 189 187 118 84 106 179 262 282 247 202 247 218 172 157 197 62 80 159 162 226 205 189 166 226 255 339 418 466 492 474 325 276 159
98 185 119 116 144 111 130 160 159 131 170 152 89 130 110 82 74 279 263 212 225 246 228 208 233 213 198 187 232 204 235 286 282 323 395 521 476 470 425 388 295 223 115
112 118 135 151 130 89 62 68 89 73 89 103 70 79 85 145 94 101 80 220 327 283 232 189 203 263 247 227 199 233 217 308 311 373 491 525 492 381 343 325 315 181 82
54 71 38 35 39 52 64 66 69 85 86 71 51 49 45 21 19 32 69 99 58 137 139 159 149 380 344 279 287 228 332 331 376 450 507 411 378 335 326 282 237 114 86
36 44 41 49 53 57 54 82 85 82 90 95 100 86 85 93 81 70 49 35 40 75 126 115 138 275 219 198 208 251 301 373 436 445 412 348 301 284 238 178 107 55 105
23 20 28 39 47 51 46 67 71 67 76 78 87 98 102 127 126 124 96 88 95 83 95 117 179 239 258 213 261 269 244 336 407 419 373 342 345 302 231 82 45 97 99
21 14 20 23 29 29 53 70 74 81 103 112 105 101 95 108 130 154 166 174 146 126 133 96 146 94 103 184 250 289 339 359 307 250 289 318 309 252 186 117 68 93 86
20 31 38 40 48 65 93 107 112 89 89 95 105 109 112 113 113 120 155 186 196 202 170 145 138 156 154 172 219 328 362 350 284 341 349 307 327 242 221 197 116 100 72
26 22 13 2 3 -4 -14 -3 26 35 51 67 82 97 119 141 144 168 158 160 164 185 212 196 186 158 138 171 179 213 272 299 452 420 329 445 396 339 382 275 117 97 86
24 18 11 8 -9 -14 -33 -40 -35 -42 -63 -58 -25 40 62 69 143 210 205 191 191 189 196 220 224 183 187 169 158 227 252 353 438 455 461 500 476 503 481 419 236 84 92
52 56 60 50 44 40 40 50 66 47 42 40 28 23 -10 41 94 102 91 106 123 176 176 184 223 227 214 199 157 187 246 326 285 340 414 465 498 561 427 345 276 176 141

GFSMA_con_3kmhel_111.txt.gz
Helicity
128 99 76 103 90 88 81 93 93 66 70 69 77 74 75 72 65 82 87 85 79 49 23 12 21 28 24 16 12 12 13 12 9 11 11 11 10 12 16 22 25 30 41
171 143 122 113 101 96 80 80 85 101 117 96 88 90 77 96 81 83 80 80 70 73 49 26 9 10 20 18 15 9 8 11 9 8 9 8 13 17 22 27 27 36 48
206 170 157 103 84 81 70 76 89 116 149 172 131 122 109 61 70 83 103 98 80 60 67 43 28 11 8 6 12 19 15 23 18 13 15 13 22 29 35 37 40 47 56
146 247 217 85 76 70 70 74 81 130 118 134 106 111 163 136 101 106 101 94 100 92 76 61 62 39 21 9 5 7 14 23 25 20 18 24 36 57 49 45 50 60 79
185 188 212 106 53 56 51 67 71 83 99 104 142 116 133 167 156 140 117 106 102 122 113 80 70 68 64 41 16 8 4 20 28 41 41 33 39 54 55 62 66 83 98
126 124 126 97 58 39 45 67 56 79 93 106 132 142 153 167 161 197 144 94 90 120 117 99 113 99 74 70 49 24 9 12 35 44 46 40 42 44 46 63 90 96 117
96 105 119 108 159 89 69 54 64 69 101 112 129 123 117 129 123 157 119 149 174 152 126 94 116 113 97 68 77 66 40 17 25 40 56 45 42 37 45 62 100 109 121
96 94 87 63 84 82 45 59 88 82 81 122 149 145 149 137 160 161 187 178 131 164 170 138 141 126 127 134 137 98 86 46 29 25 42 46 40 38 50 66 99 111 126
100 122 76 65 60 59 73 52 86 73 72 85 131 159 159 157 141 123 144 175 193 199 160 148 166 169 163 146 164 166 116 96 73 31 30 28 38 34 47 75 90 119 127
129 140 113 101 83 92 92 71 73 74 74 87 121 136 119 185 177 141 143 128 106 154 157 161 170 174 159 92 182 170 156 129 93 46 28 39 33 35 45 80 110 148 145
178 149 127 91 92 95 83 79 75 86 104 114 115 165 159 142 178 246 193 156 171 154 178 157 209 162 16 71 153 165 207 171 99 74 57 61 46 50 59 89 99 174 160
231 228 209 214 175 140 110 89 82 73 88 107 122 140 183 202 191 221 277 180 164 139 152 144 188 239 53 134 160 186 161 177 131 98 78 77 55 92 71 98 125 173 171
150 192 183 175 170 160 151 159 157 162 99 99 103 135 156 195 195 221 229 189 221 193 182 227 214 230 178 152 171 128 138 186 172 143 123 69 73 55 81 123 133 185 204
154 199 187 183 187 180 159 171 159 150 164 130 87 108 129 150 216 230 224 202 242 210 234 239 213 248 220 78 60 134 197 161 153 105 116 105 55 45 11 104 166 189 197
199 225 207 203 196 186 172 200 177 178 192 155 192 206 200 99 146 179 231 245 264 203 243 255 300 405 294 247 71 136 164 133 121 119 166 85 108 86 92 140 155 188 270
195 194 225 191 172 176 190 153 193 165 149 131 179 213 190 171 182 153 125 191 222 284 273 365 321 332 326 262 136 50 162 132 117 131 145 151 195 119 135 159 275 311 303
116 160 144 155 173 140 101 178 207 189 156 149 143 123 140 182 170 155 105 94 125 295 280 156 181 242 267 272 251 138 88 121 174 132 107 166 189 190 174 276 402 377 394
107 102 90 92 121 98 72 135 131 127 149 116 52 117 89 71 101 91 89 147 -13 135 70 112 154 291 285 252 287 238 228 219 210 167 124 140 120 172 260 435 479 394 419
71 50 48 63 82 76 71 62 70 58 54 50 61 67 59 67 50 18 23 52 40 35 -41 27 94 113 148 255 237 234 235 195 207 145 160 157 103 184 338 472 464 404 392
39 36 45 49 46 64 62 84 78 82 85 78 74 72 74 85 80 60 61 62 41 9 -4 19 51 62 106 146 151 192 177 215 206 220 166 132 168 314 427 422 402 347 329
18 19 20 33 40 47 57 65 76 84 85 87 91 110 99 101 89 56 43 73 67 51 48 22 24 32 78 86 155 159 151 168 201 219 235 272 361 406 410 336 324 303 286
39 41 51 54 62 67 82 86 89 87 91 90 93 109 112 112 135 162 140 111 89 101 110 102 93 107 108 86 105 138 155 215 171 170 270 317 354 344 377 371 312 334 228
40 45 52 50 48 52 61 70 81 61 56 66 83 93 105 115 121 131 174 197 179 182 173 140 136 158 165 155 122 112 136 206 145 184 276 301 343 309 295 297 267 253 209
47 45 36 32 32 25 22 22 32 34 45 56 51 62 81 106 119 150 146 146 135 128 159 183 187 165 184 199 200 216 155 156 212 198 186 309 357 313 325 280 242 218 153
20 16 7 2 -6 -13 -23 -24 -24 -27 -38 -37 -52 -32 -14 28 82 126 104 108 133 136 102 146 195 238 237 228 196 192 190 203 204 221 216 315 363 393 371 358 283 223 195
13 18 15 7 -2 11 5 26 27 22 26 36 48 45 45 33 26 -2 16 24 17 42 109 128 108 97 130 151 177 190 215 245 220 225 216 257 358 464 416 416 464 356 288

GFSMA_con_3kmhel_114.txt.gz
Helicity
185 155 138 138 159 169 150 155 140 109 95 90 77 70 114 107 91 109 143 106 90 84 57 37 42 39 30 24 22 20 15 13 12 15 16 15 11 9 10 14 16 18 18
244 184 137 122 149 151 141 146 145 121 91 86 104 79 133 129 123 114 144 125 89 81 82 60 42 39 40 29 21 20 19 13 8 10 8 8 8 12 16 19 18 24 28
179 189 159 162 126 141 143 164 141 124 132 156 187 191 133 106 137 167 140 154 140 95 89 65 56 45 34 31 32 24 28 28 25 19 15 15 18 17 20 21 25 26 31
185 225 205 190 177 159 187 195 122 125 125 150 178 126 177 127 144 156 185 131 181 158 110 93 83 63 45 38 30 24 33 30 31 24 22 16 27 33 30 29 34 35 33
198 224 228 208 213 256 231 180 100 107 116 142 125 140 123 98 70 131 135 124 140 162 157 91 88 90 83 60 38 33 24 44 49 46 35 29 32 33 35 42 48 50 57
188 206 228 210 238 265 143 205 99 81 75 88 85 106 125 116 125 135 122 111 163 168 168 186 148 122 95 84 63 48 36 36 54 52 45 51 44 35 29 37 44 58 69
174 178 177 188 224 170 143 108 115 80 62 68 99 92 91 108 95 142 140 144 165 149 141 137 180 227 159 87 79 72 62 48 53 63 59 51 54 40 33 25 28 62 81
150 186 191 176 156 161 125 117 198 299 123 77 80 101 85 68 123 126 130 139 123 159 157 193 231 227 166 174 144 85 67 65 59 61 70 71 60 44 34 29 34 59 81
166 230 190 155 138 125 119 94 108 106 113 101 99 108 98 91 89 106 97 121 143 183 189 178 209 257 183 157 179 164 124 84 87 68 73 68 66 52 41 33 30 60 72
122 207 122 185 94 110 85 93 81 83 97 75 107 126 111 159 109 115 85 77 121 154 128 145 147 149 151 168 204 236 170 130 83 78 69 71 60 55 38 52 49 67 92
218 575 396 332 186 155 127 119 99 90 90 95 123 126 113 148 154 145 74 108 149 153 133 123 144 146 131 191 223 243 173 150 90 84 64 52 44 52 54 58 38 73 111
392 421 354 272 223 188 140 122 116 89 76 70 99 122 120 153 155 168 143 109 120 115 157 169 144 129 142 198 239 218 160 91 101 86 75 61 65 67 74 61 14 77 95
93 260 215 196 190 174 157 135 122 119 122 124 125 92 112 119 131 150 160 170 165 141 168 140 139 162 205 229 278 226 151 74 116 122 76 62 108 130 114 102 46 51 66
123 124 145 172 178 176 166 154 137 127 150 153 164 167 170 182 157 132 150 176 196 195 178 189 157 166 181 215 233 245 227 134 139 126 79 59 152 170 161 122 62 61 97
81 140 148 168 186 195 186 166 113 143 139 176 151 187 166 145 184 201 175 197 105 203 194 176 186 167 184 256 278 383 249 153 61 81 126 110 143 172 150 133 110 69 76
90 119 139 170 198 180 161 162 136 133 111 84 135 148 137 167 164 152 218 178 152 149 87 85 133 170 214 275 327 325 262 229 216 128 101 119 80 127 149 142 71 50 109
96 104 110 91 110 113 89 98 86 112 128 134 112 139 127 91 108 92 80 90 112 131 162 117 134 99 163 176 175 204 275 248 218 188 100 86 69 108 131 110 115 104 125
127 112 124 130 126 129 139 117 109 110 90 66 113 129 175 193 135 128 144 124 113 105 101 156 184 62 189 187 221 201 253 219 255 189 182 73 103 160 158 121 139 85 148
39 36 50 52 55 60 65 67 78 99 103 87 81 63 70 67 78 48 54 42 21 37 14 52 56 79 71 83 41 126 131 178 191 131 113 107 134 141 174 126 96 153 216
33 33 42 43 37 45 56 46 44 45 62 67 82 80 95 80 64 79 47 40 39 60 61 60 31 11 5 -12 64 108 127 95 141 163 112 113 111 110 103 105 121 170 278
29 32 40 46 49 65 61 46 48 46 61 64 66 67 83 96 108 117 83 87 60 51 56 62 63 52 67 62 63 22 87 117 109 112 128 101 96 96 86 77 135 269 385
37 47 54 57 64 66 79 76 70 57 68 73 78 72 63 75 94 125 139 171 129 84 78 85 66 66 75 106 112 128 111 115 64 22 82 119 141 135 160 169 250 373 398
42 40 41 43 47 49 67 70 71 44 56 65 73 78 90 82 82 73 93 114 121 146 122 92 97 124 129 135 117 89 101 122 130 131 71 130 126 163 233 277 262 259 245
22 26 34 35 44 47 51 51 52 45 53 66 70 78 85 93 94 100 85 74 71 74 94 103 100 85 80 100 123 113 128 101 98 101 132 121 130 189 216 247 221 250 252
38 37 38 42 40 37 7 3 35 50 48 42 31 19 21 15 26 55 54 57 65 98 100 89 75 83 114 135 126 119 133 147 170 122 94 181 142 177 249 250 221 222 248
38 40 37 31 -5 3 -21 -2 2 -11 -24 -18 5 13 8 13 27 32 14 -2 18 47 53 99 152 155 113 108 134 130 142 147 144 139 150 160 195 208 180 204 291 225 240

GFSMA_con_3kmhel_117.txt.gz
Helicity
126 119 131 168 167 186 174 174 176 176 152 129 113 113 98 93 88 107 143 93 111 90 70 55 50 45 43 44 40 35 30 23 18 18 19 17 14 11 9 11 10 16 17
150 164 214 203 181 184 195 173 171 160 153 156 122 106 112 101 90 106 165 145 116 92 85 71 53 45 40 40 42 42 36 29 22 19 16 14 13 13 11 13 14 17 20
159 182 183 183 168 164 167 188 171 181 176 163 149 123 118 134 121 100 154 191 150 107 99 78 70 55 51 46 40 40 46 47 37 25 20 16 19 22 16 15 17 20 21
140 146 181 171 173 187 207 188 183 187 186 196 218 183 171 153 134 136 197 156 161 165 116 79 73 73 66 50 41 43 56 64 58 47 39 29 25 28 27 22 22 27 27
125 165 184 197 202 235 239 213 226 219 188 177 151 106 145 258 96 78 150 124 105 175 187 114 95 87 85 80 54 44 46 59 74 64 55 44 31 31 30 22 31 33 37
131 152 195 188 213 243 256 260 232 200 200 151 118 124 107 97 90 75 37 31 90 125 141 160 158 122 98 95 82 62 61 54 71 81 70 61 53 42 37 25 28 31 44
126 164 174 220 242 250 235 213 230 208 141 131 167 100 121 115 103 109 121 83 57 62 105 160 177 199 156 102 96 85 69 65 59 78 89 76 70 69 41 28 32 33 37
87 127 168 185 205 217 223 219 218 200 133 145 142 129 57 89 117 97 105 124 125 119 129 130 161 198 200 184 151 106 84 61 60 51 77 90 90 86 58 41 34 39 46
117 61 113 192 219 211 197 190 182 161 148 132 106 140 152 123 139 157 78 94 110 140 130 132 125 148 153 169 187 137 115 69 81 66 69 79 86 93 64 48 43 44 54
116 51 49 84 207 239 250 189 161 160 138 132 125 133 151 152 106 103 126 89 73 81 99 126 125 130 158 200 195 171 125 77 94 73 68 80 78 87 72 62 51 41 62
42 38 88 -23 117 211 136 171 159 156 129 119 88 93 90 101 97 127 134 132 108 92 90 100 107 128 119 132 167 191 180 96 100 106 71 76 74 82 82 71 58 51 58
124 131 94 107 435 616 413 232 199 184 162 135 113 92 83 83 91 83 112 85 77 64 91 119 144 145 132 166 133 124 124 164 117 146 55 78 65 78 96 81 76 88 65
11 83 138 88 159 143 250 207 158 142 139 129 128 110 118 125 112 77 80 52 56 82 84 126 131 130 145 167 171 153 155 162 146 129 60 33 49 85 90 122 121 103 87
-37 61 116 244 340 94 82 93 126 138 129 121 139 146 164 166 147 191 169 124 50 66 80 123 131 131 119 160 142 136 190 163 150 118 130 62 56 96 117 158 156 136 121
35 80 37 29 57 104 120 146 153 169 150 120 128 112 127 163 168 164 165 186 165 102 75 80 66 44 98 101 140 165 202 177 214 188 160 157 98 104 109 153 141 123 110
90 60 44 72 87 99 111 131 133 149 170 150 147 132 118 110 106 121 181 232 148 90 104 171 127 162 126 115 91 105 160 219 207 180 190 161 247 202 122 127 144 168 181
47 37 34 49 70 84 91 102 103 116 92 92 71 102 104 107 74 85 47 121 234 109 136 125 116 107 111 150 159 114 144 176 218 182 132 140 131 173 211 132 125 167 182
51 54 72 82 80 102 79 85 101 119 125 126 117 86 104 67 64 36 77 89 70 147 59 48 93 116 134 90 152 199 103 90 119 118 103 141 125 152 203 127 181 117 95
56 58 52 59 67 82 64 53 51 75 88 85 99 97 79 62 56 68 73 81 73 98 131 151 113 120 46 30 39 83 145 155 188 87 121 88 103 50 150 201 208 133 104
47 48 53 49 50 75 56 52 58 85 106 109 114 102 89 80 101 87 67 55 76 69 64 48 2 -5 -4 57 55 7 38 4 88 124 114 65 89 64 53 72 120 99 170
55 59 63 67 75 79 80 77 64 69 84 94 90 83 83 106 135 125 92 101 100 93 80 50 15 26 12 28 34 73 68 44 -3 10 72 129 118 109 111 89 74 77 77
62 61 59 56 57 55 63 69 65 59 76 94 108 107 90 67 65 75 87 99 98 78 73 54 34 49 65 71 72 87 82 61 -30 94 40 71 80 92 101 115 102 75 76
57 55 50 51 66 64 84 92 92 69 81 88 100 119 136 120 99 71 68 72 79 92 90 64 48 57 58 94 61 71 94 100 99 68 54 42 51 75 83 90 80 84 36
52 49 55 62 71 82 90 97 89 87 91 96 91 95 91 101 112 77 74 85 84 80 74 68 64 73 59 67 74 68 80 84 94 101 118 28 47 86 105 131 135 122 172
53 50 49 62 76 89 84 79 86 76 72 68 60 57 64 66 67 71 63 66 71 105 105 88 88 83 88 93 94 75 109 93 69 87 131 101 75 40 92 126 173 147 141
62 61 68 67 73 81 93 105 86 51 45 51 51 47 38 57 64 48 39 7 12 31 63 81 94 119 115 109 116 86 73 73 84 32 116 165 158 163 56 39 132 205 202

GFSMA_con_3kmhel_120.txt.gz
Helicity
102 117 111 100 131 142 146 168 171 191 182 174 158 145 124 112 99 107 117 85 75 51 76 59 52 48 45 34 27 26 28 31 29 27 25 22 19 16 14 14 14 15 15
78 89 105 122 127 180 180 201 199 186 173 184 167 150 125 132 121 111 129 118 92 84 70 78 63 54 42 34 26 24 27 25 28 27 28 23 22 20 17 18 16 15 17
140 94 91 125 158 175 186 194 190 187 175 193 164 161 148 134 133 129 148 140 119 105 81 78 71 69 60 35 24 22 31 32 30 33 30 26 26 25 21 21 22 21 20
127 146 122 112 125 150 167 177 172 168 159 167 154 171 172 175 157 159 158 140 136 147 97 84 75 66 64 52 33 20 42 61 65 52 47 41 38 38 29 29 30 28 29
123 146 131 130 84 135 168 190 186 194 177 163 162 168 197 202 218 299 255 228 182 132 153 108 78 79 77 68 46 37 27 49 78 79 71 57 52 48 36 29 38 39 38
111 113 100 85 126 126 162 210 197 203 214 216 197 197 161 165 170 93 190 105 133 192 124 100 126 112 80 79 74 54 47 43 47 58 80 70 54 48 39 33 38 35 37
141 97 101 81 117 143 158 180 242 238 223 232 240 160 165 134 105 32 132 107 98 74 53 105 121 150 128 80 84 79 66 57 60 62 60 79 69 52 44 39 45 39 35
79 73 50 51 106 136 175 190 231 251 234 239 202 180 152 139 124 114 110 145 125 108 83 106 146 144 144 159 151 104 85 69 61 63 70 71 72 70 51 46 53 49 43
63 70 65 35 52 130 138 172 207 274 263 235 207 193 154 126 97 107 130 153 101 152 189 125 109 123 134 147 156 133 119 111 103 82 67 73 79 79 69 60 52 51 54
88 128 111 73 68 46 90 158 169 175 232 212 247 194 222 175 132 94 97 88 115 136 118 119 104 100 121 138 134 141 122 97 79 70 75 54 54 75 56 66 66 64 67
91 128 171 134 114 61 98 41 200 154 197 239 262 269 169 147 127 98 88 97 107 125 137 123 79 72 80 107 127 129 122 133 85 63 69 67 29 43 56 67 69 68 77
54 66 123 143 198 189 31 26 10 313 340 421 346 212 149 132 108 109 82 98 96 103 111 87 117 115 92 107 119 91 89 82 88 85 57 58 19 39 76 81 73 78 90
5 62 73 77 143 248 273 138 269 342 193 144 126 113 135 154 167 157 123 98 78 51 73 81 99 105 133 131 123 103 90 78 90 86 51 53 50 54 61 95 80 70 81
41 -1 44 26 79 150 172 183 164 120 137 192 110 100 108 146 162 192 167 127 82 80 79 58 82 179 217 140 153 183 81 132 131 136 96 76 93 96 89 119 86 68 53
0 -20 30 35 10 26 64 145 162 76 77 100 127 139 151 159 158 150 142 154 125 83 137 153 175 197 171 130 136 110 97 90 56 83 126 109 123 115 146 135 134 110 62
47 31 21 39 54 37 43 46 53 78 102 105 118 130 130 142 142 153 128 145 134 97 111 171 147 124 103 67 81 105 117 131 87 54 67 153 216 158 132 119 129 89 112
45 33 24 39 51 55 74 64 53 86 103 114 114 114 119 128 108 119 107 110 132 110 72 108 81 122 177 142 125 76 120 65 106 175 109 125 159 97 59 68 99 148 165
57 61 46 46 42 34 31 43 56 69 95 115 123 119 133 120 102 129 116 141 110 115 55 62 15 46 110 122 73 51 52 102 117 166 246 179 132 88 64 98 79 176 188
60 67 71 77 84 80 63 62 60 69 72 77 89 96 97 114 116 102 88 112 84 89 84 80 53 63 95 173 169 115 108 202 150 180 181 151 165 166 100 109 122 161 185
62 56 58 65 77 80 77 78 83 102 119 126 130 112 99 101 94 92 97 102 94 78 93 85 75 47 47 76 94 77 85 86 65 133 116 164 204 327 261 219 133 137 174
74 71 72 68 66 59 58 56 50 62 82 101 112 115 111 123 122 109 90 79 91 84 72 74 46 31 53 68 37 29 -11 -21 22 4 1 48 90 136 184 189 170 169 115
86 84 79 72 69 63 72 80 74 71 70 73 85 100 109 123 120 100 73 85 87 63 70 55 53 53 64 61 34 19 -30 -48 -108 49 46 9 17 29 87 105 183 159 128
83 81 74 69 68 50 55 63 61 44 60 73 79 88 101 116 126 116 71 74 81 68 54 50 53 61 58 77 57 45 44 27 43 78 76 -53 70 29 31 -14 64 125 136
87 82 79 79 80 79 95 89 88 69 63 67 75 85 89 97 103 104 79 76 66 68 71 64 49 55 45 48 26 16 32 26 34 48 66 -41 35 60 123 80 81 109 156
83 80 78 82 91 92 109 117 122 91 76 80 90 90 87 85 96 121 108 80 69 76 72 58 56 51 58 77 70 39 36 3 -11 20 100 15 1 19 36 87 113 196 196
91 97 101 102 97 106 117 124 123 90 91 91 76 73 76 65 62 66 67 66 57 55 69 85 93 87 85 74 76 43 13 7 8 -72 56 1 34 -28 -74 31 110 199 222